[[{"header":{"parameterUnit":"m.s-1","parameterCategory":1,"la1":30.6,"la2":29.2853,"lo1":-89.7004,"lo2":-87.6739,"dy":0.0162,"dx":0.0183,"nx":112,"ny":82,"refTime":"2026-05-07T12:00:00:Z","depth":0,"parameterNumber":2,"parameterNumberName":"U-component_of_WINDS"},"data":[0.0,0.0,0.0,0.0,0.0,0.0,0.0,0.0,0.0,0.0,0.0,0.0,0.0,0.0,0.0,0.0,0.0,0.0,0.0,0.0,0.0,0.0,0.0,0.0,0.0,0.0,0.0,0.0,0.0,0.0,0.0,0.0,0.0,0.0,0.0,0.0,0.0,0.0,0.0,0.0,0.0,0.0,0.0,0.0,0.0,0.0,0.0,0.0,0.0,0.0,0.0,0.0,0.0,0.0,0.0,0.0,0.0,0.0,0.0,0.0,0.0,0.0,0.0,0.0,0.0,0.0,0.0,0.0,0.0,0.0,0.0,0.0,0.0,0.0,0.0,0.0,0.0,0.0,0.0,0.0,0.0,0.0,0.0,0.0,0.0,0.0,0.0,0.0,0.0,0.0,-3.173,-3.29,-3.4678,-3.5795,-3.5795,-3.5706,-3.41,-3.0497,0.0,0.0,0.0,0.0,0.0,0.0,0.0,0.0,0.0,0.0,0.0,0.0,0.0,0.0,0.0,0.0,0.0,0.0,0.0,0.0,0.0,0.0,0.0,0.0,0.0,0.0,0.0,0.0,0.0,0.0,0.0,0.0,0.0,0.0,0.0,0.0,0.0,0.0,0.0,0.0,0.0,0.0,0.0,0.0,0.0,0.0,0.0,0.0,0.0,0.0,0.0,0.0,0.0,0.0,0.0,0.0,0.0,0.0,0.0,0.0,0.0,0.0,0.0,0.0,0.0,0.0,0.0,0.0,0.0,0.0,0.0,0.0,0.0,0.0,0.0,0.0,0.0,0.0,0.0,0.0,0.0,0.0,0.0,0.0,0.0,0.0,0.0,0.0,0.0,0.0,0.0,0.0,0.0,0.0,0.0,0.0,0.0,0.0,0.0,0.0,0.0,0.0,0.0,0.0,-3.1588,-3.4929,-3.5591,-3.5795,-3.5795,-3.5773,-3.4406,-3.1224,0.0,0.0,0.0,0.0,0.0,0.0,0.0,0.0,0.0,0.0,0.0,0.0,0.0,0.0,0.0,0.0,0.0,0.0,0.0,0.0,0.0,0.0,0.0,0.0,0.0,0.0,0.0,0.0,0.0,0.0,0.0,0.0,0.0,0.0,0.0,0.0,0.0,0.0,0.0,0.0,0.0,0.0,0.0,0.0,0.0,0.0,0.0,0.0,0.0,0.0,0.0,0.0,0.0,0.0,0.0,0.0,0.0,0.0,0.0,0.0,0.0,0.0,0.0,0.0,0.0,0.0,0.0,0.0,0.0,0.0,0.0,0.0,0.0,0.0,0.0,0.0,0.0,0.0,0.0,0.0,0.0,0.0,0.0,0.0,0.0,0.0,0.0,0.0,0.0,0.0,0.0,0.0,0.0,0.0,0.0,0.0,0.0,0.0,0.0,0.0,0.0,0.0,0.0,-3.093,-3.2412,-3.5384,-3.5689,-3.5689,-3.5689,-3.5689,-3.4414,-3.1396,-3.0192,0.0,0.0,0.0,0.0,0.0,0.0,0.0,0.0,0.0,0.0,0.0,0.0,0.0,0.0,0.0,0.0,0.0,0.0,0.0,0.0,0.0,0.0,0.0,0.0,0.0,0.0,0.0,0.0,0.0,0.0,0.0,0.0,0.0,0.0,0.0,0.0,0.0,0.0,0.0,0.0,0.0,0.0,0.0,0.0,0.0,0.0,0.0,0.0,0.0,0.0,0.0,0.0,0.0,0.0,0.0,0.0,0.0,0.0,0.0,0.0,0.0,0.0,0.0,0.0,0.0,0.0,0.0,0.0,0.0,0.0,0.0,0.0,0.0,0.0,0.0,0.0,0.0,0.0,0.0,0.0,0.0,0.0,0.0,0.0,0.0,0.0,0.0,0.0,0.0,0.0,0.0,0.0,0.0,0.0,0.0,0.0,0.0,0.0,0.0,0.0,0.0,0.0,-3.2666,-3.3728,-3.5414,-3.56,-3.56,-3.56,-3.5278,-3.396,-3.136,-3.0345,0.0,0.0,0.0,0.0,0.0,0.0,0.0,0.0,0.0,0.0,0.0,0.0,0.0,0.0,0.0,0.0,0.0,0.0,0.0,0.0,0.0,0.0,0.0,0.0,0.0,0.0,0.0,0.0,0.0,0.0,0.0,0.0,0.0,0.0,0.0,0.0,0.0,0.0,0.0,0.0,0.0,0.0,0.0,0.0,0.0,0.0,0.0,0.0,0.0,0.0,0.0,0.0,0.0,0.0,0.0,0.0,0.0,0.0,0.0,0.0,0.0,0.0,0.0,0.0,0.0,0.0,0.0,0.0,0.0,0.0,0.0,0.0,0.0,0.0,0.0,0.0,0.0,0.0,0.0,0.0,0.0,0.0,0.0,0.0,0.0,0.0,0.0,0.0,0.0,0.0,0.0,0.0,0.0,0.0,0.0,0.0,0.0,0.0,0.0,0.0,0.0,0.0,-3.3677,-3.543,-3.5583,-3.56,-3.56,-3.56,-3.4332,-3.2882,-3.1292,-2.9873,0.0,0.0,0.0,0.0,0.0,0.0,0.0,0.0,0.0,0.0,0.0,0.0,0.0,0.0,0.0,0.0,0.0,0.0,0.0,0.0,0.0,0.0,0.0,0.0,0.0,0.0,0.0,0.0,0.0,0.0,0.0,0.0,0.0,0.0,0.0,0.0,0.0,0.0,0.0,0.0,0.0,0.0,0.0,0.0,0.0,0.0,0.0,0.0,0.0,0.0,0.0,0.0,0.0,0.0,0.0,0.0,0.0,0.0,0.0,0.0,0.0,0.0,0.0,0.0,0.0,0.0,0.0,0.0,0.0,0.0,0.0,0.0,0.0,0.0,0.0,0.0,0.0,0.0,0.0,0.0,0.0,0.0,0.0,0.0,0.0,0.0,0.0,0.0,0.0,0.0,0.0,0.0,0.0,0.0,0.0,0.0,0.0,0.0,0.0,0.0,0.0,0.0,-3.2696,-3.4568,-3.5498,-3.56,-3.56,-3.56,-3.4675,-3.3254,-3.1309,0.0,0.0,0.0,0.0,0.0,0.0,0.0,0.0,0.0,0.0,0.0,0.0,0.0,0.0,0.0,0.0,0.0,0.0,0.0,0.0,0.0,0.0,0.0,0.0,0.0,0.0,0.0,0.0,0.0,0.0,0.0,0.0,0.0,0.0,0.0,0.0,0.0,0.0,0.0,0.0,0.0,0.0,0.0,0.0,0.0,0.0,0.0,0.0,0.0,0.0,0.0,0.0,0.0,0.0,0.0,0.0,0.0,0.0,0.0,0.0,0.0,0.0,0.0,0.0,0.0,0.0,0.0,0.0,0.0,0.0,0.0,0.0,0.0,0.0,0.0,0.0,0.0,0.0,0.0,0.0,0.0,0.0,0.0,0.0,0.0,0.0,0.0,0.0,0.0,0.0,0.0,0.0,0.0,0.0,0.0,0.0,0.0,0.0,0.0,0.0,0.0,0.0,-2.9939,-3.2239,-3.4235,-3.5464,-3.56,-3.5414,-3.494,-3.4235,-3.2747,-3.0277,0.0,0.0,0.0,0.0,0.0,0.0,0.0,0.0,0.0,0.0,0.0,0.0,0.0,0.0,0.0,0.0,0.0,0.0,0.0,0.0,0.0,0.0,0.0,0.0,0.0,0.0,0.0,0.0,0.0,0.0,0.0,0.0,0.0,0.0,0.0,0.0,0.0,0.0,0.0,0.0,0.0,0.0,0.0,0.0,0.0,0.0,0.0,0.0,0.0,0.0,0.0,0.0,0.0,0.0,0.0,0.0,0.0,0.0,0.0,0.0,0.0,0.0,0.0,0.0,0.0,0.0,0.0,0.0,0.0,0.0,0.0,0.0,0.0,0.0,0.0,0.0,0.0,0.0,0.0,0.0,0.0,0.0,0.0,0.0,0.0,0.0,0.0,0.0,0.0,0.0,0.0,0.0,0.0,0.0,0.0,0.0,0.0,0.0,0.0,0.0,0.0,0.0,-2.9989,-3.2662,-3.4776,-3.5498,-3.5583,-3.4974,-3.3525,-3.2713,-3.1024,0.0,0.0,0.0,0.0,0.0,0.0,0.0,0.0,0.0,0.0,0.0,0.0,0.0,0.0,0.0,0.0,0.0,0.0,0.0,0.0,0.0,0.0,0.0,0.0,0.0,0.0,0.0,0.0,0.0,0.0,0.0,0.0,0.0,0.0,0.0,0.0,0.0,0.0,0.0,0.0,0.0,0.0,0.0,0.0,0.0,0.0,0.0,0.0,0.0,0.0,0.0,0.0,0.0,0.0,0.0,0.0,0.0,0.0,0.0,0.0,0.0,0.0,0.0,0.0,0.0,0.0,0.0,0.0,0.0,0.0,0.0,0.0,0.0,0.0,0.0,0.0,0.0,0.0,0.0,0.0,0.0,0.0,0.0,0.0,0.0,0.0,0.0,0.0,0.0,0.0,0.0,0.0,0.0,0.0,0.0,0.0,0.0,0.0,0.0,0.0,0.0,0.0,0.0,-2.8535,-3.1543,-3.3812,-3.4032,-3.4066,-3.366,-3.2716,-3.2429,-3.1024,-2.7993,0.0,0.0,0.0,0.0,0.0,0.0,0.0,0.0,0.0,0.0,0.0,0.0,0.0,0.0,0.0,0.0,0.0,0.0,0.0,0.0,0.0,0.0,0.0,0.0,0.0,0.0,0.0,0.0,0.0,0.0,0.0,0.0,0.0,0.0,0.0,0.0,0.0,0.0,0.0,0.0,0.0,0.0,0.0,0.0,0.0,0.0,0.0,0.0,0.0,0.0,0.0,0.0,0.0,0.0,0.0,0.0,0.0,0.0,0.0,0.0,0.0,0.0,0.0,0.0,0.0,0.0,0.0,0.0,0.0,0.0,0.0,0.0,0.0,0.0,0.0,0.0,0.0,0.0,0.0,0.0,0.0,0.0,0.0,0.0,0.0,0.0,0.0,0.0,0.0,0.0,0.0,0.0,0.0,0.0,0.0,0.0,0.0,0.0,0.0,0.0,0.0,0.0,-2.7824,-3.0835,-3.2949,-3.2949,-3.2949,-3.2408,-3.1092,-3.1532,-3.0446,-2.7131,0.0,0.0,0.0,0.0,0.0,0.0,0.0,0.0,0.0,0.0,0.0,0.0,0.0,0.0,0.0,0.0,0.0,0.0,0.0,0.0,0.0,0.0,0.0,0.0,0.0,0.0,0.0,0.0,0.0,0.0,0.0,0.0,0.0,0.0,0.0,0.0,0.0,0.0,0.0,0.0,0.0,0.0,0.0,0.0,0.0,0.0,0.0,0.0,0.0,0.0,0.0,0.0,0.0,0.0,0.0,0.0,0.0,0.0,0.0,0.0,0.0,0.0,0.0,0.0,0.0,0.0,0.0,0.0,0.0,0.0,0.0,0.0,0.0,0.0,0.0,0.0,0.0,0.0,0.0,0.0,0.0,0.0,0.0,0.0,0.0,0.0,0.0,0.0,0.0,0.0,0.0,0.0,0.0,0.0,0.0,0.0,0.0,0.0,0.0,0.0,0.0,0.0,-2.7519,-3.0226,-3.2073,-3.2005,-3.1989,-3.1142,-2.9077,-3.0262,-2.9533,-2.5845,0.0,0.0,0.0,0.0,0.0,0.0,0.0,0.0,0.0,0.0,0.0,0.0,0.0,0.0,0.0,0.0,0.0,0.0,0.0,0.0,0.0,0.0,0.0,0.0,0.0,0.0,0.0,0.0,0.0,0.0,0.0,0.0,0.0,0.0,0.0,0.0,0.0,0.0,0.0,0.0,0.0,0.0,0.0,0.0,0.0,0.0,0.0,0.0,0.0,0.0,0.0,0.0,0.0,0.0,0.0,0.0,0.0,0.0,0.0,0.0,-2.957,-2.8962,0.0,0.0,0.0,0.0,0.0,0.0,0.0,0.0,0.0,0.0,0.0,0.0,0.0,0.0,0.0,0.0,0.0,0.0,0.0,0.0,0.0,0.0,0.0,0.0,0.0,0.0,0.0,0.0,0.0,0.0,0.0,0.0,0.0,0.0,0.0,0.0,0.0,0.0,0.0,0.0,-2.6116,-2.8704,-3.0345,-2.9771,-2.9704,-2.9264,-2.8145,-2.9465,-2.8991,-2.5795,-2.6437,0.0,0.0,0.0,0.0,0.0,0.0,0.0,0.0,0.0,0.0,0.0,0.0,0.0,0.0,0.0,0.0,0.0,0.0,0.0,0.0,0.0,0.0,0.0,0.0,0.0,0.0,0.0,0.0,0.0,0.0,0.0,0.0,0.0,0.0,0.0,0.0,0.0,0.0,0.0,0.0,0.0,0.0,0.0,0.0,0.0,0.0,0.0,0.0,0.0,0.0,0.0,0.0,0.0,0.0,0.0,0.0,0.0,0.0,0.0,-3.0388,-3.0022,0.0,0.0,0.0,0.0,0.0,0.0,0.0,0.0,0.0,0.0,0.0,0.0,0.0,0.0,0.0,0.0,0.0,0.0,0.0,0.0,0.0,0.0,0.0,0.0,0.0,0.0,0.0,0.0,0.0,0.0,0.0,0.0,0.0,0.0,0.0,0.0,0.0,0.0,0.0,0.0,-2.5675,-2.7926,-2.9279,-2.8518,-2.8416,-2.8264,-2.7841,-2.889,-2.8738,-2.6776,-2.7012,0.0,0.0,0.0,0.0,0.0,0.0,0.0,0.0,0.0,0.0,0.0,0.0,0.0,0.0,0.0,0.0,0.0,0.0,0.0,0.0,0.0,0.0,0.0,0.0,0.0,0.0,0.0,0.0,0.0,0.0,0.0,0.0,0.0,0.0,0.0,0.0,0.0,0.0,0.0,0.0,0.0,0.0,0.0,0.0,0.0,0.0,0.0,0.0,0.0,0.0,0.0,0.0,0.0,-3.2987,-3.3122,-3.3141,-3.343,-3.3564,-3.3481,-3.1928,-3.18,-3.2565,-3.0848,0.0,0.0,0.0,0.0,0.0,0.0,0.0,0.0,0.0,0.0,0.0,0.0,0.0,0.0,0.0,0.0,0.0,0.0,0.0,0.0,0.0,0.0,-3.0076,-2.909,-3.0368,-3.1182,-2.8822,0.0,0.0,0.0,0.0,0.0,0.0,0.0,0.0,0.0,0.0,0.0,-2.5454,-2.752,-2.8687,-2.7891,-2.7925,-2.801,-2.801,-2.8738,-2.8839,-2.806,-2.801,-2.6909,0.0,0.0,0.0,0.0,0.0,0.0,0.0,0.0,0.0,0.0,0.0,0.0,0.0,0.0,0.0,0.0,0.0,0.0,0.0,0.0,0.0,0.0,0.0,0.0,0.0,0.0,0.0,0.0,0.0,0.0,0.0,0.0,-2.4219,-2.4431,0.0,0.0,0.0,0.0,0.0,0.0,0.0,0.0,0.0,0.0,0.0,0.0,0.0,-3.0231,-3.0577,-3.2006,-3.2449,-3.1891,-3.3333,-3.4032,-3.409,-3.5545,-3.6192,-3.6192,-3.5948,0.0,-3.2676,-3.2409,0.0,0.0,0.0,0.0,0.0,0.0,0.0,0.0,0.0,0.0,0.0,0.0,0.0,0.0,0.0,0.0,0.0,0.0,0.0,0.0,0.0,0.0,-3.1242,-3.2672,-3.3256,-3.3188,-3.2135,-2.971,-2.7647,-2.7468,-2.6801,-2.5921,0.0,0.0,0.0,0.0,0.0,0.0,-2.4759,-2.7199,-2.8687,-2.7891,-2.8433,-2.884,-2.884,-2.9533,-2.9634,-2.8891,-2.884,-2.7936,-2.5924,-2.511,0.0,0.0,0.0,0.0,0.0,0.0,0.0,0.0,0.0,0.0,0.0,0.0,0.0,0.0,0.0,0.0,0.0,0.0,0.0,0.0,0.0,0.0,0.0,0.0,0.0,0.0,0.0,0.0,0.0,-2.4646,-2.5535,-2.5081,-2.5773,-2.607,0.0,0.0,0.0,0.0,0.0,0.0,0.0,0.0,0.0,-3.0081,-3.0851,-3.1718,-3.2682,-3.3437,-3.4079,-3.4625,-3.5378,-3.5933,-3.6353,-3.7103,-3.743,-3.7469,-3.795,-3.6933,-3.487,-3.3811,-3.3104,-3.2551,0.0,0.0,0.0,0.0,-3.1218,-3.1187,-3.158,-3.1712,-3.1609,-3.0697,0.0,0.0,0.0,0.0,0.0,0.0,0.0,-2.9615,-3.1023,-3.1657,-3.2104,-3.2936,-3.3476,-3.3697,-3.3348,-3.1806,-3.0228,-2.931,-2.8828,-2.7919,-2.5886,-2.5823,0.0,0.0,0.0,-2.5786,-2.5199,-2.6623,-2.7571,-2.7232,-2.7486,-2.7875,-2.8298,-2.9042,-2.933,-2.9027,-2.9381,-2.8483,-2.5917,-2.5911,-2.4712,0.0,0.0,0.0,0.0,0.0,0.0,0.0,0.0,0.0,0.0,0.0,0.0,0.0,0.0,0.0,0.0,0.0,0.0,0.0,0.0,0.0,0.0,0.0,0.0,0.0,0.0,0.0,0.0,-2.5953,-2.656,-2.5712,-2.6548,-2.6834,0.0,0.0,0.0,0.0,0.0,0.0,-2.8359,-2.8845,-3.005,-3.2172,-3.2441,-3.3195,-3.449,-3.4703,-3.54,-3.6584,-3.6598,-3.7116,-3.8067,-3.7834,-3.7833,-3.8064,-3.8683,-3.8104,-3.6589,-3.5181,-3.4351,-3.3869,-3.2708,-3.2213,-3.2174,-3.2174,-3.2113,-3.2066,-3.227,-3.271,-3.2958,-3.1749,-3.1478,-3.137,-3.0088,0.0,0.0,0.0,0.0,-3.0687,-3.1488,-3.2155,-3.2656,-3.2858,-3.3366,-3.3807,-3.3807,-3.333,-3.243,-3.0815,-3.0338,-2.9405,-2.6938,-2.6874,0.0,-2.4712,-2.5371,-2.5998,-2.5783,-2.6503,-2.7013,-2.6979,-2.7165,-2.7503,-2.8061,-2.8467,-2.879,-2.8993,-2.9313,-2.8462,-2.6104,-2.6545,-2.5441,-2.2531,0.0,0.0,0.0,0.0,0.0,0.0,0.0,0.0,0.0,0.0,0.0,0.0,0.0,0.0,0.0,0.0,0.0,0.0,0.0,0.0,0.0,0.0,0.0,0.0,0.0,0.0,0.0,0.0,0.0,-2.5804,-2.7187,0.0,0.0,0.0,0.0,-2.797,-2.8731,-2.9243,-2.934,-3.0834,-3.2152,-3.3098,-3.393,-3.4412,-3.449,-3.5255,-3.5682,-3.5768,-3.5756,-3.6649,-3.8251,-3.7359,-3.7381,-3.809,-3.8071,-3.7546,-3.6692,-3.6589,-3.5608,-3.4083,-3.3065,-3.2551,-3.2437,-3.3021,-3.31,-3.3045,-3.3807,-3.4104,-3.4111,-3.4048,-3.2919,-3.1708,-3.2324,-3.1385,0.0,0.0,-3.1354,-3.1525,-3.2322,-3.2566,-3.2784,-3.3568,-3.377,-3.3807,-3.3807,-3.377,-3.3256,-3.1654,-3.0723,-2.9654,-2.791,0.0,-2.697,-2.6045,-2.6121,-2.6256,-2.618,-2.7208,-2.7878,-2.7774,-2.8433,-2.8891,-2.8942,-2.8281,-2.8197,-2.8959,-2.8332,-2.768,-2.7129,-2.7166,-2.6253,-2.4313,-2.3353,0.0,0.0,0.0,0.0,0.0,0.0,0.0,0.0,0.0,0.0,0.0,0.0,0.0,0.0,0.0,0.0,0.0,0.0,0.0,0.0,0.0,0.0,0.0,0.0,0.0,0.0,0.0,0.0,-2.7485,-2.9377,0.0,-2.9502,-2.9695,-2.9866,-2.9835,-3.0127,-3.0792,-3.1904,-3.2545,-3.352,-3.4961,-3.5292,-3.5466,-3.5466,-3.5756,-3.6418,-3.7433,-3.7446,-3.8004,-3.9067,-3.8734,-3.8443,-3.8214,-3.8117,-3.7598,-3.6826,-3.6734,-3.6038,-3.4993,-3.4489,-3.4271,-3.4215,-3.4292,-3.4198,-3.4068,-3.4349,-3.434,-3.4197,-3.4197,-3.337,-3.241,-3.2681,-3.1918,-3.1133,-3.1954,-3.2175,-3.2359,-3.3172,-3.338,-3.344,-3.3733,-3.3807,-3.366,-3.3146,-3.3036,-3.2559,-3.0944,-3.1237,-3.106,-2.8909,-2.867,-2.826,-2.6749,-2.6796,-2.6922,-2.6676,-2.7026,-2.725,-2.7114,-2.7351,-2.7317,-2.6843,-2.6979,-2.7012,-2.6826,-2.6996,-2.6786,-2.6136,-2.6593,-2.5878,-2.3735,-2.3845,-2.3285,0.0,0.0,0.0,0.0,0.0,0.0,0.0,0.0,0.0,0.0,0.0,0.0,0.0,0.0,0.0,0.0,0.0,0.0,0.0,0.0,0.0,0.0,0.0,0.0,0.0,-2.83,-2.9453,-2.9178,-3.1149,-3.2203,-3.1325,-3.1497,-3.1689,-3.1689,-3.1957,-3.2617,-3.3788,-3.4118,-3.4802,-3.5953,-3.5992,-3.5992,-3.5992,-3.5992,-3.6682,-3.8037,-3.7722,-3.8152,-3.9185,-3.8552,-3.8148,-3.7868,-3.7477,-3.6985,-3.6482,-3.6362,-3.6016,-3.5522,-3.5357,-3.5258,-3.5174,-3.5054,-3.486,-3.4689,-3.4615,-3.4409,-3.4197,-3.4161,-3.3728,-3.3198,-3.3172,-3.2716,-3.2329,-3.2847,-3.2994,-3.3117,-3.3673,-3.3807,-3.3807,-3.3807,-3.3587,-3.3256,-3.2711,-3.2381,-3.1806,-3.0467,-3.1072,-3.128,-2.9684,-2.9344,-2.8969,-2.8078,-2.7692,-2.7444,-2.7276,-2.7087,-2.6925,-2.6775,-2.6758,-2.6454,-2.5676,-2.6048,-2.6015,-2.527,-2.5692,-2.5732,-2.5184,-2.5916,-2.5542,-2.391,-2.3935,-2.3264,-2.1787,0.0,0.0,0.0,0.0,0.0,0.0,0.0,0.0,0.0,0.0,0.0,0.0,0.0,0.0,0.0,0.0,0.0,0.0,0.0,0.0,0.0,0.0,0.0,-2.8285,-2.9069,-2.993,-3.0771,-3.2413,-3.3156,-3.2295,-3.2987,-3.3476,-3.3476,-3.4268,-3.4746,-3.4746,-3.5545,-3.5992,-3.5992,-3.5992,-3.5992,-3.5992,-3.5992,-3.6441,-3.7282,-3.6441,-3.6931,-3.8492,-3.6735,-3.6359,-3.7019,-3.611,-3.5702,-3.5693,-3.564,-3.5593,-3.5602,-3.5522,-3.5376,-3.5218,-3.5218,-3.5081,-3.4889,-3.4668,-3.442,-3.4197,-3.413,-3.4055,-3.3999,-3.391,-3.3857,-3.3807,-3.3807,-3.3807,-3.3807,-3.3807,-3.3807,-3.3807,-3.3807,-3.3201,-3.2583,-3.2564,-3.1935,-3.1109,-3.032,-3.0173,-3.0173,-3.0173,-2.9302,-2.8961,-2.9996,-2.877,0.0,-2.7971,-2.7474,-2.7054,-2.6926,-2.6893,-2.6554,-2.5676,-2.5592,-2.527,-2.4508,-2.4457,-2.4457,-2.4441,-2.5152,-2.5362,-2.496,-2.3581,-2.2505,-2.1787,0.0,0.0,0.0,0.0,0.0,0.0,0.0,0.0,0.0,0.0,0.0,0.0,0.0,0.0,0.0,0.0,0.0,0.0,0.0,0.0,0.0,-2.7297,-2.8214,-2.8283,-3.0625,-3.2423,-3.2666,-3.4212,-3.5189,-3.4955,-3.5133,-3.5292,-3.5293,-3.5506,-3.5638,-3.5631,-3.5879,-3.5992,-3.5992,-3.5992,-3.5992,-3.5992,-3.5992,-3.6441,-3.7301,-3.7067,-3.7184,-3.7633,-3.7136,-3.6682,-3.6288,-3.5986,-3.5843,-3.5837,-3.5717,-3.5678,-3.5664,-3.5554,-3.5472,-3.5417,-3.5417,-3.5281,-3.5072,-3.4724,-3.4551,-3.4453,-3.4239,-3.4086,-3.3994,-3.3985,-3.3887,-3.3807,-3.3807,-3.3807,-3.3807,-3.3807,-3.3807,-3.3807,-3.3807,-3.3201,-3.2436,-3.1861,-3.1091,-3.0283,-2.9482,-2.9335,-2.9335,-2.9335,-2.9093,-2.8912,-2.9022,-2.8639,-2.8192,-2.7771,-2.7582,-2.7355,-2.7007,-2.6926,-2.657,-2.574,-2.5641,-2.5067,-2.378,-2.3712,-2.3575,-2.3282,-2.3747,-2.3942,-2.3845,-2.2926,-2.2254,0.0,0.0,0.0,0.0,0.0,0.0,0.0,0.0,0.0,0.0,0.0,0.0,0.0,0.0,0.0,0.0,0.0,0.0,0.0,0.0,0.0,0.0,-2.8477,-2.9919,-3.0299,-3.2112,-3.3668,-3.4363,-3.5342,-3.5967,-3.5958,-3.5968,-3.596,-3.597,-3.5956,-3.5976,-3.6008,-3.6004,-3.6,-3.5998,-3.5998,-3.5996,-3.5992,-3.5992,-3.6246,-3.6755,-3.6755,-3.6755,-3.6755,-3.6755,-3.648,-3.5991,-3.5951,-3.594,-3.5936,-3.584,-3.5749,-3.5681,0.0,0.0,0.0,0.0,-3.5369,-3.5176,-3.4936,-3.4743,-3.4567,-3.4428,-3.4216,-3.4037,-3.4009,-3.3942,-3.3844,-3.3807,-3.3807,-3.3807,-3.3807,-3.355,-3.3311,-3.3311,-3.243,-3.1476,-3.0999,-3.0265,-2.9555,-2.9097,-2.9005,0.0,-2.9005,-2.9005,-2.9068,-2.9247,-2.8881,-2.8404,-2.7883,-2.7713,-2.7491,-2.7087,-2.7006,-2.665,-2.5852,-2.6026,0.0,0.0,0.0,-2.3652,-2.3076,-2.3289,0.0,0.0,0.0,0.0,0.0,0.0,0.0,0.0,-2.4463,-2.4939,0.0,0.0,0.0,0.0,0.0,0.0,0.0,0.0,0.0,0.0,0.0,0.0,0.0,0.0,0.0,0.0,-2.9836,-3.2311,-3.3219,-3.3443,-3.413,-3.5708,-3.5908,-3.5897,-3.5905,-3.59,-3.5892,-3.5892,-3.5897,-3.5915,-3.5994,-3.5993,0.0,0.0,0.0,-3.6001,-3.5994,-3.5992,-3.5992,-3.5992,-3.5992,-3.5992,-3.5992,-3.5992,-3.5992,-3.5992,-3.5992,-3.5934,-3.5854,-3.5897,-3.5843,-3.5702,-3.562,-3.5585,-3.5574,-3.5528,-3.5395,-3.5226,-3.5215,0.0,0.0,-3.464,-3.4435,-3.4159,-3.409,-3.4018,-3.3923,-3.3855,-3.3815,-3.377,-3.3697,-3.3146,-3.2583,-3.2491,-3.1311,-3.021,-3.021,-2.9574,-2.9005,-2.9005,-2.9005,-2.9005,-2.9005,-2.9005,-2.9244,-2.9971,-2.9247,-2.8507,-2.8156,-2.7897,-2.7597,-2.7166,-2.7119,0.0,-2.6098,-2.6631,-2.6071,-2.3898,-2.429,-2.4279,-2.3545,-2.3397,-2.3197,-2.2857,-2.2759,-2.2394,-2.1734,-2.2079,-2.3007,-2.4434,-2.4296,-2.518,0.0,0.0,0.0,0.0,0.0,0.0,0.0,0.0,0.0,0.0,0.0,0.0,0.0,0.0,0.0,-2.845,-3.0552,-3.2453,-3.4035,-3.4276,-3.469,-3.5772,-3.5894,-3.5897,-3.5905,-3.5892,-3.5879,-3.5827,-3.5828,-3.5851,-3.5912,-3.5915,-3.5937,-3.5991,-3.6006,-3.6003,-3.6002,-3.5996,-3.5992,-3.5992,-3.5992,0.0,-3.5992,-3.5992,-3.5992,-3.5992,-3.5992,-3.5602,-3.4998,-3.5693,-3.594,-3.5833,-3.5599,-3.5521,-3.5521,-3.5494,-3.5479,-3.542,-3.5271,-3.515,-3.5058,-3.4889,-3.4772,-3.4648,-3.4569,-3.436,0.0,-3.4122,-3.3968,-3.3642,-3.2999,-3.2711,-3.2436,-3.1788,-3.0889,-3.021,-3.021,-2.9574,-2.9005,-2.9005,-2.9005,-2.9005,-2.9005,-2.9005,-2.906,-2.9207,-2.9062,-2.8713,-2.817,-2.8061,-2.7826,-2.7312,-2.7168,-2.7034,-2.6881,-2.6937,-2.6547,-2.5504,-2.4916,-2.4499,-2.4288,-2.3469,-2.2842,-2.2492,-2.1905,-2.1535,-2.1396,-2.1734,-2.2639,-2.4045,-2.5159,-2.6365,0.0,0.0,0.0,0.0,0.0,0.0,0.0,0.0,0.0,0.0,0.0,-2.404,-2.5327,0.0,-2.7966,-2.9674,-3.1027,-3.2459,-3.4202,-3.4089,-3.4361,-3.5739,-3.5493,-3.5366,-3.5815,-3.5811,-3.5788,-3.5749,-3.5741,-3.5788,-3.5855,-3.5843,-3.5874,-3.5908,-3.5936,-3.5957,-3.5957,-3.599,-3.6003,-3.6003,-3.6003,-3.6001,-3.5999,-3.5999,-3.5996,-3.5973,-3.5543,-3.5096,-3.4724,-3.5133,-3.5288,-3.5271,-3.551,-3.5587,-3.554,-3.5508,-3.55,-3.5481,-3.5378,-3.5271,-3.5182,-3.5081,-3.4964,-3.4813,-3.4572,-3.4481,-3.4317,-3.372,-3.3849,-3.3919,-3.2995,-3.2484,-3.2053,-3.1532,-3.0485,-2.9592,-2.9592,-2.928,-2.9005,-2.9005,-2.9005,-2.8877,-2.8473,-2.8411,-2.8528,-2.8932,-2.9005,-2.8839,-2.8417,-2.8197,-2.7954,-2.7539,-2.731,-2.7029,-2.6633,-2.6212,-2.5944,-2.5911,-2.5084,-2.4567,-2.4506,-2.3998,-2.3625,-2.3452,-2.2897,-2.2524,-2.2345,-2.2654,-2.3478,-2.4794,-2.6257,-2.7375,0.0,0.0,0.0,0.0,0.0,0.0,0.0,-2.146,-2.228,-2.3141,-2.4488,-2.5774,-2.6644,-2.8155,-2.9549,-3.0419,-3.137,-3.248,-3.3895,-3.3532,-3.3678,-3.5142,-3.4836,-3.4843,-3.5704,-3.5727,-3.5698,-3.5706,-3.5691,-3.571,-3.5788,-3.5774,-3.5783,-3.5807,-3.5846,-3.5883,-3.5887,-3.5937,-3.5957,-3.5957,-3.5976,-3.5975,-3.5955,-3.5992,-3.5988,-3.5924,-3.5079,-3.4803,-3.4938,-3.471,-3.4713,-3.492,-3.5518,-3.57,-3.5654,-3.5547,-3.5508,-3.55,-3.55,-3.5383,-3.5269,-3.5259,-3.5145,-3.4954,-3.4605,-3.4492,-3.4298,-3.3317,-3.3493,-3.3713,-3.2697,-3.1952,-3.1395,-3.1023,-2.9953,-2.9005,-2.9005,-2.9005,-2.9005,-2.9005,-2.9005,-2.873,-2.7934,-2.7798,-2.797,-2.8455,-2.8528,-2.8461,-2.8297,-2.8035,-2.7804,-2.7639,-2.7298,-2.6799,-2.6146,-2.5515,-2.542,-2.6081,-2.5458,-2.504,-2.4979,-2.4811,-2.468,-2.4633,-2.4163,-2.3819,-2.3608,-2.3829,-2.4505,-2.5607,-2.702,-2.8063,-2.0754,-2.0541,-2.0409,-1.9627,-2.0545,-2.1651,0.0,-2.2289,-2.3114,-2.3995,-2.4888,-2.5764,-2.6643,-2.8081,-2.9401,-3.0282,-3.1699,-3.2761,-3.2953,-3.2903,-3.2949,-3.3201,-3.3989,-3.4815,-3.5621,-3.5708,-3.5689,-3.5706,-3.5706,-3.5694,-3.5706,-3.571,-3.5748,-3.5791,-3.5812,-3.5802,-3.5802,-3.5816,-3.5823,-3.5823,-3.5876,-3.5876,-3.5825,-3.5948,-3.5975,-3.5879,-3.5049,-3.5135,-3.5797,-3.5013,-3.5149,-3.5846,-3.5863,-3.5875,-3.5833,-3.5664,-3.5553,-3.55,-3.55,-3.5486,-3.5472,-3.5472,-3.5439,-3.5398,-3.5235,-3.4541,-3.3776,-3.3582,-3.2797,-3.1812,-3.098,-3.0575,-3.019,-2.9457,-2.9133,-2.9005,-2.9005,-2.9005,-2.9005,-2.9005,-2.9005,-2.873,-2.7934,-2.7798,-2.7585,-2.695,-2.6859,-2.6913,-2.7074,-2.7072,-2.7108,-2.7321,-2.6676,-2.6197,-2.6109,-2.6025,-2.6253,-2.6914,-2.6817,-2.6686,-2.6638,-2.5894,-2.5344,-2.5046,-2.4348,-2.4132,-2.4374,-2.4401,-2.4788,-2.5538,-2.6709,-2.8229,-2.0605,-2.0154,-1.9819,-1.9969,-2.0524,-2.1161,-2.1641,-2.239,-2.3378,-2.4725,-2.5644,-2.6618,-2.7996,-2.8786,-2.9641,-3.0951,-3.1718,-3.2308,-3.2734,-3.1954,-3.1731,-3.2724,-3.2386,-3.2775,-3.4585,-3.5253,-3.557,-3.5585,-3.567,-3.5706,-3.5694,-3.5694,-3.5713,-3.5739,-3.5737,-3.5742,-3.5742,-3.5789,-3.5807,-3.5809,-3.5838,-3.5821,-3.5799,-3.5859,-3.5605,-3.5112,-3.4785,-3.4587,-3.4509,-3.4647,-3.4901,-3.529,-3.5763,-3.5936,-3.5875,-3.567,-3.5574,-3.5553,-3.5508,-3.55,-3.55,-3.55,-3.5154,-3.4691,-3.4489,-3.385,-3.3027,-3.2389,-3.2238,-3.2062,-3.1111,-3.0728,-3.0477,-2.998,-2.9439,-2.9005,-2.9005,-2.9005,-2.9005,-2.9005,-2.862,-2.8044,-2.7236,-2.6715,-2.6292,-2.5962,-2.6176,-2.6574,-2.7113,-2.6925,-2.6873,-2.7276,-2.6575,-2.6299,-2.6764,-2.6368,-2.639,-2.7067,-2.7039,-2.6975,-2.6909,-2.647,-2.6185,-2.6034,-2.5496,-2.529,-2.5428,-2.5212,-2.534,-2.587,-2.6776,-2.8018,-2.0225,-1.9867,-1.9644,-2.0037,-2.0492,-2.0972,-2.1568,-2.2362,-2.332,-2.4557,-2.5599,-2.67,-2.796,-2.8758,-2.9673,-3.1039,-3.1648,-3.2115,-3.2622,-3.1843,-3.1525,-3.2273,-3.1489,-3.1529,-3.3137,-3.4403,-3.5213,-3.5437,-3.5566,-3.5631,-3.5646,-3.5684,-3.5704,-3.5704,-3.5704,-3.5697,-3.5697,-3.5745,-3.5774,-3.5778,-3.5765,-3.5772,-3.5775,-3.5766,-3.5472,-3.496,-3.4956,-3.4647,-3.4177,-3.4803,-3.5057,-3.5115,-3.5758,-3.5978,-3.5919,-3.5736,-3.564,-3.5596,-3.554,-3.5515,-3.5462,-3.5212,-3.4718,-3.4121,-3.3662,-3.3019,-3.2309,-3.1481,-3.158,-3.174,-3.0974,-3.0667,-3.0499,-3.03,-2.9643,-2.9089,-2.9089,-2.9033,-2.9005,-2.9005,-2.8539,-2.7805,-2.6778,-2.63,-2.5907,-2.5466,-2.579,-2.6291,-2.6874,-2.6667,-2.6516,-2.6657,-2.6333,-2.6247,-2.6626,-2.6316,-2.632,-2.6789,-2.6951,-2.6991,-2.6926,-2.6825,-2.6742,-2.6691,-2.6298,-2.6104,-2.6104,-2.5689,-2.5652,-2.5943,-2.6683,-2.7592,-1.948,-1.9836,-2.0266,-1.9448,-2.0469,-2.1668,-2.1685,-2.2325,-2.2936,-2.3046,-2.4273,-2.536,-2.5418,-2.7388,-2.9257,-3.0016,-3.152,-3.254,-3.2433,-3.3098,-3.3003,-3.1429,-3.1884,-3.2055,-3.1362,-3.3032,-3.4477,-3.5257,-3.5424,-3.5502,-3.5505,-3.5626,-3.5704,-3.5704,-3.5709,-3.569,-3.569,-3.5695,-3.5695,-3.5695,-3.5689,-3.5708,-3.5706,-3.5706,-3.5766,-3.5864,-3.5858,-3.5876,-3.5914,-3.5953,-3.5953,-3.5953,-3.5992,-3.5992,-3.5986,-3.5924,-3.5776,-3.5607,-3.5602,-3.5559,-3.5365,-3.4507,-3.4225,-3.4038,-3.3105,-3.2267,-3.1608,-3.1441,-3.0715,-2.9981,-2.9934,-2.978,-2.9645,-2.9636,-2.9464,-2.9293,-2.9293,-2.9138,-2.9005,-2.9005,-2.8987,-2.8455,-2.6859,-2.7236,-2.721,-2.5631,-2.5651,-2.5831,-2.5849,-2.6002,-2.585,-2.5143,-2.5695,-2.5818,-2.5126,-2.5712,-2.6111,-2.6128,-2.6738,-2.7071,-2.6991,-2.6942,-2.6842,-2.6691,-2.6298,-2.6104,-2.6104,-2.5689,-2.5503,-2.5538,-2.6212,-2.6956,-1.9921,-1.9786,-1.9632,-1.993,-2.043,-2.0983,-2.1565,-2.1907,-2.2258,-2.2755,-2.328,-2.3974,-2.5043,-2.5915,-2.7278,-2.9704,-3.1055,-3.1941,-3.2348,-3.2198,-3.1838,-3.1261,-3.0465,-3.0276,-3.1109,-3.288,-3.4069,-3.4357,-3.4996,-3.5377,-3.5372,-3.5417,-3.5439,-3.5423,-3.5522,-3.5578,-3.5578,-3.5656,-3.5704,-3.5704,-3.5706,-3.5706,-3.5709,-3.5694,-3.5751,-3.5836,-3.5839,-3.5894,-3.5999,-3.5991,-3.5992,-3.5992,-3.5992,-3.5992,-3.5991,-3.596,-3.5524,-3.5003,-3.5441,-3.5179,-3.4584,-3.4302,-3.3449,-3.2462,-3.2109,-3.1405,-3.0727,-3.0628,-3.0355,-3.0106,-3.0106,-2.9945,-2.9805,-2.9805,-2.9551,-2.9304,-2.9304,-2.9149,-2.9005,-2.9005,-2.8565,-2.8026,-2.7493,-2.702,-2.6609,-2.6193,-2.6368,-2.6397,-2.6044,-2.6524,-2.6799,-2.654,-2.6281,-2.599,-2.5749,-2.5523,-2.5577,-2.6059,-2.5608,-2.5836,-2.702,-2.6285,-2.6034,-2.6435,-2.6487,-2.6384,-2.6104,-2.6228,-2.6298,-2.6314,-2.7029,-2.7779,-2.0226,-1.994,-1.9622,-2.0182,-2.0325,-2.0483,-2.105,-2.1166,-2.1386,-2.2147,-2.2271,-2.2681,-2.4016,-2.4763,-2.5935,-2.832,-2.9965,-3.118,-3.1874,-3.2046,-3.1989,-3.1659,-3.0939,-3.0787,-3.1545,-3.2968,-3.3833,-3.3828,-3.4706,-3.5231,-3.5231,-3.527,-3.5299,-3.53,-3.5388,-3.545,-3.5509,-3.559,-3.5656,-3.5704,-3.5704,-3.5704,-3.5704,-3.5704,-3.5729,-3.5773,-3.5795,-3.5869,-3.596,-3.5995,-3.5992,-3.5992,-3.5992,-3.5992,-3.5992,-3.5992,-3.5607,-3.512,-3.5497,-3.503,-3.4179,-3.3834,-3.3006,-3.2,-3.1341,-3.0746,-3.0279,-3.0221,-3.0194,-3.0211,-3.0211,-3.0094,-2.9996,-2.9932,-2.9653,-2.9395,-2.9314,-2.9149,-2.9005,-2.9005,-2.8583,-2.8136,-2.7842,-2.7153,-2.6729,-2.7038,-2.7144,-2.6926,-2.6187,-2.6557,-2.6868,-2.6868,-2.6678,-2.6419,-2.6111,-2.5571,-2.5367,-2.568,-2.5139,-2.5335,-2.6447,-2.5983,-2.5829,-2.6083,-2.6068,-2.5926,-2.567,-2.5926,-2.6184,-2.6482,-2.7172,-2.7935,-2.0273,-2.0241,-2.0197,-2.0193,-2.0193,-2.0193,-2.0193,-2.0193,-2.0419,-2.1176,-2.1282,-2.1493,-2.2364,-2.3898,-2.5291,-2.6067,-2.8436,-3.0419,-3.1164,-3.2672,-3.3392,-3.2549,-3.3164,-3.3316,-3.2473,-3.3183,-3.3695,-3.3705,-3.4567,-3.5088,-3.5088,-3.5211,-3.5274,-3.5285,-3.5293,-3.536,-3.547,-3.5483,-3.5578,-3.5704,-3.5704,-3.5704,-3.5704,-3.5704,-3.5709,-3.5706,-3.5764,-3.5825,-3.5902,-3.5976,-3.5996,-3.5992,-3.5992,-3.5992,-3.5992,-3.5992,-3.5934,-3.5827,-3.5739,-3.5054,-3.4099,-3.321,-3.2859,-3.2462,-3.0797,-3.0299,-3.0279,-3.0221,-3.0194,-3.0211,-3.0211,-3.0185,-3.0135,-2.9956,-2.9734,-2.9542,-2.9345,-2.9149,-2.9005,-2.9005,-2.9005,-2.8737,-2.7955,-2.7614,-2.7583,-2.7995,-2.784,-2.7305,-2.6295,-2.6146,-2.6146,-2.613,-2.68,-2.6904,-2.61,-2.5712,-2.5341,-2.5018,-2.5239,-2.539,-2.5429,-2.5966,-2.6072,-2.5666,-2.5176,-2.4922,-2.4902,-2.4922,-2.529,-2.5996,-2.6662,-2.7358,-2.032,-2.0288,-2.025,-2.0205,-2.0193,-2.0193,-2.0193,-2.0193,-2.0237,-2.0394,-2.0423,-2.0636,-2.1417,-2.2936,-2.4524,-2.5977,-2.8856,-3.1189,-3.1989,-3.3013,-3.3619,-3.3392,-3.2994,-3.2653,-3.2416,-3.3183,-3.3695,-3.3695,-3.4472,-3.4946,-3.4946,-3.4993,-3.5002,-3.5,-3.5096,-3.5171,-3.5203,-3.5409,-3.5578,-3.5704,-3.5704,-3.5704,-3.5704,-3.5704,-3.5736,-3.5766,-3.5747,-3.5792,-3.5894,-3.5912,-3.5954,-3.5992,-3.5992,-3.5992,-3.5992,-3.5992,-3.5582,-3.5087,-3.5655,-3.4789,-3.3378,-3.3119,-3.2146,-3.0956,-3.0451,-3.0299,-3.0279,-3.0221,-3.0194,-3.0211,-3.0211,-3.0098,-2.9953,-2.9905,-2.9635,-2.9365,-2.9314,-2.9149,-2.9005,-2.9005,-2.9005,-2.8796,-2.8142,-2.7976,-2.782,-2.7552,-2.7452,-2.7289,-2.7039,-2.6988,-2.6877,-2.6585,-2.6453,-2.6099,-2.533,-2.4465,-2.426,-2.4962,-2.3356,-2.3457,-2.581,-2.4754,-2.4468,-2.5294,-2.5441,-2.5307,-2.4902,-2.5198,-2.5448,-2.5641,-2.6366,-2.7106,-2.0824,-2.0554,-2.023,-2.0167,-2.0168,-2.014,-2.0122,-2.0112,-2.0198,-2.0515,-2.0295,-2.028,-2.106,-2.2571,-2.4125,-2.5458,-2.8161,-3.0522,-3.1715,-3.2596,-3.3278,-3.3657,-3.3581,-3.3505,-3.3505,-3.3941,-3.4226,-3.4235,-3.4652,-3.4908,-3.4908,-3.4908,-3.4908,-3.4908,-3.4973,-3.5044,-3.5096,-3.5374,-3.5534,-3.5608,-3.5668,-3.5704,-3.5704,-3.5704,-3.5731,-3.5747,-3.5727,-3.5737,-3.5799,-3.5846,-3.5905,-3.5953,-3.596,-3.5973,-3.5992,-3.5992,-3.5699,-3.5345,-3.5793,-3.4976,-3.3743,-3.3655,-3.2921,-3.1981,-3.1565,-3.1168,-3.0849,-3.0829,-3.0514,-3.0206,-3.0206,-3.0109,-2.9996,-2.9822,-2.9598,-2.9385,-2.9206,-2.9089,-2.9005,-2.9005,-2.9005,-2.887,-2.8399,-2.8197,-2.7968,-2.7539,-2.7392,-2.7299,-2.7299,-2.7299,-2.7218,-2.699,-2.6597,-2.6196,-2.5765,-2.4597,-2.4215,-2.4943,-2.3292,-2.3045,-2.4834,-2.4144,-2.3985,-2.4499,-2.4932,-2.4993,-2.4639,-2.504,-2.5493,-2.5988,-2.6393,-2.7237,-2.1351,-2.0784,-2.0193,-2.0122,-2.0117,-2.0069,-2.0031,-2.001,-2.0213,-2.0903,-2.0492,-2.0213,-2.0903,-2.2495,-2.3999,-2.4852,-2.7176,-2.9423,-3.0977,-3.1886,-3.2728,-3.36,-3.4207,-3.4661,-3.4889,-3.4794,-3.4794,-3.4889,-3.4794,-3.4794,-3.4889,-3.4908,-3.4908,-3.4908,-3.4908,-3.4963,-3.5096,-3.534,-3.5477,-3.549,-3.5614,-3.5673,-3.5704,-3.5673,-3.5679,-3.5701,-3.5698,-3.5718,-3.5716,-3.5771,-3.5821,-3.5894,-3.5892,-3.5936,-3.5992,-3.5992,-3.5992,-3.5992,-3.5992,-3.5469,-3.472,-3.4428,-3.4204,-3.3878,-3.3013,-3.2218,-3.1584,-3.1463,-3.0829,-3.0188,-3.0188,-3.0173,-3.0064,-2.9689,-2.9589,-2.9455,-2.9078,-2.9005,-2.9005,-2.9005,-2.8964,-2.887,-2.8576,-2.8268,-2.7968,-2.7686,-2.7452,-2.7283,-2.7234,-2.7218,-2.7202,-2.7137,-2.6825,-2.6573,-2.647,-2.5265,-2.4608,-2.4838,-2.3958,-2.3427,-2.347,-2.3963,-2.4076,-2.3741,-2.4249,-2.4441,-2.4302,-2.4639,-2.5338,-2.6285,-2.6289,-2.7234,-2.0719,-2.0392,-2.0273,-2.0193,-2.0135,-2.0108,-2.0093,-2.0088,-2.0106,-2.0194,-2.0147,-2.0101,-2.0194,-2.2116,-2.3999,-2.4852,-2.7687,-3.0105,-3.1071,-3.1886,-3.2728,-3.36,-3.3183,-3.3392,-3.4775,-3.4301,-3.4188,-3.4851,-3.4282,-3.4207,-3.4851,-3.4908,-3.4908,-3.4908,-3.4908,-3.4963,-3.5096,-3.5251,-3.5395,-3.5509,-3.5528,-3.5596,-3.5704,-3.559,-3.5606,-3.5694,-3.5697,-3.5728,-3.5769,-3.5736,-3.5791,-3.5901,-3.5898,-3.5931,-3.5992,-3.5992,-3.5992,-3.5992,-3.5992,-3.5853,-3.5545,-3.4733,-3.3935,-3.3128,-3.2196,-3.1757,-3.1444,-3.0733,-3.0369,-3.0188,-3.0188,-3.0075,-2.9888,-2.9662,-2.9474,-2.9301,-2.9044,-2.9005,-2.9005,-2.9005,-2.8815,-2.8576,-2.8237,-2.7954,-2.7686,-2.7405,-2.7329,-2.7186,-2.6842,-2.6808,-2.6674,-2.6333,-2.6245,-2.5961,-2.5359,-2.4811,-2.4374,-2.4114,-2.3406,-2.3242,-2.3792,-2.3919,-2.4118,-2.4422,-2.4542,-2.4487,-2.4302,-2.4385,-2.4493,-2.472,-2.5032,-2.566,-2.1155,-2.0694,-2.0344,-2.0269,-2.0237,-2.0188,-2.0153,-2.0144,-2.0117,-2.0022,-2.0058,-2.0073,-1.9971,-2.2003,-2.384,-2.4264,-2.6785,-2.9128,-3.0351,-3.1242,-3.2103,-3.2918,-3.3051,-3.3221,-3.3581,-3.3259,-3.3183,-3.3581,-3.324,-3.3562,-3.4832,-3.4908,-3.4908,-3.4908,-3.4908,-3.4926,-3.4991,-3.513,-3.5227,-3.5289,-3.5355,-3.5476,-3.5596,-3.5528,-3.5577,-3.5702,-3.5701,-3.5716,-3.5742,-3.5718,-3.5761,-3.5857,-3.5856,-3.5917,-3.6003,-3.6,-3.5999,-3.5999,-3.5994,-3.5973,-3.5868,-3.5391,-3.485,-3.4229,-3.3324,-3.269,-3.2103,-3.1251,-3.0657,-3.0248,-3.0247,-3.014,-3.0007,-2.9794,-2.9532,-2.923,-2.9044,-2.9005,-2.9005,-2.9005,-2.8779,-2.8495,-2.8156,-2.7869,-2.7615,-2.7345,-2.7299,-2.7234,-2.7039,-2.6657,-2.6315,-2.6122,-2.5908,-2.5633,-2.5288,-2.4942,-2.4691,-2.4479,-2.3812,-2.3559,-2.3888,-2.3904,-2.4004,-2.4194,-2.4458,-2.4544,-2.44,-2.4338,-2.4405,-2.4619,-2.4803,-2.5386,-2.1507,-2.0929,-2.0383,-2.0334,-2.0306,-2.0269,-2.0218,-2.0205,-2.0176,-2.0049,-2.0069,-2.0069,-1.9939,-2.17,-2.3272,-2.3632,-2.5534,-2.7581,-2.9385,-3.0389,-3.1242,-3.2037,-3.2747,-3.2956,-3.2454,-3.2246,-3.2208,-3.2379,-3.2397,-3.307,-3.4567,-3.4643,-3.4718,-3.4889,-3.4908,-3.4908,-3.4908,-3.5035,-3.5105,-3.5105,-3.5203,-3.5333,-3.5509,-3.5463,-3.554,-3.5704,-3.5704,-3.5704,-3.5704,-3.5704,-3.5747,-3.5792,-3.5792,-3.5883,-3.5991,-3.6007,-3.6004,-3.6001,-3.5995,-3.5875,-3.5716,-3.5665,-3.5624,-3.5426,-3.436,-3.352,-3.2699,-3.1698,-3.0886,-3.0298,-3.0292,-3.0254,-3.018,-2.9942,-2.9589,-2.928,-2.9093,-2.9021,-2.9005,-2.9005,-2.8779,-2.8495,-2.8156,-2.7869,-2.7615,-2.7345,-2.7299,-2.7234,-2.7072,-2.6487,-2.605,-2.5888,-2.5594,-2.5387,-2.5387,-2.515,-2.4922,-2.478,-2.4365,-2.4065,-2.3904,-2.4027,-2.4083,-2.4021,-2.4405,-2.4564,-2.4498,-2.438,-2.4487,-2.4764,-2.4863,-2.5461,-2.0802,-2.0508,-2.0398,-2.0391,-2.0353,-2.0277,-2.0212,-2.0204,-2.0179,-2.0102,-2.0107,-2.0083,-2.0006,-2.0785,-2.1926,-2.3442,-2.4567,-2.6065,-2.8476,-2.9556,-3.0408,-3.1204,-3.1374,-3.1678,-3.2341,-3.1734,-3.1602,-3.2341,-3.2397,-3.2804,-3.3752,-3.3809,-3.415,-3.487,-3.4908,-3.4908,-3.4908,-3.5035,-3.5105,-3.5105,-3.5113,-3.5251,-3.5502,-3.5381,-3.5469,-3.5704,-3.5704,-3.5704,-3.5704,-3.5704,-3.5747,-3.5792,-3.5792,-3.5883,-3.5991,-3.5991,-3.6004,-3.5994,-3.5992,-3.5485,-3.4822,-3.482,-3.5204,-3.5381,-3.3708,-3.3076,-3.2564,-3.0962,-3.0405,-3.0304,-3.0304,-3.0292,-3.0221,-2.995,-2.9644,-2.9363,-2.9301,-2.9127,-2.9005,-2.9005,-2.8779,-2.8495,-2.8156,-2.7869,-2.7615,-2.7345,-2.7299,-2.704,-2.6298,-2.6157,-2.5852,-2.5166,-2.5084,-2.5045,-2.5045,-2.5025,-2.4717,-2.403,-2.4574,-2.4606,-2.392,-2.4422,-2.4708,-2.4708,-2.4634,-2.4564,-2.4498,-2.4498,-2.4441,-2.4364,-2.4739,-2.5266,-2.0597,-2.0486,-2.0469,-2.0453,-2.0415,-2.0344,-2.0337,-2.0285,-2.0223,-2.012,-2.0133,-2.012,-1.9976,-2.0663,-2.165,-2.2785,-2.3676,-2.4902,-2.691,-2.8362,-2.9347,-2.9669,-3.0579,-3.1109,-3.092,-3.0617,-3.0541,-3.0863,-3.0901,-3.128,-3.216,-3.2653,-3.307,-3.3392,-3.3411,-3.3411,-3.3411,-3.3958,-3.3994,-3.3491,-3.4498,-3.4874,-3.4658,-3.5108,-3.5456,-3.5704,-3.5704,-3.5704,-3.5704,-3.5704,-3.5739,-3.5799,-3.5799,-3.5875,-3.5995,-3.5994,-3.5992,-3.591,-3.5397,-3.4985,-3.4613,-3.4082,-3.4043,-3.3965,-3.2753,-3.2305,-3.1984,-3.0754,-3.0379,-3.0348,-3.031,-3.0202,-3.0063,-2.9832,-2.9626,-2.9412,-2.9225,-2.9123,-2.9051,-2.9005,-2.8779,-2.8495,-2.8156,-2.7869,-2.7615,-2.7345,-2.7299,-2.7169,-2.6858,-2.6401,-2.5997,-2.5687,-2.5246,-2.5005,-2.5005,-2.5005,-2.4859,-2.459,-2.4843,-2.4859,-2.4574,-2.4784,-2.4882,-2.4802,-2.4762,-2.4661,-2.4498,-2.4498,-2.4421,-2.4302,-2.4451,-2.4891,-2.0535,-2.0526,-2.0494,-2.05,-2.0452,-2.0394,-2.0408,-2.0357,-2.0265,-2.0182,-2.0182,-2.0137,-1.9952,-2.0679,-2.1559,-2.2337,-2.3171,-2.4302,-2.5951,-2.7441,-2.8419,-2.8665,-2.9953,-3.0579,-2.9953,-2.9897,-2.9897,-2.9897,-2.9897,-3.0162,-3.0787,-3.1355,-3.1886,-3.2379,-3.2397,-3.2397,-3.2397,-3.3013,-3.3013,-3.2397,-3.36,-3.3997,-3.3724,-3.4292,-3.484,-3.5322,-3.5322,-3.5458,-3.5704,-3.5704,-3.5735,-3.5791,-3.5791,-3.5887,-3.5996,-3.5996,-3.5995,-3.5877,-3.4995,-3.4522,-3.4167,-3.3304,-3.2779,-3.2373,-3.1718,-3.1624,-3.1576,-3.0658,-3.0404,-3.0398,-3.0342,-3.0182,-3.0,-2.9859,-2.9662,-2.9444,-2.9257,-2.9167,-2.913,-2.9074,-2.8827,-2.8507,-2.8183,-2.7883,-2.7615,-2.7345,-2.7202,-2.7088,-2.6957,-2.6367,-2.5872,-2.5779,-2.5304,-2.5005,-2.5005,-2.5005,-2.5005,-2.5005,-2.5005,-2.5005,-2.5005,-2.4946,-2.4922,-2.4862,-2.4822,-2.4722,-2.458,-2.4559,-2.457,-2.4652,-2.461,-2.522,-2.0601,-2.0553,-2.0498,-2.0498,-2.0447,-2.041,-2.0393,-2.0356,-2.0296,-2.0292,-2.026,-2.0167,-2.0026,-2.0711,-2.1548,-2.2288,-2.3126,-2.4302,-2.5951,-2.6956,-2.7809,-2.8608,-2.9423,-2.9916,-2.9897,-2.9897,-2.9897,-2.9897,-2.9897,-2.9897,-2.9916,-2.9916,-3.0692,-3.2341,-3.2397,-3.2397,-3.2397,-3.2397,-3.2397,-3.2397,-3.2416,-3.2561,-3.2816,-3.2816,-3.3404,-3.4413,-3.4413,-3.4897,-3.5704,-3.5704,-3.5735,-3.5791,-3.5791,-3.5887,-3.5996,-3.5996,-3.5996,-3.5877,-3.4999,-3.4136,-3.3269,-3.2409,-3.1527,-3.0809,-3.0655,-3.1129,-3.1525,-3.0654,-3.0404,-3.0404,-3.0404,-3.0248,-3.0095,-3.009,-2.9792,-2.9504,-2.9502,-2.9349,-2.92,-2.9189,-2.8922,-2.8589,-2.8268,-2.7911,-2.7615,-2.7345,-2.6957,-2.6556,-2.6158,-2.5762,-2.5387,-2.5045,-2.5005,-2.5005,-2.5005,-2.5005,-2.5005,-2.5005,-2.5005,-2.5005,-2.5005,-2.4882,-2.4862,-2.5001,-2.4862,-2.4802,-2.4802,-2.4666,-2.4906,-2.5484,-2.5361,-2.6533,-2.0599,-2.0576,-2.057,-2.0573,-2.051,-2.0471,-2.0469,-2.0373,-2.0302,-2.0295,-2.0716,-2.1073,-2.1029,-2.165,-2.2438,-2.3233,-2.3556,-2.4093,-2.5212,-2.6596,-2.7589,-2.7847,-2.909,-2.9897,-2.9897,-2.9897,-2.9897,-2.9897,-2.9897,-2.9897,-2.9897,-2.9897,-3.0143,-3.0673,-3.0692,-3.0692,-3.0692,-3.128,-3.128,-3.0711,-3.1848,-3.2219,-3.1922,-3.2535,-3.3051,-3.3513,-3.3513,-3.4002,-3.4819,-3.4819,-3.5191,-3.5791,-3.5791,-3.5516,-3.5176,-3.5781,-3.5625,-3.498,-3.41,-3.3631,-3.3179,-3.1749,-3.1032,-3.0712,-3.0677,-3.0794,-3.0872,-3.0508,-3.0404,-3.0404,-3.0404,-3.0181,-2.9954,-2.9958,-2.9229,-2.8695,-2.9248,-2.8841,-2.8537,-2.9089,-2.8922,-2.8589,-2.8268,-2.7954,-2.7674,-2.7345,-2.7217,-2.7023,-2.6573,-2.6157,-2.5762,-2.5387,-2.5146,-2.5005,-2.5005,-2.5005,-2.5005,-2.5005,-2.5005,-2.5005,-2.5005,-2.4946,-2.4906,-2.4862,-2.4822,-2.4722,-2.46,-2.4605,-2.4906,-2.5515,-2.6348,-2.7147,-2.0596,-2.0596,-2.0594,-2.0596,-2.0543,-2.0498,-2.0498,-2.0402,-2.0401,-2.0711,-2.1166,-2.1594,-2.1852,-2.2534,-2.3208,-2.3675,-2.3961,-2.4432,-2.5319,-2.6349,-2.724,-2.7885,-2.9101,-2.9897,-2.9897,-2.9897,-2.9897,-2.9897,-2.9897,-2.9897,-2.9897,-2.9897,-2.9897,-2.9897,-2.9897,-2.9897,-2.9897,-3.0446,-3.0446,-2.9916,-3.1008,-3.1352,-3.1059,-3.1636,-3.2158,-3.2604,-3.2604,-3.3107,0.0,-3.4279,-3.4797,-3.5388,-3.5717,-3.5566,-3.5215,-3.543,-3.5371,-3.5019,-3.3828,-3.3398,-3.3162,-3.1791,-3.1068,-3.0694,-3.0667,-3.0614,-3.0539,-3.0422,-3.0404,-3.0404,-3.0404,-3.0188,-2.9954,-2.991,-2.9032,-2.8426,-2.9161,-2.8648,-2.8285,-2.9116,-2.8991,-2.8645,-2.8329,-2.8037,-2.773,-2.7421,-2.7264,-2.7071,-2.6775,-2.6245,-2.5835,-2.5744,-2.5304,-2.5064,-2.5169,-2.5068,-2.5005,-2.5005,-2.5005,-2.5005,-2.5005,-2.5005,-2.4946,-2.4882,-2.4882,-2.4782,-2.462,-2.5093,-2.5495,-2.5867,-2.7157,-2.7883,0.0,-2.0691,-2.0711,-2.0769,-2.0676,-2.0596,-2.0596,-2.0493,0.0,-2.1423,-2.1652,-2.1882,-2.257,-2.3359,-2.3872,-2.3809,-2.4355,-2.5132,-2.6084,-2.6325,-2.6975,-2.8574,-2.9434,-2.9888,-2.988,-2.9888,-2.9897,-2.9897,-2.9897,-2.9897,-2.9897,-2.9897,-2.9897,-2.9897,-2.984,-2.9821,-2.9821,-2.9821,-2.9821,-2.9837,-2.9954,-3.0115,-3.0305,-3.0377,-3.0884,-3.1715,-3.1715,-3.2237,-3.3175,-3.4057,-3.451,-3.4752,-3.5513,-3.5851,-3.5801,-3.5,-3.5215,-3.5664,-3.3984,-3.3398,-3.3241,-3.2321,-3.1424,-3.0706,-3.0626,-3.0564,-3.0496,-3.0419,-3.0404,-3.0404,-3.0404,-3.0241,-3.0059,-2.995,-2.9118,-2.8577,-2.9253,-2.8719,-2.8356,-2.9229,-2.9086,-2.87,-2.8458,-2.8129,-2.7815,-2.7539,-2.7117,-2.6841,-2.6758,-2.6052,-2.567,-2.5997,-2.5419,-2.5127,-2.5427,-2.5169,-2.5005,-2.5005,-2.5005,-2.5005,-2.5005,-2.4966,-2.4966,-2.5005,-2.4966,-2.4886,-2.4802,-2.5926,-2.6439,-2.6426,-2.778,-2.8629,-2.1588,0.0,-2.1744,-2.2369,-2.2002,-2.1492,0.0,-2.1385,-2.1351,-2.1553,-2.2619,-2.353,-2.3712,-2.4274,-2.4727,-2.4776,-2.4795,-2.5168,-2.6206,-2.7457,-2.8544,-2.9303,-2.9681,-2.9839,-2.9689,-2.9813,-2.9897,-2.9897,-2.9897,-2.9897,-2.9897,-2.9897,-2.9897,-2.9897,-2.9309,-2.8987,-2.8987,-2.8987,-2.9034,-2.9131,-2.916,-2.9602,-3.0383,-3.0386,-3.0581,-3.0888,-3.0888,-3.1734,-3.3117,-3.3397,-3.4299,-3.5488,-3.5061,-3.4953,-3.498,-3.4785,-3.4824,-3.4844,-3.3769,-3.3398,-3.3144,-3.1678,-3.1028,-3.0834,-3.0717,-3.0597,-3.0496,-3.0419,-3.0404,-3.0404,-3.0404,-3.0174,-2.9954,-3.0037,-2.9099,-2.8427,-2.9345,-2.8781,-2.8356,-2.9229,-2.9086,-2.87,-2.8458,-2.8156,-2.7872,-2.7539,-2.7419,-2.7084,-2.642,-2.6123,-2.5779,-2.5304,-2.5088,-2.5025,-2.5107,-2.5045,-2.5005,-2.5005,-2.5005,-2.5005,-2.5005,-2.4746,-2.4742,-2.4985,-2.4666,-2.4533,-2.4648,-2.5636,-2.6235,-2.6526,-2.7787,-2.8468,-2.2203,-2.2724,-2.3146,-2.3542,-2.3023,-2.2385,-2.2319,-2.1935,-2.1598,-2.1607,-2.2932,-2.4072,-2.3981,-2.4891,-2.5501,-2.5082,-2.5251,-2.5731,-2.6593,-2.8165,-2.9311,-2.957,-2.9698,-2.977,-2.9734,-2.9839,-2.9897,-2.9897,-2.9897,-2.9897,-2.9897,-2.9897,-2.9726,-2.9366,-2.893,-2.8703,-2.8703,-2.8703,-2.8765,-2.8907,-2.9344,-2.9832,-3.0398,-3.0455,-3.054,-3.0598,-3.0598,-3.112,-3.1981,-3.2453,-3.3218,-3.407,-3.4044,-3.4314,-3.4609,-3.3848,-3.4043,-3.4512,-3.3281,-3.2832,-3.2597,-3.1307,-3.0895,-3.0868,-3.0737,-3.0659,-3.0568,-3.0477,-3.0449,-3.0439,-3.0416,-3.026,-3.0114,-3.0109,-2.9215,-2.8604,-2.9411,-2.882,-2.8356,-2.9229,-2.9127,-2.8796,-2.8491,-2.8224,-2.794,-2.7644,-2.7384,-2.7051,-2.6573,-2.6106,-2.5726,-2.5535,-2.5204,-2.5048,-2.5227,-2.5088,-2.5005,-2.5005,-2.5005,-2.4926,-2.4782,-2.4726,-2.4726,-2.4766,-2.4761,-2.4673,-2.4477,-2.5703,-2.6381,-2.6518,-2.7508,-2.8146,-2.2729,-2.3856,-2.4513,-2.4332,-2.3766,-2.3158,-2.2788,-2.2224,-2.1773,-2.1773,-2.3101,-2.4216,-2.4053,-2.5194,-2.5882,-2.5049,-2.5744,-2.6623,-2.7265,-2.8694,-2.9662,-2.9608,-2.9626,-2.9698,-2.9847,-2.988,-2.9859,-2.9726,-2.9726,-2.9669,-2.9537,-2.9537,-2.9215,-2.8532,-2.8396,-2.8321,-2.8324,-2.8339,-2.8472,-2.8744,-2.9558,-3.0117,-3.0439,-3.055,-3.0598,-3.0598,-3.0598,-3.0684,-3.0866,-3.1665,-3.2082,-3.2292,-3.3082,-3.3848,-3.4336,-3.291,-3.3281,-3.4277,-3.2734,-3.209,-3.1796,-3.1112,-3.0897,-3.0873,-3.0768,-3.0735,-3.0694,-3.0564,-3.0515,-3.0477,-3.0419,-3.0355,-3.0286,-3.0129,-2.9448,-2.8946,-2.9485,-2.8913,-2.8494,-2.9206,-2.9156,-2.888,-2.8504,-2.8246,-2.8006,-2.7728,-2.7272,-2.6921,-2.6822,-2.6089,-2.5652,-2.5906,-2.5381,-2.5127,-2.5406,-2.5111,-2.4906,-2.4906,-2.4906,-2.4746,-2.4359,-2.4706,-2.4746,-2.4338,-2.4881,-2.49,-2.4349,-2.5889,-2.6574,-2.6456,-2.7124,-2.7731,-2.3494,-2.4629,-2.5149,-2.4409,-2.4075,-2.3568,-2.2133,-2.2211,-2.2622,-2.2622,-2.387,-2.4968,-2.5056,-2.5013,-2.4967,-2.498,-2.6286,-2.7561,-2.835,-2.9364,-2.9929,-2.9635,-2.9742,-2.9805,-2.9662,-2.9805,-2.9631,-2.8949,-2.8874,-2.8589,-2.7904,-2.7866,-2.7809,-2.7695,-2.7015,-2.6635,-2.6577,-2.6635,-2.7103,-2.7967,-2.8173,-2.908,-3.0559,-3.0593,-3.0598,-3.0598,-3.0598,-3.1011,-3.1724,-3.1913,-3.2467,-3.3196,-3.3338,-3.3476,-3.3574,-3.3301,-3.3379,-3.3476,-3.2539,-3.1719,-3.1055,-3.0937,-3.0898,-3.0896,-3.0875,-3.087,-3.0833,-3.0642,-3.054,-3.0477,-3.0419,-3.0181,-3.0004,-3.0087,-2.97,-2.9352,-2.9561,-2.9399,-2.9177,-2.9075,-2.9026,-2.8815,-2.8264,-2.8143,-2.8006,-2.7728,-2.74,-2.6988,-2.6539,-2.6052,-2.561,-2.5224,-2.5064,-2.5025,-2.5068,-2.4766,-2.458,-2.458,-2.458,-2.4261,-2.3616,-2.4219,-2.4261,-2.358,-2.4215,-2.4585,-2.4634,-2.5746,-2.6236,-2.6172,-2.6851,-2.7343,-2.2503,-2.3296,-2.3814,-2.3352,-2.3976,-2.4475,-2.3626,-2.3331,-2.3125,-2.2766,-2.3915,-2.4866,-2.4457,-2.5365,-2.6333,-2.6909,-2.7656,-2.8248,-2.8498,-2.9276,-2.9777,-2.9626,-2.9304,-2.9093,-2.911,-2.8796,-2.8446,-2.8085,-2.8048,-2.7907,-2.7566,-2.7547,-2.7366,-2.6969,-2.6537,-2.6072,-2.5615,-2.5671,-2.6418,-2.7798,-2.8305,-2.9269,-3.0598,-3.0598,-3.0598,-3.0598,-3.0598,-3.0826,-3.1199,-3.1273,-3.1572,-3.1992,-3.203,-3.2344,-3.2754,-3.2754,-3.2441,-3.1992,-3.1621,-3.123,-3.0898,-3.0898,-3.0898,-3.0898,-3.0897,-3.085,-3.0765,-3.0634,-3.0586,-3.0513,-3.0297,-3.0128,-3.0007,-2.9992,-2.9732,-2.9513,-2.9589,-2.9492,-2.9315,-2.9048,-2.885,-2.8597,-2.8166,-2.7978,-2.784,-2.773,-2.735,-2.6921,-2.6454,-2.6015,-2.5554,-2.5064,-2.4842,-2.4742,-2.4742,-2.4421,-2.4234,-2.4234,-2.403,-2.3846,-2.3739,-2.4013,-2.4104,-2.3933,-2.4963,-2.5353,-2.509,-2.6079,-2.654,-2.6433,-2.6599,-2.6881,-2.1658,-2.1981,-2.2283,-2.2584,-2.3597,-2.4498,-2.4384,-2.4113,-2.3676,-2.297,-2.4208,-2.5111,-2.4098,-2.5473,-2.7104,-2.8121,-2.8318,-2.8445,-2.8721,-2.9276,-2.9672,-2.9672,-2.8948,-2.8529,-2.8687,-2.7979,-2.7418,-2.7209,-2.7209,-2.7132,-2.7019,-2.7007,-2.6759,-2.6188,-2.6101,-2.5741,-2.5107,-2.5206,-2.6022,-2.7491,-2.82,-2.9163,-3.0308,-3.0308,-3.0404,-3.0598,-3.0598,-3.0606,-3.0623,-3.0672,-3.0758,-3.085,-3.1093,-3.1601,-3.2187,-3.1973,-3.1465,-3.0898,-3.0898,-3.0898,-3.0898,-3.0898,-3.0898,-3.0898,-3.0876,-3.0805,-3.0712,-3.0619,-3.0559,-3.0475,-3.0222,-3.0109,-3.003,-2.9926,-2.9725,-2.9561,-2.9561,-2.9471,-2.9304,-2.895,-2.867,-2.8384,-2.8061,-2.7844,-2.7701,-2.7701,-2.7303,-2.6872,-2.6522,-2.6049,-2.557,-2.5123,-2.4766,-2.4482,-2.4276,-2.4009,-2.3818,-2.3747,-2.353,-2.3508,-2.3732,-2.3932,-2.4086,-2.4271,-2.5583,-2.6012,-2.5507,-2.6416,-2.6787,-2.6599,-2.6338,-2.647,-2.2081,-2.184,-2.1481,-2.303,-2.2965,-2.2514,-2.2507,-2.3646,-2.4478,-2.3682,-2.5344,-2.6494,-2.5076,-2.4839,-2.5386,-2.6876,-2.7235,-2.7899,-2.9553,-2.9834,-2.9872,-2.9872,-2.9172,-2.8687,-2.8703,-2.7979,-2.7172,-2.6349,-2.6292,-2.5993,-2.5329,-2.5278,-2.5259,-2.5189,-2.532,-2.5282,-2.5107,-2.5356,-2.5855,-2.6603,-2.6771,-2.7765,-2.9384,-2.9384,-2.9824,-3.0598,-3.0598,-3.0642,-3.0684,-3.0709,-3.0773,-3.0976,-3.1797,-3.2148,-3.2109,-3.1289,-3.0957,-3.0898,-3.0898,-3.0898,-3.0898,-3.0898,-3.0898,-3.0898,-3.0828,-3.0798,-3.0778,-3.0649,-3.0476,-3.0326,-3.0365,-3.0147,-2.991,-2.9902,-2.9645,-2.9409,-2.9409,-2.9417,-2.9232,-2.8658,-2.8516,-2.8337,-2.7829,-2.7698,-2.7701,-2.7701,-2.7307,-2.6907,-2.6708,-2.6207,-2.5733,-2.5333,-2.497,-2.4436,-2.3558,-2.345,-2.3312,-2.3,-2.3246,-2.3268,-2.2978,-2.3864,-2.4225,-2.3938,-2.5199,-2.5808,-2.5779,-2.6462,-2.6637,-2.6309,-2.605,-2.6098,-2.0893,-2.0866,-2.1096,-2.2279,-2.2158,-2.1955,-2.2735,-2.3763,-2.446,-2.4165,-2.4847,-2.5442,-2.5249,-2.5418,-2.5877,-2.6794,-2.7131,-2.7714,-2.8971,-2.873,-2.8597,-2.9101,-2.7972,-2.7157,-2.7157,-2.6425,-2.5827,-2.5545,-2.5526,-2.543,-2.5238,-2.5224,-2.5264,-2.5351,-2.5327,-2.5289,-2.5224,-2.5312,-2.5504,-2.5774,-2.6957,-2.8141,-2.9326,-2.9863,-3.0288,-3.0602,-3.0602,-3.063,-3.0691,-3.0737,-3.0826,-3.0937,-3.1269,-3.1387,-3.1348,-3.1016,-3.0898,-3.0898,-3.0855,-3.0832,-3.0831,-3.0798,-3.0773,-3.0771,-3.0757,-3.0704,-3.0646,-3.0501,-3.0348,-3.0203,-3.0115,-2.9907,-2.9689,-2.9617,-2.9481,-2.9396,-2.9396,-2.9396,-2.9232,-2.8615,-2.8504,-2.8337,-2.78,-2.7701,-2.7701,-2.7701,-2.743,-2.7119,-2.6741,-2.6383,-2.5848,-2.5068,-2.4338,-2.3687,-2.3127,-2.3098,-2.2918,-2.2486,-2.2873,-2.3206,-2.3514,-2.4256,-2.4781,-2.5091,-2.5959,-2.6421,-2.6421,-2.6675,-2.6724,-2.6599,-2.6129,-2.5957,-2.0516,-2.0734,-2.125,-2.1898,-2.1983,-2.2136,-2.3019,-2.3959,-2.4598,-2.4436,-2.4409,-2.4524,-2.4948,-2.5289,-2.5714,-2.6412,-2.6729,-2.7231,-2.8184,-2.8066,-2.8085,-2.8627,-2.746,-2.6614,-2.6614,-2.5656,-2.5057,-2.5101,-2.5118,-2.5185,-2.5293,-2.5297,-2.5339,-2.5421,-2.538,-2.5339,-2.5297,-2.5339,-2.5367,-2.5387,-2.6882,-2.789,-2.8509,-2.9379,-2.9921,-3.0196,-3.0482,-3.0636,-3.0713,-3.077,-3.0832,-3.0898,-3.0898,-3.0898,-3.0898,-3.0898,-3.0898,-3.0857,-3.0825,-3.0795,-3.0765,-3.072,-3.0709,-3.0706,-3.0669,-3.0646,-3.0576,-3.0486,-3.0314,-3.0109,-2.9966,-2.9775,-2.957,-2.9472,-2.9429,-2.9396,-2.9396,-2.9326,-2.9127,-2.8603,-2.8422,-2.8232,-2.7771,-2.7701,-2.7701,-2.7701,-2.7463,-2.7151,-2.6842,-2.6487,-2.5866,-2.4839,-2.3943,-2.3268,-2.2933,-2.2888,-2.2706,-2.2231,-2.2486,-2.287,-2.3348,-2.4143,-2.4865,-2.5487,-2.6344,-2.6806,-2.6806,-2.6806,-2.6806,-2.6779,-2.6254,-2.5972,-2.1358,-2.1683,-2.2021,-2.2161,-2.2601,-2.3006,-2.3014,-2.4143,-2.5049,-2.4506,-2.4284,-2.4201,-2.4201,-2.4201,-2.4534,-2.5511,-2.5862,-2.6346,-2.7358,-2.8161,-2.8665,-2.8684,-2.7979,-2.7475,-2.7475,-2.604,-2.5107,-2.5107,-2.5162,-2.5234,-2.5297,-2.5297,-2.5297,-2.5297,-2.544,-2.544,-2.5302,-2.5421,-2.5507,-2.5507,-2.6319,-2.6702,-2.6741,-2.76,-2.8494,-2.9369,-3.0234,-3.0636,-3.0713,-3.075,-3.0832,-3.0898,-3.0898,-3.0898,-3.0898,-3.0898,-3.0856,-3.08,-3.08,-3.0742,-3.0709,-3.0709,-3.0709,-3.0699,-3.0617,-3.0593,-3.0595,-3.0606,-3.0309,-2.9991,-3.0,-2.9801,-2.9598,-2.9598,-2.9492,-2.9396,-2.9396,-2.9178,-2.8904,-2.8554,-2.8285,-2.8006,-2.7742,-2.7701,-2.7701,-2.7701,-2.7307,-2.6989,-2.6989,-2.652,-2.5789,-2.4704,-2.3879,-2.3268,-2.2933,-2.2888,-2.2684,-2.2231,-2.2184,-2.2184,-2.2222,-2.3414,-2.4366,-2.4892,-2.6141,-2.6806,-2.6779,-2.6779,-2.6779,-2.6779,-2.646,-2.6138,-2.0368,-2.1081,-2.1993,-2.1932,-2.2857,-2.3786,-2.3823,-2.4066,-2.4251,-2.4134,-2.4154,-2.4201,-2.4201,-2.4312,-2.4476,-2.4688,-2.4924,-2.5423,-2.6378,-2.6275,-2.6304,-2.6873,-2.6235,-2.5743,-2.5743,-2.5355,-2.5118,-2.5168,-2.5234,-2.5312,-2.5421,-2.5444,-2.5444,-2.5444,-2.548,-2.548,-2.5444,-2.548,-2.5507,-2.5507,-2.5739,-2.6478,-2.7638,-2.8513,-2.938,-3.0234,-3.0541,-3.0713,-3.0732,-3.0189,-3.0331,-3.084,-3.0234,-3.0351,-3.0898,-3.0854,-3.0826,-3.0795,-3.068,-3.0642,-3.0639,-3.0622,-3.0622,-3.0637,-3.0613,-3.0501,-3.0358,-3.0272,-3.0054,-2.9842,-2.9689,-2.9416,-2.9222,-2.9402,-2.9286,-2.9123,-2.9123,-2.8874,-2.8554,-2.8272,-2.8152,-2.8006,-2.7742,-2.7701,-2.7701,-2.7701,-2.7307,-2.6741,-2.6034,-2.5484,-2.4906,-2.4313,-2.361,-2.3157,-2.306,-2.2661,-2.2194,-2.167,-2.1286,-2.1811,-2.3484,-2.3456,-2.3886,-2.4941,-2.5701,-2.5914,-2.5536,-2.5978,-2.6394,-2.6779,-2.6019,-2.5861,-2.1422,-2.2242,-2.312,-2.2986,-2.3599,-2.4192,-2.4066,-2.4056,-2.4077,-2.4154,-2.4182,-2.422,-2.4303,-2.4348,-2.4393,-2.4417,-2.4586,-2.49,-2.551,-2.5516,-2.5662,-2.6177,-2.5782,-2.5511,-2.559,-2.5328,-2.5168,-2.5239,-2.5336,-2.5412,-2.5507,-2.5507,-2.5507,-2.5507,-2.5507,-2.5507,-2.5507,-2.5507,-2.5507,-2.5507,-2.5507,-2.6382,-2.8063,-2.8586,-2.9291,-3.0157,-3.0553,-3.0578,-3.0286,-2.9804,-2.9902,-3.0332,-2.9805,-3.0117,-3.0859,-3.0816,-3.0765,-3.0718,-3.0622,-3.0602,-3.0595,-3.0597,-3.0598,-3.0593,-3.051,-3.0395,-3.0277,-3.0131,-2.9977,-2.9811,-2.9653,-2.9336,-2.9071,-2.9211,-2.9026,-2.8803,-2.8803,-2.8559,-2.8298,-2.8125,-2.8006,-2.7869,-2.7612,-2.7585,-2.7537,-2.7446,-2.6938,-2.6316,-2.5596,-2.4891,-2.4379,-2.4141,-2.3326,-2.2884,-2.3121,-2.2559,-2.2065,-2.1787,-2.1457,-2.2021,-2.3657,-2.3163,-2.3389,-2.4593,-2.5163,-2.5316,-2.4994,-2.5383,-2.5852,-2.642,-2.584,-2.5863,-2.3567,-2.4276,-2.4754,-2.4614,-2.4522,-2.4328,-2.3941,-2.4107,-2.4348,-2.4358,-2.4284,-2.4284,-2.4474,-2.4348,-2.4302,-2.4564,-2.4653,-2.4723,-2.4794,-2.5542,-2.6126,-2.6174,-2.614,-2.6186,-2.6359,-2.5677,-2.5239,-2.5293,-2.5417,-2.5507,-2.5507,-2.5507,-2.5507,-2.5507,-2.5507,-2.5507,-2.5507,-2.5507,-2.5492,-2.5499,-2.5499,-2.6361,-2.7983,-2.8074,-2.8625,-2.9579,-3.045,-3.0384,-2.9707,-2.9551,-2.957,-2.9707,-2.9531,-3.0019,-3.0801,-3.0781,-3.0706,-3.0606,-3.0594,-3.0591,-3.0598,-3.0598,-3.0593,-3.055,-3.0353,-3.0283,-3.024,-3.0129,-2.9988,-2.9864,-2.9803,-2.9418,-2.9049,-2.8973,-2.8713,-2.8448,-2.8448,-2.8246,-2.8061,-2.8061,-2.7869,-2.7642,-2.7465,-2.7434,-2.7341,-2.7038,-2.642,-2.5839,-2.5489,-2.4708,-2.4126,-2.4063,-2.3061,-2.263,-2.3162,-2.2594,-2.2256,-2.2308,-2.2252,-2.2499,-2.3089,-2.265,-2.2896,-2.3892,-2.457,-2.4869,-2.4841,-2.4965,-2.53,-2.5893,-2.5893,-2.6095,-2.2865,-2.3334,-2.3922,-2.3797,-2.4204,-2.4586,-2.4391,-2.4534,-2.4583,-2.4163,-2.4266,-2.4437,-2.4491,-2.4455,-2.449,-2.4653,-2.4645,-2.4684,-2.4854,-2.5105,-2.5272,-2.5342,-2.5384,-2.5436,-2.5475,-2.537,-2.5279,-2.5297,-2.5417,-2.5507,-2.5507,-2.5507,-2.5507,-2.5507,-2.5507,-2.5507,-2.5507,-2.5507,-2.5503,-2.5499,-2.5499,-2.6076,-2.7177,-2.7801,-2.8985,-3.0512,-3.0775,-3.0781,-3.0508,-2.9141,-2.9394,-3.0488,-2.9101,-2.9492,-3.0781,-3.0737,-3.0667,-3.0599,-3.0595,-3.0601,-3.0598,-3.0598,-3.0486,-3.0353,-3.0312,-3.0151,-2.9981,-2.9942,-2.9849,-2.9738,-2.9664,-2.9222,-2.8772,-2.8706,-2.8428,-2.8179,-2.8179,-2.7982,-2.7786,-2.7786,-2.7728,-2.7686,-2.7642,-2.7627,-2.7491,-2.7053,-2.6691,-2.6123,-2.5158,-2.4847,-2.4461,-2.3788,-2.3476,-2.3302,-2.3273,-2.2763,-2.2405,-2.2307,-2.1897,-2.1929,-2.2474,-2.2386,-2.2637,-2.3354,-2.3916,-2.4011,-2.358,-2.4552,-2.53,-2.5893,-2.5893,-2.6449,-2.3029,-2.3444,-2.3859,-2.4102,-2.4437,-2.4684,-2.4602,-2.4693,-2.4712,-2.4441,-2.4543,-2.4689,-2.4689,-2.4689,-2.4712,-2.4768,-2.4801,-2.4818,-2.4935,-2.5032,-2.5118,-2.5187,-2.5195,-2.5243,-2.5337,-2.5312,-2.533,-2.538,-2.5452,-2.5507,-2.5507,-2.5507,-2.5507,-2.5507,-2.5506,-2.5508,-2.5508,-2.5522,-2.5554,-2.5544,-2.5544,-2.6234,-2.7558,-2.8396,-2.9531,-3.0835,-3.0449,-3.0039,-2.957,-2.8672,-2.8848,-2.9609,-2.9078,-2.9641,-3.0749,-3.0675,-3.0639,-3.0609,-3.0595,-3.0598,-3.0569,-3.0486,-3.0389,-3.0277,-3.0144,-3.0,-2.9899,-2.9815,-2.9692,-2.955,-2.9511,-2.9101,-2.8664,-2.8534,-2.8197,-2.7911,-2.7911,-2.78,-2.7701,-2.7701,-2.7701,-2.7642,-2.7398,-2.7149,-2.6891,-2.6657,-2.6417,-2.6056,-2.5448,-2.5302,-2.5062,-2.4615,-2.4291,-2.4197,-2.4353,-2.3813,-2.3541,-2.3783,-2.3186,-2.2974,-2.327,-2.2885,-2.2831,-2.3158,-2.343,-2.343,-2.3141,-2.4105,-2.4879,-2.5481,-2.605,-2.6817,-2.3375,-2.3782,-2.4051,-2.4726,-2.4844,-2.4783,-2.4761,-2.4816,-2.4874,-2.4881,-2.4895,-2.4902,-2.4902,-2.4902,-2.4915,-2.4935,-2.4968,-2.4994,-2.5031,-2.5122,-2.5201,-2.5298,-2.5264,-2.5303,-2.548,-2.5404,-2.5376,-2.5484,-2.5507,-2.5507,-2.5507,-2.5507,-2.5507,-2.5507,-2.5495,-2.5492,-2.5501,-2.5569,-2.5598,-2.5611,-2.5618,-2.6535,-2.8232,-2.8952,-2.9877,-3.0859,-3.0137,-2.9414,-2.873,-2.8594,-2.8613,-2.8788,-2.9296,-2.9982,-3.0685,-3.0622,-3.0598,-3.0598,-3.0598,-3.0583,-3.051,-3.0348,-3.0271,-3.019,-2.9965,-2.9872,-2.9841,-2.9691,-2.9531,-2.9402,-2.9353,-2.903,-2.8682,-2.8614,-2.8223,-2.7886,-2.7903,-2.8026,-2.8114,-2.8041,-2.7985,-2.779,-2.738,-2.6925,-2.6555,-2.6372,-2.625,-2.6162,-2.6124,-2.596,-2.5788,-2.5621,-2.5165,-2.5045,-2.5465,-2.5005,-2.4846,-2.5218,-2.4781,-2.4408,-2.4147,-2.3603,-2.3245,-2.3108,-2.3108,-2.3108,-2.3108,-2.3767,-2.435,-2.4893,-2.6189,-2.7144,-2.3012,-2.3378,-2.4066,-2.472,-2.5025,-2.5095,-2.498,-2.5063,-2.5164,-2.5215,-2.5063,-2.4902,-2.4902,-2.4902,-2.4948,-2.5049,-2.4975,-2.4962,-2.5149,-2.5141,-2.5163,-2.5298,-2.534,-2.5412,-2.5488,-2.5484,-2.548,-2.5507,-2.5507,-2.5507,-2.5507,-2.5507,-2.5507,-2.5507,-2.5499,-2.5501,-2.5501,-2.551,-2.5561,-2.5683,-2.5699,-2.6601,-2.8281,-2.8418,-2.9355,-3.0898,-3.0781,-3.0664,-3.0488,-2.9746,-2.9841,-3.0394,-2.9757,-2.9957,-3.061,-3.0593,-3.0598,-3.0598,-3.0598,-3.0499,-3.0348,-3.0314,-3.0137,-2.9953,-2.9913,-2.9825,-2.9701,-2.9486,-2.9428,-2.9353,-2.9198,-2.8913,-2.8828,-2.9329,-2.9,-2.86,-2.8703,-2.9291,-2.9697,-2.9393,-2.9115,-2.8817,-2.8509,-2.8412,-2.8027,-2.7034,-2.7162,-2.7267,-2.6973,-2.6916,-2.6574,-2.5679,-2.5584,-2.5536,-2.5515,-2.5477,-2.5201,-2.465,-2.5009,-2.4738,-2.3569,-2.3927,-2.3796,-2.3108,-2.3108,-2.3108,-2.3108,-2.3767,-2.4147,-2.4247,-2.5991,-2.7159,-2.2615,-2.3283,-2.4047,-2.4858,-2.5112,-2.515,-2.5126,-2.516,-2.5217,-2.5245,-2.5181,-2.5122,-2.5121,-2.5121,-2.5138,-2.5192,-2.516,-2.5168,-2.5243,-2.5264,-2.5284,-2.5351,-2.5387,-2.5406,-2.5433,-2.5484,-2.5507,-2.5507,-2.5507,-2.5507,-2.5507,-2.5494,-2.5495,-2.5495,-2.5534,-2.5561,-2.5607,-2.5609,-2.5633,-2.57,-2.5703,-2.6367,-2.7598,-2.8086,-2.9258,-3.0879,-3.0371,-3.0176,-3.0137,-2.9766,-2.9782,-3.0076,-3.0152,-3.0341,-3.0597,-3.06,-3.0598,-3.0588,-3.0469,-3.0369,-3.0291,-3.0129,-3.0004,-2.9899,-2.9816,-2.9673,-2.9512,-2.9409,-2.9256,-2.9197,-2.9577,-2.9435,-2.9311,-2.9675,-2.9876,-2.9873,-2.9399,-2.9409,-2.9502,-2.9344,-2.8922,-2.8572,-2.8426,-2.8485,-2.8375,-2.7851,-2.7938,-2.7984,-2.7846,-2.7554,-2.7219,-2.6786,-2.6763,-2.6732,-2.6682,-2.6705,-2.6585,-2.6246,-2.5783,-2.5257,-2.4652,-2.4481,-2.4205,-2.3767,-2.3335,-2.3108,-2.3108,-2.3767,-2.4263,-2.465,-2.6493,-2.7698,-2.2069,-2.2805,-2.346,-2.4585,-2.4826,-2.4876,-2.514,-2.5201,-2.5198,-2.5206,-2.5239,-2.5276,-2.5264,-2.5298,-2.5308,-2.5308,-2.5308,-2.5308,-2.5308,-2.5346,-2.5389,-2.5398,-2.5406,-2.5408,-2.5401,-2.5452,-2.5472,-2.5499,-2.5503,-2.551,-2.5527,-2.554,-2.5526,-2.5526,-2.5563,-2.5639,-2.5707,-2.5692,-2.5699,-2.5703,-2.5703,-2.6152,-2.7031,-2.7891,-2.9121,-3.0547,-3.0117,-2.9922,-2.9922,-2.9922,-2.9878,-2.9869,-3.0468,-3.0667,-3.0595,-3.0606,-3.0598,-3.0559,-3.0364,-3.0291,-3.0209,-2.9973,-2.9883,-2.9815,-2.9664,-2.9521,-2.9419,-2.954,-2.9406,-2.9387,-3.0129,-3.0129,-3.0004,-3.0183,-3.0607,-3.0785,-3.0217,-2.9817,-2.9573,-2.9587,-2.9141,-2.8765,-2.8765,-2.8879,-2.8924,-2.8924,-2.8794,-2.8569,-2.8241,-2.7851,-2.76,-2.76,-2.76,-2.76,-2.76,-2.76,-2.7524,-2.7376,-2.6529,-2.5894,-2.5563,-2.5147,-2.4833,-2.4707,-2.3979,-2.3578,-2.355,-2.4218,-2.4678,-2.5008,-2.7079,-2.8196,-2.1254,-2.1498,-2.1928,-2.3565,-2.3973,-2.4178,-2.502,-2.519,-2.5195,-2.5203,-2.5195,-2.5204,-2.5212,-2.5253,-2.5308,-2.5308,-2.5308,-2.5308,-2.5308,-2.5308,-2.5322,-2.5394,-2.5398,-2.5397,-2.5397,-2.5401,-2.5426,-2.5492,-2.5498,-2.5524,-2.5591,-2.5595,-2.5598,-2.5598,-2.56,-2.5639,-2.5707,-2.5701,-2.5703,-2.5703,-2.5703,-2.6152,-2.7031,-2.7891,-2.8809,-2.9707,-3.0488,-3.082,-3.082,-3.082,-3.0751,-3.0635,-3.0672,-3.0656,-3.0607,-3.0598,-3.0598,-3.0564,-3.0378,-3.0216,-3.0095,-2.9953,-2.9806,-2.9673,-2.9491,-2.9412,-2.9489,-2.9945,-3.0052,-3.0191,-3.078,-3.0943,-3.0957,-3.1112,-3.0977,-3.0911,-3.1317,-3.1147,-3.0908,-3.0908,-3.0626,-3.0377,-3.0377,-3.0394,-3.0394,-3.0394,-2.9913,-2.9085,-2.7822,-2.7615,-2.76,-2.76,-2.76,-2.76,-2.76,-2.76,-2.735,-2.6787,-2.7086,-2.6753,-2.5453,-2.5783,-2.5939,-2.5807,-2.5207,-2.4862,-2.4823,-2.5419,-2.5437,-2.497,-2.7495,-2.8376,-2.1514,-2.1509,-2.168,-2.2839,-2.3523,-2.3971,-2.4293,-2.4839,-2.5288,-2.5327,-2.5332,-2.5336,-2.5372,-2.5337,-2.5302,-2.5302,-2.5298,-2.5308,-2.5308,-2.5345,-2.5365,-2.5397,-2.5476,-2.5538,-2.5531,-2.5525,-2.5549,-2.5564,-2.5564,-2.5576,-2.56,-2.5644,-2.5654,-2.5654,-2.5654,-2.5679,-2.5707,-2.57,-2.5703,-2.5703,-2.5703,-2.6152,-2.7031,-2.7891,-2.8789,-2.9648,-3.0527,-3.0586,-3.0117,-3.0664,-3.0496,-2.9927,-3.0475,-3.0656,-3.0598,-3.0598,-3.052,-3.0384,-3.0235,-3.0087,-2.9942,-2.9825,-2.9738,-2.9655,-2.9453,-2.9673,-2.9995,-3.0094,-3.0378,-3.0803,-3.1265,-3.1321,-3.1246,-3.1215,-3.0895,-3.0655,-3.082,-3.0771,-3.0684,-3.0684,-3.0576,-3.0506,-3.0506,-3.0506,-3.0072,-2.884,-2.9009,-2.8865,-2.7735,-2.76,-2.76,-2.76,-2.76,-2.76,-2.76,-2.7999,-2.7973,-2.7318,-2.7469,-2.7389,-2.6903,-2.6953,-2.7121,-2.7356,-2.7427,-2.6806,-2.5553,-2.5378,-2.5576,-2.6157,-2.7483,-2.8425,-2.1265,-2.1143,-2.1293,-2.2416,-2.2877,-2.3283,-2.4176,-2.4635,-2.4995,-2.5333,-2.5397,-2.5418,-2.5464,-2.5404,-2.5374,-2.5373,-2.5367,-2.538,-2.5365,-2.5418,-2.5432,-2.5432,-2.5777,-2.589,-2.564,-2.5848,-2.5907,-2.564,-2.5623,-2.563,-2.5629,-2.5685,-2.5693,-2.5693,-2.5693,-2.5693,-2.5693,-2.57,-2.5702,-2.5703,-2.5703,-2.5996,-2.6582,-2.7461,-2.8184,-2.8789,-2.9648,-3.0039,-3.0078,-3.0664,-3.0477,-2.9888,-3.0475,-3.0656,-3.0593,-3.052,-3.0406,-3.0277,-3.0082,-2.9973,-2.9883,-2.9747,-2.9701,-2.9701,-2.9698,-2.9976,-3.0365,-3.0715,-3.1093,-3.1494,-3.189,-3.1741,-3.1429,-3.1291,-3.0918,-3.0568,-3.0506,-3.0506,-3.0506,-3.0506,-3.0506,-3.0506,-3.0506,-3.0361,-2.9761,-2.8323,-2.8513,-2.8643,-2.8117,-2.7989,-2.8019,-2.8244,-2.8274,-2.8184,-2.7959,-2.8538,-2.8646,-2.7979,-2.8139,-2.8272,-2.826,-2.8121,-2.828,-2.8755,-2.8821,-2.8268,-2.7143,-2.6732,-2.684,-2.7428,-2.8326,-2.9157,0.0,0.0,0.0,-2.2239,-2.2008,-2.2076,-2.4606,-2.461,-2.4302,-2.5185,-2.536,-2.5376,-2.5399,-2.5453,-2.5517,-2.5518,-2.5502,-2.5505,-2.5498,-2.5504,-2.5504,-2.5504,-2.627,-2.6493,-2.5721,-2.6371,-2.6537,-2.5785,-2.5749,-2.5722,-2.57,-2.57,-2.57,-2.57,-2.57,-2.57,-2.57,-2.57,-2.5719,-2.5739,-2.5702,-2.5722,-2.58,-2.6621,-2.7012,-2.709,-2.793,-2.9258,-3.082,-3.082,-3.0731,-3.0631,-3.065,-3.0633,-3.0588,-3.0365,-3.03,-3.0259,-2.9996,-2.9888,-2.9883,-2.9747,-2.9701,-2.9767,-3.0172,-3.0319,-3.0587,-3.1856,-3.2216,-3.2325,-3.2695,-3.2196,-3.1564,-3.1433,-3.1024,-3.0651,-3.0526,-3.0506,-3.0506,-3.0506,-3.0506,-3.0506,-3.0506,-3.0119,-2.9653,-2.9183,-2.8693,-2.8511,-2.8873,-2.8779,-2.8903,-2.9559,-2.9606,-2.9352,-2.8682,-2.9235,-2.9352,-2.8667,-2.9128,-2.9432,-2.9444,-2.9237,-2.9378,-2.9923,-2.9285,-2.9175,-2.9628,-2.9581,-2.9243,-2.8661,-2.9994,-3.0598,-2.0482,0.0,0.0,0.0,0.0,0.0,-2.2343,0.0,-2.3419,-2.4346,-2.4538,-2.4743,-2.5473,-2.5622,-2.5649,-2.5645,-2.5554,-2.5506,-2.5509,-2.5538,-2.5571,-2.5571,-2.6389,-2.6859,-2.6627,-2.7387,-2.7549,-2.6703,-2.6646,-2.6377,-2.5739,-2.57,-2.57,-2.57,-2.57,-2.57,-2.57,-2.5698,-2.6029,-2.6637,-2.599,-2.6362,-2.7575,-2.7186,-2.7343,-2.7948,-2.8203,-2.8554,-2.8941,-2.8959,-2.89,-2.8885,-2.9516,-3.0102,-3.0588,-3.0365,-3.024,-3.0124,-2.9958,-2.9832,-2.9756,-2.9701,-2.9607,-2.9582,-3.0128,-3.0649,-3.1192,-3.1978,-3.2614,-3.297,-3.2549,-3.1769,-3.1078,-3.1038,-3.0777,-3.0547,-3.0506,-3.0506,-3.0506,-3.0506,-3.0506,-3.0506,-3.0506,-3.0387,-3.0109,-2.9564,-2.987,-3.0085,-2.9882,-2.9888,-2.997,-3.0153,-2.9845,-2.9532,-2.9352,-2.9879,-2.9983,-2.934,-2.9888,-3.0203,-3.0205,-3.0063,-3.0208,-3.0748,-3.0441,-3.0308,-3.0333,-2.94,-2.9077,-2.9337,-3.0192,-3.0598,-2.0505,-2.0463,-2.0507,-2.0781,0.0,0.0,-2.235,-2.2442,-2.2801,0.0,-2.4544,-2.4579,-2.5518,-2.5699,-2.5701,-2.5707,-2.563,-2.5579,-2.5573,-2.5626,-2.5646,-2.5646,-2.6762,-2.7399,-2.7031,-2.8085,-2.8457,-2.7604,-2.7215,-2.6611,-2.5754,-2.5696,-2.5696,-2.5696,-2.5696,-2.5696,-2.5696,-2.5693,-2.6142,-2.6984,-2.6124,-2.6417,-2.7728,-2.6853,-2.6736,-2.7224,-2.7226,-2.7185,-2.7158,-2.7135,-2.7491,-2.8154,-2.865,-2.9133,-2.9486,-2.9319,-2.9384,-2.9546,-2.9395,-2.9506,-2.9701,-2.9701,-2.956,-2.9576,-3.0512,-3.1023,-3.1498,-3.2436,-3.282,-3.2848,-3.2419,-3.1621,-3.0915,-3.0912,-3.0733,-3.0568,-3.051,-3.0506,-3.0506,-3.0506,-3.0506,-3.0506,-3.0506,-3.0506,-3.0321,-2.9788,-3.0215,-3.0521,-3.0284,-3.0582,-3.0821,-3.0845,-3.0594,-3.0283,-2.9998,-3.0552,-3.0657,-3.0013,-3.0567,-3.0911,-3.0909,-3.0836,-3.0902,-3.116,-3.1072,-3.0892,-3.0671,-2.9896,-2.9679,-3.0041,-3.0426,-3.0598,-2.0501,-2.0506,-2.0657,-2.1313,-2.0898,0.0,-2.3236,-2.2605,-2.2243,0.0,-2.4639,-2.4368,-2.5251,-2.5485,-2.5524,-2.5426,-2.5563,-2.5726,-2.5821,-2.5843,-2.5845,-2.5845,-2.7384,-2.8088,-2.7238,-2.8663,-2.9309,-2.8498,-2.7544,-2.6627,-2.5749,-2.5708,-2.5707,-2.5707,-2.5707,-2.5707,-2.5707,-2.5707,-2.6136,-2.6996,-2.6121,-2.6162,-2.6963,-2.6109,-2.5701,-2.5701,-2.5702,-2.5695,-2.5686,-2.5622,-2.6526,-2.7955,-2.7948,-2.7961,-2.7978,-2.7829,-2.8204,-2.8788,-2.8643,-2.9065,-2.9701,-2.9701,-2.955,-2.9619,-3.0962,-3.1256,-3.1417,-3.2795,-3.2706,-3.2177,-3.2196,-3.162,-3.0955,-3.0892,-3.079,-3.0651,-3.0526,-3.0506,-3.0506,-3.0506,-3.0506,-3.0506,-3.0506,-3.0506,-3.0348,-2.9926,-3.0226,-3.0497,-3.055,-3.117,-3.1612,-3.1679,-3.1582,-3.1256,-3.0672,-3.1152,-3.1241,-3.0657,-3.1167,-3.1511,-3.1511,-3.1511,-3.1437,-3.1304,-3.1264,-3.11,-3.0804,-3.0671,-3.0598,-3.0598,-3.0598,-3.0598,-2.0504,-2.05,-2.0528,-2.0677,-2.059,0.0,-2.0972,-2.0806,-2.0936,0.0,-2.2345,-2.2515,-2.3433,-2.4179,-2.4413,-2.3712,-2.4783,-2.5935,-2.6562,-2.6704,-2.6752,-2.6741,-2.8241,-2.8945,-2.8134,-2.9554,-3.0185,-2.9323,-2.7864,-2.6618,-2.5741,-2.5695,-2.5707,-2.5707,-2.5707,-2.5707,-2.5707,-2.5707,-2.6136,-2.6996,-2.6118,-2.6158,-2.6979,-2.6093,-2.5703,-2.5703,-2.5691,-2.5666,-2.5621,-2.56,-2.6173,-2.7045,-2.6989,-2.7384,-2.7969,-2.7727,-2.8135,-2.8774,-2.8514,-2.8987,-2.9701,-2.9701,-2.9444,-2.9333,-3.0256,-3.0332,-3.0364,-3.1586,-3.1647,-3.1392,-3.1668,-3.1334,-3.0892,-3.077,-3.063,-3.0531,-3.0506,-3.0506,-3.0506,-3.0506,-3.0506,-3.0506,-3.0506,-3.0506,-3.0472,-3.0365,-3.1424,-3.2235,-3.2223,-3.2597,-3.2829,-3.2864,-3.2048,-3.1451,-3.1316,-3.1421,-3.1451,-3.1316,-3.1436,-3.1511,-3.1511,-3.1511,-3.1437,-3.1304,-3.1058,-3.0866,-3.0804,-3.0671,-3.0598,-3.0598,-3.0598,-3.0598,-2.0624,-2.0503,-2.0497,-2.0506,-2.0505,0.0,0.0,-2.1048,-2.1305,-2.2213,-2.2391,-2.2535,-2.3007,-2.346,-2.3751,-2.3751,-2.4471,-2.5348,-2.6186,-2.6677,-2.6954,-2.6942,-2.8071,-2.8854,-2.8902,-2.9661,-2.9968,-2.9526,-2.832,-2.7226,-2.6348,-2.5915,-2.5694,-2.5704,-2.5703,-2.5705,-2.5707,-2.5707,-2.6136,-2.6996,-2.6117,-2.6156,-2.6978,-2.6093,-2.5703,-2.5703,-2.566,-2.5627,-2.5602,-2.5554,-2.579,-2.6155,-2.6107,-2.6333,-2.6689,-2.6952,-2.751,-2.8148,-2.8407,-2.9032,-2.9673,-2.9579,-2.9353,-2.9241,-2.9975,-3.0256,-3.04,-3.0877,-3.069,-3.0437,-3.0847,-3.0603,-3.0343,-3.0629,-3.0609,-3.0506,-3.0506,-3.0506,-3.0405,-3.0113,-3.03,-3.0356,-2.9877,-3.0196,-3.0506,-3.0506,-3.1752,-3.2613,-3.2341,-3.2825,-3.3093,-3.2815,-3.2035,-3.1511,-3.1511,-3.1511,-3.1511,-3.1511,-3.1511,-3.1511,-3.1511,-3.1511,-3.1438,-3.1292,-3.1058,-3.0896,-3.0804,-3.0671,-3.0598,-3.0598,-3.0598,-3.0598,-2.0707,-2.0507,-2.0503,-2.0503,-2.0503,-2.0678,0.0,0.0,0.0,-2.245,-2.2604,-2.2604,0.0,0.0,0.0,-2.3557,0.0,0.0,0.0,-2.5894,0.0,-2.6656,-2.7579,-2.8482,-2.9184,-2.9402,-2.9506,-2.9492,-2.8706,-2.7825,-2.6952,-2.6308,-2.5874,-2.5705,-2.5701,-2.5702,-2.5707,-2.5707,-2.6058,-2.6742,-2.6039,-2.6061,-2.6729,-2.6015,-2.5683,-2.568,-2.5619,-2.5602,-2.5591,-2.555,-2.5527,-2.5526,-2.5519,-2.5415,-2.5399,-2.6175,-2.6861,-2.7513,-2.828,-2.9039,-2.9617,-2.9453,-2.9259,-2.9144,-2.9637,-3.0038,-3.0323,-3.0252,-2.9811,-2.9505,-3.003,-2.9892,-2.9726,-3.0305,-3.0489,-3.0506,-3.0506,-3.0506,-3.0363,-2.9875,-3.0156,-3.0217,-2.935,-2.9929,-3.0506,-3.0506,-3.1624,-3.2392,-3.2101,-3.2597,-3.2872,-3.2586,-3.2035,-3.1668,-3.1668,-3.1668,-3.1668,-3.1668,-3.1553,-3.1511,-3.1511,-3.1511,-3.1424,-3.1293,-3.1176,-3.1014,-3.0789,-3.0671,-3.0598,-3.0598,-3.0598,-3.0598,-2.0623,-2.056,-2.0496,-2.0496,-2.0496,-2.0535,-2.0632,0.0,-2.0683,-2.0767,0.0,-2.08,-2.0806,0.0,0.0,-2.1051,0.0,0.0,-2.3382,-2.414,-2.4962,-2.5749,-2.7242,-2.8243,-2.8331,-2.9044,-2.9504,-2.9497,-2.8747,-2.7888,-2.6943,-2.6875,-2.6499,-2.5718,-2.5708,-2.5702,-2.5707,-2.5707,-2.5746,-2.5844,-2.5746,-2.5754,-2.584,-2.5678,-2.5602,-2.5613,-2.56,-2.559,-2.5607,-2.5586,-2.5593,-2.5586,-2.5511,-2.5415,-2.5389,-2.6062,-2.6783,-2.7498,-2.8175,-2.8868,-2.9433,-2.9412,-2.9174,-2.8881,-2.867,-2.8617,-2.8796,-2.9436,-2.9088,-2.8698,-2.9482,-2.9635,-2.9589,-2.9556,-3.0046,-3.0506,-3.0506,-3.0506,-3.0468,-3.0405,-3.0447,-3.0302,-2.9657,-3.0082,-3.0506,-3.0506,-3.1204,-3.1941,-3.2536,-3.2386,-3.2435,-3.3056,-3.2614,-3.2287,-3.2287,-3.2287,-3.2287,-3.2287,-3.1811,-3.1511,-3.1511,-3.1511,-3.1453,-3.1292,-3.1161,-3.0999,-3.0806,-3.0672,-3.0598,-3.0598,-3.0598,-3.0598,-2.0722,-2.0559,-2.0493,-2.0497,-2.0494,-2.0493,-2.0497,-2.0897,-2.1119,-2.0594,0.0,0.0,0.0,0.0,0.0,0.0,-2.1867,0.0,0.0,0.0,-2.4162,-2.5535,0.0,0.0,-2.6705,-2.7957,-2.875,-2.8747,-2.7505,-2.6781,-2.69,-2.6477,-2.6074,-2.5716,-2.5692,-2.5708,-2.5707,-2.5707,-2.5693,-2.57,-2.5693,-2.5681,-2.5639,-2.5613,-2.5595,-2.5598,-2.5607,-2.5601,-2.5598,-2.5605,-2.5599,-2.5648,-2.6037,-2.6083,-2.6014,-2.6682,-2.7381,-2.8098,-2.8875,-2.9336,-2.954,-2.9293,-2.9007,-2.8687,-2.8458,-2.8246,-2.8163,-2.8651,-2.8424,-2.8216,-2.9232,-2.9477,-2.9593,-2.9947,-3.0274,-3.0506,-3.0506,-3.0506,-3.0405,-3.0156,-3.0321,-3.033,-2.98,-3.0138,-3.0506,-3.0506,-3.112,-3.1888,-3.2608,-3.2649,-3.2771,-3.3171,-3.2986,-3.2749,-3.2425,-3.2695,-3.2749,-3.2425,-3.2148,-3.2007,-3.2007,-3.1923,-3.1752,-3.1538,-3.1146,-3.0969,-3.1087,-3.0747,-3.0598,-3.0598,-3.0598,-3.0598,-2.0742,-2.056,-2.0533,-2.0521,-2.0539,-2.0519,-2.051,-2.0988,-2.1267,-2.0625,-2.0996,0.0,0.0,0.0,-2.0719,-2.1344,0.0,-2.1523,-2.1773,-2.2148,0.0,0.0,0.0,0.0,0.0,-2.6947,-2.7715,-2.818,-2.6599,-2.5992,-2.6856,-2.6349,-2.6033,-2.6068,-2.5815,-2.5912,-2.6377,-2.6163,-2.6051,-2.6055,-2.6051,-2.5898,-2.5609,-2.5603,-2.5602,-2.56,-2.5599,-2.5601,-2.5598,-2.5609,-2.5712,-2.5961,-2.6445,-2.6806,-2.7128,-2.7602,-2.8051,-2.8519,-2.9401,-2.9636,-2.9472,-2.909,-2.8797,-2.8562,-2.8393,-2.8091,-2.7859,-2.8158,-2.7845,-2.7612,-2.8583,-2.8969,-2.9218,-2.9549,-3.0059,-3.0398,-3.0079,-3.0173,-3.0156,-2.9705,-2.9881,-3.0049,-2.9843,-3.0199,-3.0506,-3.0506,-3.1145,-3.1886,-3.2602,-3.2887,-3.3102,-3.3421,-3.3449,-3.3293,-3.29,-3.3214,-3.3214,-3.2641,-3.2614,-3.2614,-3.2614,-3.2422,-3.2173,-3.1951,-3.1336,-3.1161,-3.1466,-3.1014,-3.0777,-3.0777,-3.0657,-3.0598,-2.0584,-2.0605,-2.0606,-2.0592,-2.0593,-2.0577,-2.0507,-2.0527,-2.0527,-2.0501,-2.0519,-2.052,-2.0516,-2.05,-2.0502,-2.0541,-2.0542,0.0,0.0,-2.1094,-2.0915,-2.1812,-2.4121,-2.5995,0.0,-2.6241,-2.645,-2.8083,-2.6654,-2.6046,-2.6852,-2.687,-2.6892,-2.6951,-2.6133,-2.6484,-2.8105,-2.7344,-2.6953,-2.6953,-2.6953,-2.6483,-2.5608,-2.56,-2.5598,-2.5604,-2.5601,-2.5601,-2.5601,-2.5598,-2.6013,-2.6645,-2.6555,-2.7399,-2.8727,-2.876,-2.8591,-2.8519,-2.9401,-2.9453,-2.9071,-2.8731,-2.8612,-2.8549,-2.83,-2.8021,-2.7844,-2.8045,-2.7402,-2.6756,-2.724,-2.7895,-2.826,-2.7564,-2.8986,-3.0186,-2.9009,-2.9329,-2.9683,-2.9212,-2.912,-2.9275,-2.9725,-3.0186,-3.0506,-3.0506,-3.1125,-3.1885,-3.2597,-3.2887,-3.3283,-3.3995,-3.4075,-3.4075,-3.405,-3.4075,-3.3815,-3.3224,-3.3156,-3.3156,-3.3156,-3.2922,-3.2722,-3.2559,-3.1836,-3.1623,-3.1879,-3.1466,-3.1292,-3.1263,-3.0807,-3.0598,-2.052,-2.0537,-2.0536,-2.0586,-2.0566,-2.0532,-2.0507,-2.0507,-2.0501,-2.05,-2.0498,-2.0501,-2.0498,-2.0499,-2.0501,-2.0501,-2.0495,-2.0609,0.0,-2.0681,-2.1035,-2.2499,-2.3957,-2.4501,-2.365,-2.4859,-2.5683,-2.5619,-2.5098,-2.5147,-2.5994,-2.6637,-2.6975,-2.7007,-2.7262,-2.7673,-2.8182,-2.7927,-2.7491,-2.6942,-2.7522,-2.7333,-2.6476,-2.7052,-2.7303,-2.723,-2.6689,-2.6767,-2.721,-2.6689,-2.6886,-2.7612,-2.8107,-2.8508,-2.8789,-2.87,-2.8913,-2.927,-2.9447,-2.9278,-2.895,-2.8827,-2.8712,-2.8549,-2.8268,-2.7886,-2.7598,-2.7996,-2.7603,-2.721,-2.7848,-2.821,-2.8459,-2.8638,-2.9251,-2.9704,-2.9475,-2.9632,-2.9661,-2.9189,-2.9097,-2.9157,-2.9294,-2.9729,-3.0135,-3.0447,-3.07,-3.1312,-3.2531,-3.276,-3.313,-3.3996,-3.4423,-3.4497,-3.4126,-3.4101,-3.4159,-3.4317,-3.3993,-3.379,-3.379,-3.3407,-3.3161,-3.3065,-3.2216,-3.1964,-3.2367,-3.1908,-3.1695,-3.168,-3.1537,-3.1321,-2.0493,-2.049,-2.0509,-2.054,-2.0521,-2.0509,-2.0508,-2.0504,-2.0492,-2.0498,-2.05,-2.0495,-2.0493,-2.0502,-2.049,-2.0502,-2.0508,-2.0508,0.0,-2.0766,-2.1265,-2.2102,-2.2969,-2.3396,-2.3202,-2.3867,-2.4568,-2.5182,-2.4387,-2.4514,0.0,-2.6667,-2.7143,-2.7453,-2.7978,-2.8542,-2.9128,-2.8815,-2.8369,-2.7799,-2.839,-2.8201,-2.7382,-2.7918,-2.814,-2.8065,-2.7544,-2.7618,-2.8065,-2.7544,-2.7764,-2.8487,-2.8999,-2.9199,-2.9175,-2.9096,-2.9329,-2.9655,-2.9384,-2.9144,-2.895,-2.8827,-2.8712,-2.8549,-2.8268,-2.7829,-2.7438,-2.7653,-2.7314,-2.7083,-2.7812,-2.8194,-2.8508,-2.8936,-2.9433,-2.9704,-2.9459,-2.9615,-2.9661,-2.9189,-2.9097,-2.9143,-2.9325,-2.9595,-2.9903,-3.0215,-3.0615,-3.1338,-3.2531,-3.2934,-3.3426,-3.4293,-3.4691,-3.4763,-3.4423,-3.43,-3.4399,-3.4756,-3.4349,-3.4101,-3.4101,-3.3723,-3.3481,-3.345,-3.2574,-3.2382,-3.2861,-3.2382,-3.216,-3.216,-3.216,-3.202]},{"header":{"parameterUnit":"m.s-1","parameterCategory":1,"la1":30.6,"la2":29.2853,"lo1":-89.7004,"lo2":-87.6739,"dy":0.0162,"dx":0.0183,"nx":112,"ny":82,"refTime":"2026-05-07T12:00:00:Z","depth":0,"parameterNumber":3,"parameterNumberName":"V-component_of_WINDS"},"data":[0.0,0.0,0.0,0.0,0.0,0.0,0.0,0.0,0.0,0.0,0.0,0.0,0.0,0.0,0.0,0.0,0.0,0.0,0.0,0.0,0.0,0.0,0.0,0.0,0.0,0.0,0.0,0.0,0.0,0.0,0.0,0.0,0.0,0.0,0.0,0.0,0.0,0.0,0.0,0.0,0.0,0.0,0.0,0.0,0.0,0.0,0.0,0.0,0.0,0.0,0.0,0.0,0.0,0.0,0.0,0.0,0.0,0.0,0.0,0.0,0.0,0.0,0.0,0.0,0.0,0.0,0.0,0.0,0.0,0.0,0.0,0.0,0.0,0.0,0.0,0.0,0.0,0.0,0.0,0.0,0.0,0.0,0.0,0.0,0.0,0.0,0.0,0.0,0.0,0.0,-1.777,-1.8519,-1.962,-2.0303,-2.0303,-2.0459,-1.9687,-1.7607,0.0,0.0,0.0,0.0,0.0,0.0,0.0,0.0,0.0,0.0,0.0,0.0,0.0,0.0,0.0,0.0,0.0,0.0,0.0,0.0,0.0,0.0,0.0,0.0,0.0,0.0,0.0,0.0,0.0,0.0,0.0,0.0,0.0,0.0,0.0,0.0,0.0,0.0,0.0,0.0,0.0,0.0,0.0,0.0,0.0,0.0,0.0,0.0,0.0,0.0,0.0,0.0,0.0,0.0,0.0,0.0,0.0,0.0,0.0,0.0,0.0,0.0,0.0,0.0,0.0,0.0,0.0,0.0,0.0,0.0,0.0,0.0,0.0,0.0,0.0,0.0,0.0,0.0,0.0,0.0,0.0,0.0,0.0,0.0,0.0,0.0,0.0,0.0,0.0,0.0,0.0,0.0,0.0,0.0,0.0,0.0,0.0,0.0,0.0,0.0,0.0,0.0,0.0,0.0,-1.81,-1.9812,-2.0188,-2.0303,-2.0303,-2.0342,-1.9664,-1.8027,0.0,0.0,0.0,0.0,0.0,0.0,0.0,0.0,0.0,0.0,0.0,0.0,0.0,0.0,0.0,0.0,0.0,0.0,0.0,0.0,0.0,0.0,0.0,0.0,0.0,0.0,0.0,0.0,0.0,0.0,0.0,0.0,0.0,0.0,0.0,0.0,0.0,0.0,0.0,0.0,0.0,0.0,0.0,0.0,0.0,0.0,0.0,0.0,0.0,0.0,0.0,0.0,0.0,0.0,0.0,0.0,0.0,0.0,0.0,0.0,0.0,0.0,0.0,0.0,0.0,0.0,0.0,0.0,0.0,0.0,0.0,0.0,0.0,0.0,0.0,0.0,0.0,0.0,0.0,0.0,0.0,0.0,0.0,0.0,0.0,0.0,0.0,0.0,0.0,0.0,0.0,0.0,0.0,0.0,0.0,0.0,0.0,0.0,0.0,0.0,0.0,0.0,0.0,-1.7678,-1.8666,-2.0275,-2.045,-2.045,-2.045,-2.045,-1.9769,-1.8081,-1.7432,0.0,0.0,0.0,0.0,0.0,0.0,0.0,0.0,0.0,0.0,0.0,0.0,0.0,0.0,0.0,0.0,0.0,0.0,0.0,0.0,0.0,0.0,0.0,0.0,0.0,0.0,0.0,0.0,0.0,0.0,0.0,0.0,0.0,0.0,0.0,0.0,0.0,0.0,0.0,0.0,0.0,0.0,0.0,0.0,0.0,0.0,0.0,0.0,0.0,0.0,0.0,0.0,0.0,0.0,0.0,0.0,0.0,0.0,0.0,0.0,0.0,0.0,0.0,0.0,0.0,0.0,0.0,0.0,0.0,0.0,0.0,0.0,0.0,0.0,0.0,0.0,0.0,0.0,0.0,0.0,0.0,0.0,0.0,0.0,0.0,0.0,0.0,0.0,0.0,0.0,0.0,0.0,0.0,0.0,0.0,0.0,0.0,0.0,0.0,0.0,0.0,0.0,-1.8812,-1.9473,-2.0498,-2.0605,-2.0605,-2.0605,-2.0419,-1.9656,-1.8105,-1.7519,0.0,0.0,0.0,0.0,0.0,0.0,0.0,0.0,0.0,0.0,0.0,0.0,0.0,0.0,0.0,0.0,0.0,0.0,0.0,0.0,0.0,0.0,0.0,0.0,0.0,0.0,0.0,0.0,0.0,0.0,0.0,0.0,0.0,0.0,0.0,0.0,0.0,0.0,0.0,0.0,0.0,0.0,0.0,0.0,0.0,0.0,0.0,0.0,0.0,0.0,0.0,0.0,0.0,0.0,0.0,0.0,0.0,0.0,0.0,0.0,0.0,0.0,0.0,0.0,0.0,0.0,0.0,0.0,0.0,0.0,0.0,0.0,0.0,0.0,0.0,0.0,0.0,0.0,0.0,0.0,0.0,0.0,0.0,0.0,0.0,0.0,0.0,0.0,0.0,0.0,0.0,0.0,0.0,0.0,0.0,0.0,0.0,0.0,0.0,0.0,0.0,0.0,-1.9443,-2.0507,-2.0595,-2.0605,-2.0605,-2.0605,-1.9871,-1.8984,-1.8066,-1.7204,0.0,0.0,0.0,0.0,0.0,0.0,0.0,0.0,0.0,0.0,0.0,0.0,0.0,0.0,0.0,0.0,0.0,0.0,0.0,0.0,0.0,0.0,0.0,0.0,0.0,0.0,0.0,0.0,0.0,0.0,0.0,0.0,0.0,0.0,0.0,0.0,0.0,0.0,0.0,0.0,0.0,0.0,0.0,0.0,0.0,0.0,0.0,0.0,0.0,0.0,0.0,0.0,0.0,0.0,0.0,0.0,0.0,0.0,0.0,0.0,0.0,0.0,0.0,0.0,0.0,0.0,0.0,0.0,0.0,0.0,0.0,0.0,0.0,0.0,0.0,0.0,0.0,0.0,0.0,0.0,0.0,0.0,0.0,0.0,0.0,0.0,0.0,0.0,0.0,0.0,0.0,0.0,0.0,0.0,0.0,0.0,0.0,0.0,0.0,0.0,0.0,0.0,-1.8877,-2.0008,-2.0546,-2.0605,-2.0605,-2.0605,-2.0019,-1.9199,-1.8076,0.0,0.0,0.0,0.0,0.0,0.0,0.0,0.0,0.0,0.0,0.0,0.0,0.0,0.0,0.0,0.0,0.0,0.0,0.0,0.0,0.0,0.0,0.0,0.0,0.0,0.0,0.0,0.0,0.0,0.0,0.0,0.0,0.0,0.0,0.0,0.0,0.0,0.0,0.0,0.0,0.0,0.0,0.0,0.0,0.0,0.0,0.0,0.0,0.0,0.0,0.0,0.0,0.0,0.0,0.0,0.0,0.0,0.0,0.0,0.0,0.0,0.0,0.0,0.0,0.0,0.0,0.0,0.0,0.0,0.0,0.0,0.0,0.0,0.0,0.0,0.0,0.0,0.0,0.0,0.0,0.0,0.0,0.0,0.0,0.0,0.0,0.0,0.0,0.0,0.0,0.0,0.0,0.0,0.0,0.0,0.0,0.0,0.0,0.0,0.0,0.0,0.0,-1.7285,-1.8613,-1.9766,-2.0527,-2.0605,-2.0498,-2.0224,-1.9766,-1.8906,-1.748,0.0,0.0,0.0,0.0,0.0,0.0,0.0,0.0,0.0,0.0,0.0,0.0,0.0,0.0,0.0,0.0,0.0,0.0,0.0,0.0,0.0,0.0,0.0,0.0,0.0,0.0,0.0,0.0,0.0,0.0,0.0,0.0,0.0,0.0,0.0,0.0,0.0,0.0,0.0,0.0,0.0,0.0,0.0,0.0,0.0,0.0,0.0,0.0,0.0,0.0,0.0,0.0,0.0,0.0,0.0,0.0,0.0,0.0,0.0,0.0,0.0,0.0,0.0,0.0,0.0,0.0,0.0,0.0,0.0,0.0,0.0,0.0,0.0,0.0,0.0,0.0,0.0,0.0,0.0,0.0,0.0,0.0,0.0,0.0,0.0,0.0,0.0,0.0,0.0,0.0,0.0,0.0,0.0,0.0,0.0,0.0,0.0,0.0,0.0,0.0,0.0,0.0,-1.7314,-1.8857,-2.0078,-2.0546,-2.0595,-2.0243,-1.9355,-1.8887,-1.7867,0.0,0.0,0.0,0.0,0.0,0.0,0.0,0.0,0.0,0.0,0.0,0.0,0.0,0.0,0.0,0.0,0.0,0.0,0.0,0.0,0.0,0.0,0.0,0.0,0.0,0.0,0.0,0.0,0.0,0.0,0.0,0.0,0.0,0.0,0.0,0.0,0.0,0.0,0.0,0.0,0.0,0.0,0.0,0.0,0.0,0.0,0.0,0.0,0.0,0.0,0.0,0.0,0.0,0.0,0.0,0.0,0.0,0.0,0.0,0.0,0.0,0.0,0.0,0.0,0.0,0.0,0.0,0.0,0.0,0.0,0.0,0.0,0.0,0.0,0.0,0.0,0.0,0.0,0.0,0.0,0.0,0.0,0.0,0.0,0.0,0.0,0.0,0.0,0.0,0.0,0.0,0.0,0.0,0.0,0.0,0.0,0.0,0.0,0.0,0.0,0.0,0.0,0.0,-1.6475,-1.8257,-1.9521,-1.9648,-1.9668,-1.9434,-1.8841,-1.8676,-1.7867,-1.6202,0.0,0.0,0.0,0.0,0.0,0.0,0.0,0.0,0.0,0.0,0.0,0.0,0.0,0.0,0.0,0.0,0.0,0.0,0.0,0.0,0.0,0.0,0.0,0.0,0.0,0.0,0.0,0.0,0.0,0.0,0.0,0.0,0.0,0.0,0.0,0.0,0.0,0.0,0.0,0.0,0.0,0.0,0.0,0.0,0.0,0.0,0.0,0.0,0.0,0.0,0.0,0.0,0.0,0.0,0.0,0.0,0.0,0.0,0.0,0.0,0.0,0.0,0.0,0.0,0.0,0.0,0.0,0.0,0.0,0.0,0.0,0.0,0.0,0.0,0.0,0.0,0.0,0.0,0.0,0.0,0.0,0.0,0.0,0.0,0.0,0.0,0.0,0.0,0.0,0.0,0.0,0.0,0.0,0.0,0.0,0.0,0.0,0.0,0.0,0.0,0.0,0.0,-1.6105,-1.7803,-1.9023,-1.9023,-1.9023,-1.8711,-1.7906,-1.8159,-1.7578,-1.5703,0.0,0.0,0.0,0.0,0.0,0.0,0.0,0.0,0.0,0.0,0.0,0.0,0.0,0.0,0.0,0.0,0.0,0.0,0.0,0.0,0.0,0.0,0.0,0.0,0.0,0.0,0.0,0.0,0.0,0.0,0.0,0.0,0.0,0.0,0.0,0.0,0.0,0.0,0.0,0.0,0.0,0.0,0.0,0.0,0.0,0.0,0.0,0.0,0.0,0.0,0.0,0.0,0.0,0.0,0.0,0.0,0.0,0.0,0.0,0.0,0.0,0.0,0.0,0.0,0.0,0.0,0.0,0.0,0.0,0.0,0.0,0.0,0.0,0.0,0.0,0.0,0.0,0.0,0.0,0.0,0.0,0.0,0.0,0.0,0.0,0.0,0.0,0.0,0.0,0.0,0.0,0.0,0.0,0.0,0.0,0.0,0.0,0.0,0.0,0.0,0.0,0.0,-1.5928,-1.7451,-1.8471,-1.8432,-1.8422,-1.7935,-1.6746,-1.7428,-1.7051,-1.4922,0.0,0.0,0.0,0.0,0.0,0.0,0.0,0.0,0.0,0.0,0.0,0.0,0.0,0.0,0.0,0.0,0.0,0.0,0.0,0.0,0.0,0.0,0.0,0.0,0.0,0.0,0.0,0.0,0.0,0.0,0.0,0.0,0.0,0.0,0.0,0.0,0.0,0.0,0.0,0.0,0.0,0.0,0.0,0.0,0.0,0.0,0.0,0.0,0.0,0.0,0.0,0.0,0.0,0.0,0.0,0.0,0.0,0.0,0.0,0.0,-0.7099,-0.7896,0.0,0.0,0.0,0.0,0.0,0.0,0.0,0.0,0.0,0.0,0.0,0.0,0.0,0.0,0.0,0.0,0.0,0.0,0.0,0.0,0.0,0.0,0.0,0.0,0.0,0.0,0.0,0.0,0.0,0.0,0.0,0.0,0.0,0.0,0.0,0.0,0.0,0.0,0.0,0.0,-1.5116,-1.6572,-1.7519,-1.7145,-1.7106,-1.6853,-1.629,-1.7012,-1.6738,-1.493,-1.5264,0.0,0.0,0.0,0.0,0.0,0.0,0.0,0.0,0.0,0.0,0.0,0.0,0.0,0.0,0.0,0.0,0.0,0.0,0.0,0.0,0.0,0.0,0.0,0.0,0.0,0.0,0.0,0.0,0.0,0.0,0.0,0.0,0.0,0.0,0.0,0.0,0.0,0.0,0.0,0.0,0.0,0.0,0.0,0.0,0.0,0.0,0.0,0.0,0.0,0.0,0.0,0.0,0.0,0.0,0.0,0.0,0.0,0.0,0.0,-0.6494,-0.7138,0.0,0.0,0.0,0.0,0.0,0.0,0.0,0.0,0.0,0.0,0.0,0.0,0.0,0.0,0.0,0.0,0.0,0.0,0.0,0.0,0.0,0.0,0.0,0.0,0.0,0.0,0.0,0.0,0.0,0.0,0.0,0.0,0.0,0.0,0.0,0.0,0.0,0.0,0.0,0.0,-1.4786,-1.6123,-1.6904,-1.6465,-1.6406,-1.6318,-1.6114,-1.668,-1.6592,-1.5498,-1.5635,0.0,0.0,0.0,0.0,0.0,0.0,0.0,0.0,0.0,0.0,0.0,0.0,0.0,0.0,0.0,0.0,0.0,0.0,0.0,0.0,0.0,0.0,0.0,0.0,0.0,0.0,0.0,0.0,0.0,0.0,0.0,0.0,0.0,0.0,0.0,0.0,0.0,0.0,0.0,0.0,0.0,0.0,0.0,0.0,0.0,0.0,0.0,0.0,0.0,0.0,0.0,0.0,0.0,-0.5817,-0.584,-0.5844,-0.5895,-0.5918,-0.5941,-0.6278,-0.6614,-0.6959,-0.787,0.0,0.0,0.0,0.0,0.0,0.0,0.0,0.0,0.0,0.0,0.0,0.0,0.0,0.0,0.0,0.0,0.0,0.0,0.0,0.0,0.0,0.0,-1.1133,-1.0588,-1.1016,-1.1465,-1.1136,0.0,0.0,0.0,0.0,0.0,0.0,0.0,0.0,0.0,0.0,0.0,-1.4622,-1.5849,-1.6562,-1.6144,-1.6163,-1.6212,-1.6212,-1.6592,-1.665,-1.6242,-1.6212,-1.589,0.0,0.0,0.0,0.0,0.0,0.0,0.0,0.0,0.0,0.0,0.0,0.0,0.0,0.0,0.0,0.0,0.0,0.0,0.0,0.0,0.0,0.0,0.0,0.0,0.0,0.0,0.0,0.0,0.0,0.0,0.0,0.0,-0.2172,-0.2218,0.0,0.0,0.0,0.0,0.0,0.0,0.0,0.0,0.0,0.0,0.0,0.0,0.0,-0.5365,-0.5426,-0.5644,-0.5722,-0.5623,-0.5878,-0.5963,-0.5973,-0.6268,-0.6422,-0.6422,-0.646,0.0,-0.6908,-0.7037,0.0,0.0,0.0,0.0,0.0,0.0,0.0,0.0,0.0,0.0,0.0,0.0,0.0,0.0,0.0,0.0,0.0,0.0,0.0,0.0,0.0,0.0,-1.2188,-1.2053,-1.2104,-1.212,-1.1815,-1.0997,-1.0268,-1.0133,-1.0021,-1.008,0.0,0.0,0.0,0.0,0.0,0.0,-1.4187,-1.5664,-1.6562,-1.6144,-1.6416,-1.6609,-1.6609,-1.7051,-1.7109,-1.6638,-1.6609,-1.6455,-1.612,-1.5728,0.0,0.0,0.0,0.0,0.0,0.0,0.0,0.0,0.0,0.0,0.0,0.0,0.0,0.0,0.0,0.0,0.0,0.0,0.0,0.0,0.0,0.0,0.0,0.0,0.0,0.0,0.0,0.0,0.0,-0.1994,-0.215,-0.1946,-0.234,-0.2711,0.0,0.0,0.0,0.0,0.0,0.0,0.0,0.0,0.0,-0.3893,-0.4027,-0.4176,-0.4339,-0.4439,-0.479,-0.5368,-0.5485,-0.5852,-0.641,-0.6542,-0.66,-0.6607,-0.6692,-0.672,-0.6699,-0.6917,-0.715,-0.7477,0.0,0.0,0.0,0.0,-1.0294,-1.0511,-1.0566,-1.0726,-1.0845,-1.0495,0.0,0.0,0.0,0.0,0.0,0.0,0.0,-1.1628,-1.1445,-1.1757,-1.2123,-1.2069,-1.2184,-1.2265,-1.2138,-1.1577,-1.1002,-1.0668,-1.0564,-1.0543,-1.059,-1.0895,0.0,0.0,0.0,-1.411,-1.4439,-1.5371,-1.5918,-1.5723,-1.5869,-1.6094,-1.6338,-1.6768,-1.6934,-1.6716,-1.6963,-1.6988,-1.6751,-1.5956,-1.5554,0.0,0.0,0.0,0.0,0.0,0.0,0.0,0.0,0.0,0.0,0.0,0.0,0.0,0.0,0.0,0.0,0.0,0.0,0.0,0.0,0.0,0.0,0.0,0.0,0.0,0.0,0.0,0.0,-0.1502,-0.1799,-0.1601,-0.1973,-0.2318,0.0,0.0,0.0,0.0,0.0,0.0,-0.2793,-0.2841,-0.296,-0.3133,-0.3195,-0.3306,-0.3511,-0.3533,-0.3994,-0.4776,-0.4818,-0.5216,-0.5987,-0.6204,-0.6331,-0.637,-0.669,-0.6719,-0.6534,-0.6839,-0.6911,-0.6929,-0.8079,-0.8669,-0.896,-0.9798,-1.0318,-1.0651,-1.0719,-1.0945,-1.1188,-1.0739,-1.0685,-1.0878,-1.1212,0.0,0.0,0.0,0.0,-1.1169,-1.1422,-1.1703,-1.1926,-1.2,-1.2144,-1.2305,-1.2305,-1.2131,-1.1804,-1.1216,-1.1042,-1.0921,-1.0645,-1.1063,0.0,-1.202,-1.3102,-1.4006,-1.4439,-1.5071,-1.5517,-1.5576,-1.5684,-1.5879,-1.6201,-1.6436,-1.658,-1.6697,-1.6924,-1.706,-1.7074,-1.6267,-1.5898,-1.6071,0.0,0.0,0.0,0.0,0.0,0.0,0.0,0.0,0.0,0.0,0.0,0.0,0.0,0.0,0.0,0.0,0.0,0.0,0.0,0.0,0.0,0.0,0.0,0.0,0.0,0.0,0.0,0.0,0.0,-0.0929,-0.1038,0.0,0.0,0.0,0.0,-0.2755,-0.2798,-0.2784,-0.2793,-0.2969,-0.3131,-0.3296,-0.3417,-0.3503,-0.3511,-0.3705,-0.375,-0.368,-0.3798,-0.3892,-0.3978,-0.4877,-0.5295,-0.5438,-0.6328,-0.662,-0.6511,-0.6534,-0.6359,-0.6125,-0.6765,-0.7477,-0.8276,-0.9196,-1.0041,-1.0737,-1.0985,-1.1081,-1.1124,-1.1063,-1.0935,-1.0918,-1.1407,-1.1307,0.0,0.0,-1.1219,-1.1435,-1.1645,-1.1773,-1.1973,-1.2218,-1.2291,-1.2305,-1.2305,-1.2291,-1.2104,-1.1482,-1.1182,-1.0866,-1.0401,0.0,-1.124,-1.1022,-1.2424,-1.3559,-1.3665,-1.4888,-1.5853,-1.6035,-1.6416,-1.6638,-1.6668,-1.6328,-1.6279,-1.6677,-1.6357,-1.6427,-1.6993,-1.6934,-1.6806,-1.6554,-1.6466,0.0,0.0,0.0,0.0,0.0,0.0,0.0,0.0,0.0,0.0,0.0,0.0,0.0,0.0,0.0,0.0,0.0,0.0,0.0,0.0,0.0,0.0,0.0,0.0,0.0,0.0,0.0,0.0,-0.09,-0.1026,0.0,-0.132,-0.1361,-0.1467,-0.1694,-0.1711,-0.1715,-0.1777,-0.1848,-0.1903,-0.2023,-0.2043,-0.2092,-0.2092,-0.2148,-0.2507,-0.3069,-0.3153,-0.3492,-0.4063,-0.4413,-0.455,-0.465,-0.5527,-0.5829,-0.5709,-0.6271,-0.6395,-0.6249,-0.7017,-0.748,-0.7821,-0.8669,-0.9484,-1.0213,-1.0297,-1.0663,-1.1111,-1.1111,-1.1125,-1.116,-1.1333,-1.1264,-1.114,-1.1512,-1.1592,-1.1658,-1.1992,-1.2108,-1.2171,-1.2278,-1.2305,-1.2251,-1.2064,-1.2024,-1.185,-1.1263,-1.1369,-1.1343,-1.0629,-1.1257,-1.1851,-1.1805,-1.2961,-1.4015,-1.4559,-1.5097,-1.5456,-1.5615,-1.5791,-1.5771,-1.5498,-1.5576,-1.5596,-1.5488,-1.5586,-1.6095,-1.7095,-1.6376,-1.6486,-1.7603,-1.6852,-1.6154,0.0,0.0,0.0,0.0,0.0,0.0,0.0,0.0,0.0,0.0,0.0,0.0,0.0,0.0,0.0,0.0,0.0,0.0,0.0,0.0,0.0,0.0,0.0,0.0,0.0,0.0123,0.0064,-0.035,-0.0442,-0.0492,-0.0444,-0.0653,-0.0795,-0.0795,-0.1011,-0.1139,-0.118,-0.1229,-0.1253,-0.1295,-0.1296,-0.1296,-0.1296,-0.1296,-0.1642,-0.2285,-0.2307,-0.2626,-0.3213,-0.35,-0.3631,-0.3688,-0.456,-0.4869,-0.4803,-0.5637,-0.5946,-0.5944,-0.6753,-0.7253,-0.7557,-0.8093,-0.8813,-0.9539,-0.9803,-1.0438,-1.1111,-1.1223,-1.1285,-1.139,-1.1584,-1.1585,-1.1567,-1.1915,-1.1968,-1.1972,-1.2215,-1.2305,-1.2305,-1.2305,-1.2225,-1.2104,-1.1946,-1.1826,-1.1577,-1.1089,-1.1309,-1.1424,-1.0841,-1.1411,-1.1926,-1.1882,-1.2987,-1.3983,-1.435,-1.4784,-1.5117,-1.5303,-1.5332,-1.5196,-1.4824,-1.5039,-1.5019,-1.459,-1.4796,-1.5309,-1.6121,-1.5533,-1.5883,-1.7332,-1.6759,-1.6252,-1.5902,0.0,0.0,0.0,0.0,0.0,0.0,0.0,0.0,0.0,0.0,0.0,0.0,0.0,0.0,0.0,0.0,0.0,0.0,0.0,0.0,0.0,0.0,0.0,0.0957,0.0856,0.0816,0.0806,0.0743,0.0723,0.0775,0.0216,-0.0183,-0.0183,-0.0785,-0.1175,-0.1175,-0.1241,-0.1296,-0.1296,-0.1296,-0.1296,-0.1296,-0.1296,-0.1312,-0.1302,-0.1312,-0.129,-0.1344,-0.2126,-0.2503,-0.2589,-0.3398,-0.3752,-0.383,-0.4613,-0.4963,-0.5043,-0.5944,-0.6756,-0.7446,-0.7446,-0.7978,-0.878,-0.9614,-1.04,-1.1111,-1.1378,-1.1477,-1.1583,-1.2133,-1.2281,-1.2305,-1.2305,-1.2305,-1.2305,-1.2305,-1.2305,-1.2305,-1.2305,-1.2084,-1.1899,-1.1893,-1.1623,-1.1323,-1.1035,-1.0982,-1.0982,-1.0982,-1.1248,-1.1371,-1.1066,-1.2398,0.0,-1.2895,-1.3923,-1.4804,-1.5156,-1.5215,-1.51,-1.4824,-1.4813,-1.459,-1.4114,-1.4085,-1.4085,-1.4111,-1.4521,-1.5051,-1.5673,-1.6207,-1.6276,-1.5902,0.0,0.0,0.0,0.0,0.0,0.0,0.0,0.0,0.0,0.0,0.0,0.0,0.0,0.0,0.0,0.0,0.0,0.0,0.0,0.0,0.0,0.1909,0.1633,0.0988,0.1103,0.1097,0.0784,0.0672,0.0653,0.0648,0.0498,0.0269,-0.0038,-0.0349,-0.0661,-0.0972,-0.1175,-0.1296,-0.1296,-0.1296,-0.1296,-0.1296,-0.1296,-0.1312,-0.1303,-0.1294,-0.1299,-0.1314,-0.154,-0.1642,-0.1703,-0.2516,-0.286,-0.2938,-0.3793,-0.4144,-0.4261,-0.575,-0.6454,-0.6644,-0.6644,-0.7138,-0.8016,-0.9183,-0.9744,-1.0083,-1.0919,-1.1199,-1.1292,-1.1744,-1.2083,-1.2305,-1.2305,-1.2305,-1.2305,-1.2305,-1.2305,-1.2305,-1.2305,-1.2084,-1.1846,-1.1597,-1.1316,-1.1022,-1.0767,-1.0713,-1.0713,-1.0713,-1.0805,-1.0954,-1.1322,-1.1753,-1.2405,-1.3321,-1.3752,-1.424,-1.497,-1.5156,-1.5032,-1.4674,-1.4729,-1.4473,-1.3695,-1.3656,-1.3852,-1.4302,-1.4023,-1.4457,-1.5745,-1.5573,-1.5618,0.0,0.0,0.0,0.0,0.0,0.0,0.0,0.0,0.0,0.0,0.0,0.0,0.0,0.0,0.0,0.0,0.0,0.0,0.0,0.0,0.0,0.0,0.2585,0.2453,0.2086,0.1894,0.1691,0.1463,0.1427,0.1452,0.1649,0.1413,0.1099,0.0706,0.0314,-0.0157,-0.0746,-0.0904,-0.1061,-0.1139,-0.1139,-0.1178,-0.1296,-0.1296,-0.1305,-0.1284,-0.1284,-0.1284,-0.1284,-0.1284,-0.1314,-0.1335,-0.1805,-0.2002,-0.208,-0.2899,-0.3482,-0.3947,0.0,0.0,0.0,0.0,-0.6795,-0.7638,-0.8508,-0.9188,-0.983,-1.0773,-1.1117,-1.1224,-1.1793,-1.2103,-1.2318,-1.2305,-1.2305,-1.2305,-1.2305,-1.2211,-1.2124,-1.2124,-1.1804,-1.1456,-1.1283,-1.1015,-1.0794,-1.0626,-1.0593,0.0,-1.0593,-1.0593,-1.076,-1.1227,-1.1413,-1.1911,-1.3039,-1.3442,-1.3932,-1.4784,-1.4931,-1.4849,-1.4515,-1.4725,0.0,0.0,0.0,-1.3759,-1.4003,-1.3684,0.0,0.0,0.0,0.0,0.0,0.0,0.0,0.0,-1.4917,-1.4654,0.0,0.0,0.0,0.0,0.0,0.0,0.0,0.0,0.0,0.0,0.0,0.0,0.0,0.0,0.0,0.0,0.3136,0.3503,0.3638,0.2963,0.2461,0.2575,0.2511,0.2668,0.3062,0.2628,0.2156,0.1803,0.1214,0.047,-0.0393,-0.0471,0.0,0.0,0.0,-0.1021,-0.1257,-0.1296,-0.1296,-0.1296,-0.1296,-0.1296,-0.1296,-0.1296,-0.1296,-0.1296,-0.1296,-0.1294,-0.133,-0.2078,-0.286,-0.3752,-0.4768,-0.516,-0.5237,-0.6025,-0.676,-0.7407,-0.7646,0.0,0.0,-1.0549,-1.0816,-1.0975,-1.1738,-1.2005,-1.2096,-1.2114,-1.2224,-1.2291,-1.2265,-1.2064,-1.1899,-1.1866,-1.1396,-1.0995,-1.0995,-1.0801,-1.0593,-1.0593,-1.0593,-1.0593,-1.0593,-1.0593,-1.068,-1.0909,-1.1227,-1.1663,-1.2389,-1.3009,-1.3722,-1.4597,-1.4686,0.0,-1.4355,-1.4762,-1.4563,-1.3487,-1.3707,-1.3806,-1.3594,-1.3576,-1.3801,-1.4283,-1.4256,-1.4787,-1.5973,-1.546,-1.5628,-1.6481,-1.5516,-1.5204,0.0,0.0,0.0,0.0,0.0,0.0,0.0,0.0,0.0,0.0,0.0,0.0,0.0,0.0,0.0,0.3714,0.3751,0.3805,0.4066,0.3678,0.3264,0.3012,0.2707,0.2668,0.3062,0.2982,0.2902,0.282,0.2545,0.184,0.0666,0.047,0.0039,-0.0628,-0.0825,-0.0943,-0.0982,-0.1178,-0.1296,-0.1296,-0.1296,0.0,-0.1296,-0.1296,-0.1296,-0.1296,-0.1296,-0.1282,-0.1222,-0.1441,-0.2002,-0.2978,-0.5201,-0.6064,-0.6064,-0.6219,-0.6416,-0.6525,-0.6577,-0.6793,-0.7252,-0.8699,-0.9155,-0.9243,-0.975,-1.026,0.0,-1.0963,-1.1613,-1.2245,-1.2011,-1.1946,-1.1846,-1.157,-1.1243,-1.0995,-1.0995,-1.0801,-1.0593,-1.0593,-1.0593,-1.0593,-1.0593,-1.0593,-1.0613,-1.0667,-1.0721,-1.1202,-1.2358,-1.2604,-1.3161,-1.4407,-1.4636,-1.4678,-1.4633,-1.4855,-1.4753,-1.4137,-1.3989,-1.3932,-1.3987,-1.4032,-1.4308,-1.4852,-1.4464,-1.5009,-1.6455,-1.5973,-1.6223,-1.7111,-1.6377,-1.5999,0.0,0.0,0.0,0.0,0.0,0.0,0.0,0.0,0.0,0.0,0.0,0.1971,0.2494,0.0,0.3651,0.4137,0.4188,0.4237,0.4465,0.411,0.3612,0.3166,0.3066,0.3172,0.3409,0.3645,0.3682,0.3482,0.3363,0.2817,0.1761,0.1604,0.1331,0.0823,0.0274,-0.0039,-0.0157,-0.0667,-0.0943,-0.0943,-0.0943,-0.1021,-0.11,-0.11,-0.1178,-0.1295,-0.128,-0.1226,-0.125,-0.1726,-0.212,-0.266,-0.4399,-0.5279,-0.5709,-0.6141,-0.63,-0.6296,-0.6318,-0.6577,-0.7038,-0.7978,-0.8475,-0.8841,-0.9669,-0.9847,-0.9921,-1.0551,-1.0917,-1.1144,-1.1321,-1.1185,-1.1115,-1.136,-1.1096,-1.0807,-1.0807,-1.0693,-1.0593,-1.0593,-1.0593,-1.0546,-1.0399,-1.0341,-1.0419,-1.0566,-1.0593,-1.0926,-1.188,-1.2297,-1.2887,-1.3881,-1.4369,-1.4523,-1.431,-1.4269,-1.427,-1.4289,-1.4048,-1.397,-1.4077,-1.4136,-1.4265,-1.4548,-1.4622,-1.5157,-1.6197,-1.6535,-1.6863,-1.72,-1.7338,-1.7189,0.0,0.0,0.0,0.0,0.0,0.0,0.0,0.0468,0.1046,0.1036,0.2008,0.2908,0.3036,0.3707,0.4317,0.4444,0.4688,0.4927,0.5103,0.475,0.4247,0.3655,0.3585,0.3701,0.391,0.4229,0.4304,0.4068,0.4027,0.3675,0.2817,0.2737,0.262,0.2268,0.1526,0.1057,0.0901,0.0235,-0.0118,-0.0118,-0.0196,-0.0275,-0.0353,-0.055,-0.0746,-0.098,-0.1148,-0.1215,-0.1258,-0.1971,-0.2237,-0.2365,-0.3225,-0.3949,-0.4654,-0.567,-0.6141,-0.63,-0.63,-0.6718,-0.7296,-0.7535,-0.7872,-0.8432,-0.9475,-0.9444,-0.919,-1.0067,-1.016,-1.0106,-1.0545,-1.0498,-1.0504,-1.11,-1.0902,-1.0593,-1.0593,-1.0593,-1.0593,-1.0593,-1.0593,-1.0492,-1.0167,-1.0083,-1.018,-1.0392,-1.0419,-1.0712,-1.1505,-1.2081,-1.2744,-1.3593,-1.4097,-1.4249,-1.3938,-1.371,-1.3802,-1.4345,-1.422,-1.4167,-1.4313,-1.4253,-1.4285,-1.4365,-1.4771,-1.5284,-1.5924,-1.6841,-1.7238,-1.7151,-1.7884,-1.7964,-0.0566,-0.0471,-0.0178,-0.0236,0.0247,0.0614,0.0,0.0827,0.1515,0.152,0.215,0.2822,0.3212,0.4103,0.4887,0.5067,0.5696,0.6183,0.6219,0.6172,0.5921,0.537,0.4286,0.3774,0.4295,0.4384,0.454,0.4859,0.4859,0.4501,0.3713,0.3675,0.3285,0.2503,0.219,0.2033,0.2033,0.176,0.1603,0.1603,0.1253,0.1253,0.1564,0.0784,0.0314,0.0078,-0.0803,-0.1227,-0.1289,-0.1337,-0.1381,-0.1526,-0.2311,-0.2705,-0.2978,-0.4577,-0.5631,-0.63,-0.63,-0.6377,-0.6454,-0.6454,-0.6528,-0.6641,-0.7169,-0.7618,-0.807,-0.8529,-0.9482,-1.0298,-1.0141,-1.049,-1.0877,-1.0722,-1.064,-1.0593,-1.0593,-1.0593,-1.0593,-1.0593,-1.0593,-1.0492,-1.0167,-1.0083,-1.004,-0.9842,-0.9809,-1.0331,-1.1842,-1.2089,-1.2713,-1.4222,-1.4147,-1.3966,-1.3882,-1.3874,-1.4069,-1.4613,-1.4789,-1.4945,-1.5071,-1.4837,-1.4929,-1.5348,-1.5067,-1.5374,-1.6325,-1.6459,-1.6759,-1.7185,-1.718,-1.7257,0.0157,0.0264,0.0454,0.0676,0.0963,0.1132,0.0898,0.1517,0.2148,0.2218,0.2837,0.3416,0.3717,0.4142,0.4628,0.5214,0.5593,0.5951,0.6326,0.6247,0.606,0.5954,0.5274,0.4935,0.5246,0.5269,0.5395,0.5676,0.5251,0.4859,0.4501,0.4501,0.4345,0.3954,0.3402,0.3127,0.3127,0.2542,0.2268,0.2229,0.2074,0.2034,0.2072,0.1683,0.1204,0.0613,0.019,-0.0453,-0.1243,-0.121,-0.1219,-0.1271,-0.164,-0.208,-0.2705,-0.438,-0.5237,-0.5631,-0.6141,-0.63,-0.63,-0.63,-0.6238,-0.6273,-0.7017,-0.7118,-0.7133,-0.7739,-0.8187,-0.8479,-0.8701,-0.9248,-0.9792,-1.0177,-1.0425,-1.0593,-1.0593,-1.0593,-1.0593,-1.0593,-1.0452,-1.0207,-0.9913,-0.969,-0.9537,-0.9417,-0.9852,-1.0501,-1.1404,-1.2129,-1.307,-1.435,-1.413,-1.3983,-1.4231,-1.402,-1.4143,-1.4658,-1.4872,-1.5068,-1.5186,-1.5167,-1.5232,-1.545,-1.5624,-1.5918,-1.6356,-1.6687,-1.6812,-1.668,-1.6894,-1.7002,0.0618,0.0802,0.0965,0.1291,0.15,0.1628,0.1508,0.2104,0.2708,0.2717,0.337,0.3961,0.4116,0.433,0.4799,0.5613,0.5866,0.6133,0.6785,0.6696,0.6593,0.6639,0.6478,0.6379,0.6404,0.6221,0.613,0.6209,0.5673,0.5246,0.501,0.5015,0.5018,0.5018,0.4423,0.4146,0.4146,0.3521,0.3209,0.3169,0.309,0.3012,0.2973,0.2579,0.1975,0.1183,0.0572,-0.0302,-0.1231,-0.1215,-0.1224,-0.1226,-0.1288,-0.1649,-0.2354,-0.3795,-0.4613,-0.5082,-0.5709,-0.6103,-0.6293,-0.6248,-0.6122,-0.6132,-0.6963,-0.6793,-0.6463,-0.716,-0.7254,-0.7255,-0.7687,-0.8253,-0.8853,-0.9445,-0.9954,-1.0301,-1.0301,-1.046,-1.0593,-1.0593,-1.0388,-1.012,-0.9746,-0.9573,-0.9397,-0.9237,-1.0094,-1.089,-1.1166,-1.2364,-1.3438,-1.4099,-1.4002,-1.3956,-1.4157,-1.3992,-1.4068,-1.4432,-1.4748,-1.5,-1.5156,-1.5254,-1.5362,-1.541,-1.5997,-1.6312,-1.6312,-1.6922,-1.6978,-1.6567,-1.704,-1.7283,0.0702,0.104,0.1373,0.1317,0.1791,0.2182,0.1778,0.247,0.3096,0.2855,0.3547,0.4187,0.4196,0.4953,0.5786,0.6551,0.6988,0.7438,0.7974,0.8214,0.819,0.78,0.7913,0.7955,0.7747,0.7021,0.6468,0.6217,0.6167,0.5822,0.5029,0.5007,0.5018,0.5018,0.4979,0.4976,0.4976,0.4937,0.4937,0.4937,0.454,0.4543,0.4859,0.3517,0.2579,0.1958,-0.0274,-0.1253,-0.1293,-0.1295,-0.1295,-0.1295,-0.1296,-0.1296,-0.1453,-0.2276,-0.3602,-0.5004,-0.5043,-0.5592,-0.6276,-0.6084,-0.5996,-0.604,-0.636,-0.6272,-0.618,-0.6611,-0.7091,-0.7475,-0.7498,-0.8014,-0.8501,-0.8533,-0.9043,-0.9518,-0.9518,-1.0104,-1.0593,-1.0593,-1.0586,-1.0392,-0.9809,-0.9913,-0.987,-0.9297,-1.0494,-1.1467,-1.1475,-1.2893,-1.3745,-1.3369,-1.3662,-1.3764,-1.336,-1.3671,-1.392,-1.3929,-1.4404,-1.4813,-1.5,-1.5127,-1.5264,-1.541,-1.5997,-1.6312,-1.6312,-1.6922,-1.7202,-1.7185,-1.7722,-1.8225,0.1546,0.1753,0.1934,0.2271,0.2531,0.2669,0.2576,0.2836,0.3153,0.3401,0.3713,0.4066,0.4529,0.4862,0.5426,0.6517,0.692,0.7338,0.799,0.8028,0.7938,0.783,0.7631,0.7584,0.7792,0.744,0.7397,0.7814,0.7359,0.6957,0.6676,0.6644,0.6528,0.6286,0.5825,0.5595,0.5595,0.521,0.5018,0.5018,0.4859,0.4859,0.4979,0.4501,0.4192,0.3964,0.2663,0.1763,0.11,-0.0589,-0.1296,-0.1296,-0.1296,-0.1296,-0.1335,-0.1609,-0.2406,-0.3486,-0.4627,-0.5493,-0.6098,-0.601,-0.5898,-0.576,-0.5951,-0.5998,-0.6007,-0.6301,-0.6556,-0.6778,-0.6778,-0.7293,-0.7847,-0.7847,-0.8683,-0.9486,-0.9486,-1.0072,-1.0593,-1.0593,-1.0432,-1.02,-1.0007,-1.0271,-1.0784,-1.1662,-1.1844,-1.2204,-1.2985,-1.3807,-1.4249,-1.4112,-1.3974,-1.3856,-1.3727,-1.3571,-1.3635,-1.3892,-1.4231,-1.4543,-1.4785,-1.5137,-1.5489,-1.5845,-1.5758,-1.5892,-1.6312,-1.6112,-1.5997,-1.6007,-1.6523,-1.6981,0.226,0.2515,0.2823,0.3174,0.3265,0.3267,0.331,0.3329,0.3435,0.3855,0.4052,0.4306,0.4804,0.4954,0.5365,0.6441,0.678,0.7163,0.7873,0.799,0.7976,0.793,0.775,0.7712,0.7902,0.7839,0.8084,0.867,0.8212,0.7932,0.7932,0.794,0.7624,0.6942,0.6479,0.6131,0.5902,0.5518,0.521,0.5018,0.5018,0.5018,0.5018,0.5018,0.4982,0.4948,0.3802,0.302,0.2318,-0.0236,-0.1296,-0.1296,-0.1296,-0.1296,-0.1296,-0.1296,-0.1632,-0.2302,-0.4005,-0.504,-0.5681,-0.5852,-0.582,-0.5678,-0.5703,-0.5803,-0.5954,-0.6148,-0.628,-0.6387,-0.6387,-0.6741,-0.7167,-0.7428,-0.8328,-0.9198,-0.9454,-1.0072,-1.0593,-1.0593,-1.0439,-1.0241,-1.0134,-1.0525,-1.1311,-1.268,-1.273,-1.2915,-1.3777,-1.4121,-1.4286,-1.4286,-1.4185,-1.4047,-1.392,-1.3812,-1.3737,-1.369,-1.415,-1.4517,-1.4811,-1.5305,-1.5828,-1.6418,-1.6368,-1.6557,-1.695,-1.6557,-1.6441,-1.6628,-1.7144,-1.7583,0.2827,0.3296,0.388,0.3902,0.3902,0.3902,0.3902,0.3902,0.3969,0.4164,0.4524,0.4839,0.5061,0.5271,0.5665,0.6379,0.663,0.6988,0.7734,0.8146,0.8325,0.8153,0.8269,0.8307,0.8134,0.8274,0.8479,0.8678,0.8699,0.8708,0.8708,0.8698,0.8184,0.7019,0.698,0.6633,0.6015,0.5938,0.5595,0.5018,0.5018,0.5018,0.5018,0.5018,0.4979,0.4859,0.3326,0.2584,0.2314,-0.0118,-0.1178,-0.1296,-0.1296,-0.1296,-0.1296,-0.1296,-0.1294,-0.1525,-0.3166,-0.4265,-0.5058,-0.5557,-0.5757,-0.576,-0.5638,-0.5752,-0.5954,-0.6148,-0.628,-0.6387,-0.6387,-0.6416,-0.6646,-0.733,-0.8037,-0.8716,-0.9358,-1.0072,-1.0593,-1.0593,-1.0593,-1.053,-1.0279,-1.0739,-1.1496,-1.2464,-1.313,-1.3651,-1.3908,-1.3938,-1.3938,-1.3967,-1.4288,-1.4343,-1.4024,-1.4326,-1.4228,-1.3478,-1.4171,-1.4733,-1.5054,-1.5602,-1.6252,-1.7028,-1.771,-1.8066,-1.8093,-1.8066,-1.829,-1.8714,-1.9326,-1.9831,0.3173,0.3372,0.3593,0.3836,0.3902,0.3902,0.3902,0.3902,0.398,0.4288,0.4434,0.4646,0.5166,0.5533,0.5944,0.6417,0.7061,0.7632,0.7976,0.8231,0.8382,0.8325,0.8226,0.8141,0.812,0.8274,0.8401,0.8401,0.8595,0.8713,0.8713,0.8684,0.8565,0.8241,0.7821,0.7476,0.7322,0.6363,0.5595,0.5018,0.5018,0.5018,0.5018,0.5018,0.4784,0.4392,0.4389,0.3643,0.2431,0.1803,0.0431,-0.1296,-0.1296,-0.1296,-0.1296,-0.1296,-0.1281,-0.1455,-0.2493,-0.3656,-0.4728,-0.4876,-0.5163,-0.5528,-0.5575,-0.5752,-0.5954,-0.6148,-0.628,-0.6387,-0.6387,-0.6811,-0.726,-0.7456,-0.8393,-0.9294,-0.9454,-1.0072,-1.0593,-1.0593,-1.0593,-1.0874,-1.1729,-1.202,-1.2568,-1.3812,-1.4139,-1.4282,-1.4339,-1.435,-1.4517,-1.4965,-1.4438,-1.4393,-1.5182,-1.4304,-1.4113,-1.5036,-1.4701,-1.4908,-1.5933,-1.596,-1.6465,-1.7506,-1.7363,-1.7556,-1.8093,-1.7644,-1.749,-1.7623,-1.8121,-1.8629,0.3485,0.3555,0.3704,0.4034,0.4126,0.4166,0.4346,0.439,0.4455,0.4736,0.4732,0.4799,0.5227,0.5628,0.6015,0.6318,0.7021,0.7645,0.7944,0.8127,0.8297,0.8392,0.8373,0.8354,0.8354,0.8463,0.8533,0.8496,0.86,0.8703,0.8703,0.8703,0.8703,0.8703,0.8356,0.805,0.7821,0.6556,0.5747,0.5401,0.5132,0.5018,0.5018,0.5018,0.4823,0.4548,0.4704,0.4309,0.3565,0.3057,0.1528,-0.051,-0.1099,-0.1295,-0.1296,-0.1296,-0.1286,-0.135,-0.1837,-0.2676,-0.3696,-0.4431,-0.5141,-0.5675,-0.5672,-0.5777,-0.5892,-0.5993,-0.6174,-0.6317,-0.6317,-0.6675,-0.7167,-0.7782,-0.8522,-0.923,-0.9843,-1.0301,-1.0593,-1.0593,-1.0593,-1.0902,-1.1872,-1.2297,-1.2856,-1.3881,-1.4297,-1.4515,-1.4515,-1.4515,-1.4625,-1.4961,-1.4743,-1.4821,-1.5519,-1.5073,-1.5021,-1.5662,-1.5235,-1.5326,-1.6089,-1.6247,-1.6755,-1.7718,-1.7784,-1.8034,-1.8483,-1.7902,-1.7562,-1.7529,-1.7802,-1.8156,0.3645,0.3712,0.3902,0.4254,0.4368,0.4495,0.4832,0.4919,0.4993,0.5212,0.5085,0.4993,0.5212,0.5609,0.5956,0.6167,0.6776,0.737,0.7759,0.7987,0.816,0.8377,0.8529,0.8642,0.8699,0.8675,0.8675,0.8699,0.8675,0.8675,0.8699,0.8703,0.8703,0.8703,0.8703,0.8394,0.7821,0.663,0.5977,0.5899,0.5362,0.5093,0.5018,0.5093,0.5054,0.4898,0.4621,0.4623,0.4781,0.3839,0.2348,0.0587,-0.0666,-0.1216,-0.1296,-0.1296,-0.1296,-0.1296,-0.1296,-0.1665,-0.2428,-0.4075,-0.515,-0.5821,-0.5784,-0.579,-0.5783,-0.5796,-0.5993,-0.621,-0.621,-0.6379,-0.6872,-0.8199,-0.8554,-0.9005,-1.0333,-1.0593,-1.0593,-1.0593,-1.0649,-1.0902,-1.1545,-1.2182,-1.2856,-1.3541,-1.4139,-1.4545,-1.4595,-1.4625,-1.4654,-1.4734,-1.5216,-1.5575,-1.5748,-1.6212,-1.6326,-1.5938,-1.5857,-1.5913,-1.6093,-1.6547,-1.7134,-1.789,-1.8481,-1.8839,-1.8987,-1.8483,-1.8157,-1.8065,-1.8025,-1.8197,0.3398,0.3458,0.3575,0.3902,0.4188,0.4412,0.4478,0.4499,0.4596,0.4988,0.4767,0.4618,0.4988,0.5514,0.5956,0.6167,0.6903,0.7541,0.7783,0.7987,0.816,0.8377,0.8274,0.8325,0.867,0.8552,0.8524,0.8689,0.8548,0.8529,0.8689,0.8703,0.8703,0.8703,0.8703,0.8394,0.7821,0.7092,0.644,0.5902,0.5786,0.5479,0.5018,0.5518,0.5282,0.4501,0.4779,0.4545,0.4036,0.4151,0.3013,0.1097,0.0157,-0.0666,-0.1296,-0.1296,-0.1296,-0.1296,-0.1296,-0.1369,-0.1707,-0.323,-0.4242,-0.4951,-0.546,-0.5707,-0.5792,-0.5661,-0.5903,-0.621,-0.621,-0.6736,-0.7521,-0.8296,-0.8941,-0.9556,-1.0428,-1.0593,-1.0593,-1.0593,-1.0989,-1.1545,-1.2205,-1.2887,-1.3541,-1.4228,-1.4417,-1.4684,-1.5186,-1.5245,-1.5439,-1.594,-1.6083,-1.6539,-1.7551,-1.6933,-1.6674,-1.7081,-1.6695,-1.6655,-1.7128,-1.7219,-1.7644,-1.8445,-1.8578,-1.8747,-1.8987,-1.8881,-1.8836,-1.8797,-1.8313,-1.8345,0.2715,0.277,0.2882,0.3483,0.3774,0.3924,0.41,0.4144,0.4276,0.4784,0.4631,0.4565,0.5072,0.5563,0.5944,0.6022,0.6647,0.7262,0.7603,0.7826,0.8004,0.8207,0.824,0.8283,0.8373,0.8292,0.8274,0.8373,0.8288,0.8368,0.8685,0.8703,0.8703,0.8703,0.8703,0.8546,0.828,0.7668,0.7207,0.6899,0.6553,0.6096,0.5479,0.5786,0.5476,0.474,0.4898,0.4781,0.4428,0.4623,0.3561,0.1722,0.1291,0.0274,-0.0943,-0.1061,-0.11,-0.11,-0.1257,-0.1295,-0.1488,-0.263,-0.3817,-0.4849,-0.5092,-0.547,-0.5769,-0.5651,-0.5751,-0.5914,-0.6017,-0.6441,-0.7031,-0.7809,-0.8748,-0.9709,-1.0428,-1.0593,-1.0593,-1.0593,-1.1083,-1.1694,-1.2389,-1.307,-1.3731,-1.4387,-1.4515,-1.4595,-1.4872,-1.5468,-1.5968,-1.6283,-1.6585,-1.7006,-1.7584,-1.7465,-1.745,-1.7745,-1.7301,-1.7117,-1.7396,-1.7407,-1.7601,-1.8067,-1.8431,-1.8706,-1.8893,-1.8972,-1.8854,-1.8509,-1.8228,-1.8191,0.2023,0.2107,0.2255,0.2948,0.3262,0.3483,0.377,0.3836,0.399,0.4583,0.4495,0.4495,0.5041,0.5486,0.5802,0.5892,0.6337,0.6845,0.7361,0.7612,0.7826,0.8025,0.8165,0.8217,0.8129,0.8077,0.8068,0.811,0.8115,0.8245,0.8618,0.8637,0.8656,0.8699,0.8703,0.8703,0.8703,0.8089,0.7783,0.7783,0.7322,0.6668,0.5902,0.6054,0.5709,0.5018,0.5018,0.5018,0.5018,0.5018,0.3876,0.2189,0.2189,0.1057,-0.0628,-0.0786,-0.0904,-0.1021,-0.1218,-0.1292,-0.1364,-0.2025,-0.3352,-0.4743,-0.4753,-0.5234,-0.5766,-0.5589,-0.5585,-0.565,-0.5785,-0.5984,-0.6346,-0.7223,-0.8484,-0.962,-1.0231,-1.0491,-1.0593,-1.0593,-1.1083,-1.1694,-1.2389,-1.307,-1.3731,-1.4387,-1.4515,-1.4595,-1.4852,-1.5719,-1.6397,-1.6652,-1.7101,-1.7407,-1.7407,-1.7815,-1.8066,-1.7962,-1.7702,-1.7484,-1.7407,-1.7537,-1.7658,-1.7775,-1.8307,-1.8679,-1.8798,-1.8919,-1.8747,-1.8282,-1.8147,-1.8119,0.1546,0.1794,0.2121,0.2188,0.2815,0.3439,0.3587,0.3631,0.3763,0.425,0.4228,0.4246,0.4596,0.5038,0.5467,0.5845,0.6097,0.6468,0.7133,0.7403,0.7617,0.7816,0.7859,0.7935,0.8101,0.7949,0.7916,0.8101,0.8115,0.8179,0.8415,0.8429,0.8514,0.8694,0.8703,0.8703,0.8703,0.8089,0.7783,0.7783,0.7744,0.7092,0.5941,0.6518,0.6135,0.5018,0.5018,0.5018,0.5018,0.5018,0.3876,0.2189,0.2189,0.1057,-0.0589,-0.0628,-0.0904,-0.1257,-0.1296,-0.1278,-0.1216,-0.1292,-0.25,-0.3992,-0.4475,-0.5165,-0.5742,-0.5494,-0.5498,-0.5617,-0.5617,-0.5785,-0.6148,-0.7018,-0.8291,-0.9364,-0.9556,-1.0136,-1.0593,-1.0593,-1.1083,-1.1694,-1.2389,-1.307,-1.3731,-1.4387,-1.4515,-1.4911,-1.5997,-1.6226,-1.6708,-1.7826,-1.7975,-1.803,-1.803,-1.8057,-1.7917,-1.7499,-1.7813,-1.7836,-1.7419,-1.7989,-1.8325,-1.8325,-1.8521,-1.8679,-1.8798,-1.8798,-1.8839,-1.8907,-1.8348,-1.8357,0.1079,0.1298,0.1544,0.1744,0.2326,0.2882,0.2926,0.3145,0.352,0.4071,0.4005,0.4071,0.4727,0.4961,0.5198,0.5655,0.5876,0.6209,0.671,0.7104,0.7351,0.7432,0.766,0.7792,0.7745,0.7669,0.765,0.7731,0.774,0.7835,0.8018,0.8141,0.8245,0.8325,0.833,0.833,0.833,0.8231,0.8083,0.8002,0.8242,0.7651,0.6345,0.6705,0.6212,0.5018,0.5018,0.5018,0.5018,0.5018,0.3954,0.2386,0.2386,0.1292,-0.0236,-0.0393,-0.055,-0.0744,-0.0966,-0.1031,-0.1058,-0.1153,-0.2306,-0.3645,-0.3768,-0.4361,-0.5066,-0.5319,-0.5425,-0.5488,-0.5583,-0.6042,-0.6699,-0.7507,-0.8425,-0.9274,-0.9849,-1.0206,-1.0466,-1.0593,-1.1083,-1.1694,-1.2389,-1.307,-1.3731,-1.4387,-1.4515,-1.4675,-1.5157,-1.5864,-1.6482,-1.6961,-1.7678,-1.8084,-1.8084,-1.8084,-1.802,-1.7825,-1.8008,-1.802,-1.7813,-1.8089,-1.8286,-1.8394,-1.8449,-1.8583,-1.8798,-1.8798,-1.8866,-1.8987,-1.8762,-1.8927,0.0695,0.0919,0.1164,0.1389,0.1969,0.2504,0.2551,0.2929,0.3391,0.3854,0.3854,0.3983,0.4744,0.4893,0.5076,0.5595,0.5804,0.6031,0.644,0.6842,0.7119,0.718,0.7503,0.766,0.7503,0.7489,0.7489,0.7489,0.7489,0.7555,0.7712,0.7854,0.7987,0.811,0.8115,0.8115,0.8115,0.8231,0.8231,0.8115,0.8377,0.781,0.6555,0.6705,0.6104,0.4925,0.4925,0.4944,0.5018,0.5018,0.3992,0.2503,0.2503,0.1488,0.0,-0.0157,-0.0236,-0.0352,-0.0611,-0.0791,-0.0932,-0.1054,-0.1861,-0.2868,-0.3159,-0.3988,-0.4895,-0.5302,-0.5395,-0.5428,-0.5521,-0.6141,-0.6892,-0.7479,-0.8296,-0.9107,-0.9754,-1.0079,-1.0244,-1.0403,-1.0958,-1.1663,-1.2328,-1.3039,-1.3731,-1.4387,-1.4654,-1.4823,-1.502,-1.5921,-1.6641,-1.6821,-1.7595,-1.8084,-1.8084,-1.8084,-1.8084,-1.8084,-1.8084,-1.8084,-1.8084,-1.8166,-1.8232,-1.8313,-1.8367,-1.8503,-1.8691,-1.8718,-1.8896,-1.9174,-1.9227,-1.9396,0.0427,0.074,0.1097,0.1097,0.1811,0.2529,0.2662,0.3065,0.3442,0.3578,0.3755,0.4034,0.4508,0.4758,0.5123,0.579,0.59,0.6031,0.644,0.669,0.6901,0.7166,0.737,0.7493,0.7489,0.7489,0.7489,0.7489,0.7489,0.7489,0.7493,0.7493,0.7688,0.8101,0.8115,0.8115,0.8115,0.8115,0.8115,0.8115,0.812,0.7517,0.6416,0.6416,0.5815,0.4798,0.4798,0.4866,0.5018,0.5018,0.3992,0.2503,0.2503,0.1488,0.0,0.0,-0.0118,-0.0313,-0.0305,-0.0559,-0.0907,-0.0919,-0.0998,-0.1379,-0.2783,-0.4306,-0.5559,-0.544,-0.5395,-0.5395,-0.5395,-0.5914,-0.6465,-0.6671,-0.7739,-0.8775,-0.8985,-0.9536,-0.9983,-1.0015,-1.0706,-1.1514,-1.2182,-1.2978,-1.3731,-1.4387,-1.502,-1.5604,-1.6187,-1.681,-1.7407,-1.803,-1.8084,-1.8084,-1.8084,-1.8084,-1.8084,-1.8084,-1.8084,-1.8084,-1.8084,-1.8286,-1.8313,-1.8123,-1.8313,-1.8394,-1.8394,-1.8545,-1.8939,-1.9598,-1.9725,-1.9634,0.0494,0.0651,0.0808,0.0718,0.1232,0.1768,0.1791,0.2344,0.2898,0.3078,0.3536,0.3977,0.4207,0.4577,0.5,0.5551,0.5791,0.5979,0.6257,0.66,0.6815,0.6911,0.7253,0.7489,0.7489,0.7489,0.7489,0.7489,0.7489,0.7489,0.7489,0.7489,0.755,0.7683,0.7688,0.7688,0.7688,0.7835,0.7835,0.7693,0.7978,0.7438,0.6205,0.6324,0.5791,0.4747,0.4747,0.4779,0.4855,0.4855,0.3932,0.2503,0.2503,0.1473,0.0,0.0,-0.0039,-0.0114,-0.026,-0.0367,-0.0543,-0.0762,-0.1185,-0.1744,-0.228,-0.3169,-0.4167,-0.5139,-0.5395,-0.5395,-0.5395,-0.6243,-0.7088,-0.7158,-0.8106,-0.9082,-0.9468,-0.958,-0.9687,-0.9945,-1.0706,-1.1514,-1.2182,-1.2887,-1.361,-1.4387,-1.4586,-1.4902,-1.5613,-1.6226,-1.681,-1.7407,-1.7854,-1.8084,-1.8084,-1.8084,-1.8084,-1.8084,-1.8084,-1.8084,-1.8084,-1.8166,-1.822,-1.8313,-1.8367,-1.8503,-1.8664,-1.8625,-1.8939,-1.9622,-2.0493,-2.0831,0.0607,0.0629,0.0674,0.0607,0.0987,0.1411,0.1411,0.2077,0.2754,0.2934,0.3447,0.3954,0.4272,0.4738,0.5225,0.5547,0.5946,0.6233,0.6313,0.6539,0.676,0.692,0.7289,0.7489,0.7489,0.7489,0.7489,0.7489,0.7489,0.7489,0.7489,0.7489,0.7489,0.7489,0.7489,0.7489,0.7489,0.7626,0.7626,0.7493,0.7552,0.7022,0.6037,0.5935,0.5454,0.4618,0.4618,0.469,0.0,0.4475,0.3581,0.2397,0.2145,0.1203,0.0,0.0,0.0,0.0,-0.0148,-0.0219,-0.0326,-0.059,-0.1255,-0.2045,-0.2414,-0.3015,-0.3851,-0.5057,-0.5395,-0.5395,-0.5395,-0.621,-0.7088,-0.7354,-0.8085,-0.8895,-0.9545,-0.9481,-0.9395,-0.9742,-1.0516,-1.132,-1.1989,-1.2704,-1.345,-1.4198,-1.4497,-1.4813,-1.5264,-1.6083,-1.6698,-1.6838,-1.7595,-1.8002,-1.7788,-1.7963,-1.8084,-1.8084,-1.8084,-1.8084,-1.8084,-1.8084,-1.8166,-1.8286,-1.8286,-1.8422,-1.8637,-1.9081,-1.9519,-2.0029,-2.117,-2.1541,0.0,0.07,0.0701,0.0703,0.1061,0.1418,0.1418,0.2154,0.0,0.3059,0.3502,0.4006,0.4566,0.5178,0.5649,0.5744,0.6299,0.6646,0.6473,0.6472,0.6694,0.7224,0.7407,0.7521,0.7554,0.7521,0.7489,0.7489,0.7489,0.7489,0.7489,0.7489,0.7489,0.7489,0.7474,0.747,0.747,0.747,0.747,0.7405,0.6915,0.6367,0.5822,0.5322,0.4892,0.4492,0.4492,0.4566,0.4626,0.388,0.3095,0.224,0.1551,0.0782,0.0,0.0,0.0,0.0,0.0,-0.0109,-0.029,-0.0423,-0.1166,-0.2147,-0.2882,-0.3651,-0.4456,-0.5193,-0.5395,-0.5395,-0.5395,-0.5947,-0.6629,-0.719,-0.7768,-0.8397,-0.9259,-0.9262,-0.9179,-0.9462,-1.0193,-1.1017,-1.1679,-1.2451,-1.323,-1.3881,-1.4647,-1.5147,-1.5255,-1.6358,-1.695,-1.6482,-1.7429,-1.7881,-1.7313,-1.7788,-1.8084,-1.8084,-1.8084,-1.8084,-1.8084,-1.8139,-1.8139,-1.8084,-1.8139,-1.8247,-1.8394,-1.9759,-2.0471,-2.0646,-2.1704,-2.1819,0.0777,0.0,0.0783,0.0781,0.1129,0.1479,0.0,0.1847,0.2386,0.2981,0.376,0.4334,0.4315,0.5104,0.568,0.5464,0.6153,0.6509,0.596,0.6181,0.6853,0.8058,0.778,0.7717,0.8199,0.7814,0.7489,0.7489,0.7489,0.7489,0.7489,0.7489,0.7489,0.7489,0.7342,0.7261,0.7261,0.7261,0.7071,0.6659,0.6531,0.6056,0.5289,0.5153,0.4809,0.4341,0.4341,0.4495,0.4617,0.3805,0.3038,0.2365,0.1607,0.0763,0.0,0.0,0.0,0.0,0.0,-0.0036,-0.0108,-0.0276,-0.0677,-0.1245,-0.198,-0.3182,-0.4456,-0.5193,-0.5395,-0.5395,-0.5395,-0.6276,-0.7088,-0.6728,-0.7763,-0.8827,-0.8762,-0.8937,-0.9179,-0.9462,-1.0193,-1.1017,-1.1679,-1.2389,-1.3108,-1.3881,-1.416,-1.4667,-1.5757,-1.6244,-1.6821,-1.7595,-1.7936,-1.8057,-1.7909,-1.803,-1.8084,-1.8084,-1.8084,-1.8084,-1.8084,-1.8437,-1.8476,-1.8111,-1.8545,-1.8655,-1.8405,-1.9849,-2.0636,-2.0771,-2.1759,-2.2092,0.1382,0.1166,0.0909,0.1234,0.1408,0.159,0.1928,0.2257,0.2628,0.3013,0.3786,0.4407,0.458,0.5206,0.5712,0.5704,0.6179,0.6595,0.6692,0.7088,0.7649,0.8409,0.8166,0.7977,0.8037,0.7717,0.7489,0.7489,0.7489,0.7489,0.7489,0.7489,0.7446,0.7356,0.7247,0.719,0.719,0.719,0.6939,0.6409,0.6237,0.5799,0.5087,0.4858,0.4564,0.43,0.43,0.4374,0.4423,0.3268,0.2614,0.2196,0.1114,0.0412,0.0,0.0,0.0,0.0,0.0,-0.0072,-0.0142,-0.0273,-0.0472,-0.0808,-0.1644,-0.2514,-0.3449,-0.4589,-0.4891,-0.4957,-0.5329,-0.5951,-0.647,-0.64,-0.7318,-0.8236,-0.8468,-0.8811,-0.9179,-0.9462,-1.0136,-1.0874,-1.1547,-1.2235,-1.2917,-1.367,-1.4142,-1.4688,-1.5458,-1.6234,-1.6866,-1.7224,-1.7772,-1.7991,-1.7705,-1.7936,-1.8084,-1.8084,-1.8084,-1.8193,-1.8422,-1.8464,-1.8464,-1.841,-1.9,-1.9147,-1.8825,-2.0081,-2.0704,-2.0718,-2.1735,-2.2188,0.2164,0.1825,0.1365,0.1995,0.1975,0.1975,0.2546,0.2975,0.323,0.323,0.384,0.4488,0.4921,0.547,0.5886,0.6101,0.63,0.6731,0.7658,0.8059,0.8296,0.849,0.8425,0.8166,0.7684,0.7554,0.7479,0.7446,0.7446,0.7432,0.7399,0.7399,0.7318,0.7147,0.7047,0.7028,0.7095,0.7033,0.6737,0.6241,0.5879,0.5446,0.4957,0.4498,0.43,0.43,0.43,0.4244,0.4064,0.2666,0.2068,0.1834,0.0505,0.0,0.0,0.0,0.0,0.0,0.0,-0.0105,-0.0243,-0.0238,-0.0337,-0.0606,-0.1411,-0.1678,-0.2045,-0.3651,-0.4187,-0.4453,-0.5193,-0.5557,-0.5818,-0.6301,-0.6934,-0.7655,-0.835,-0.884,-0.9258,-0.9595,-1.011,-1.0762,-1.1516,-1.2135,-1.2726,-1.3411,-1.4273,-1.4884,-1.5021,-1.6262,-1.6978,-1.6624,-1.7484,-1.7881,-1.7379,-1.787,-1.822,-1.822,-1.822,-1.8437,-1.8946,-1.8491,-1.8437,-1.8972,-1.9483,-1.9586,-1.9368,-2.0318,-2.0996,-2.1424,-2.1965,-2.2207,0.2729,0.2779,0.2699,0.3132,0.3276,0.3234,0.3061,0.3468,0.3862,0.3862,0.4532,0.5023,0.4672,0.5832,0.6661,0.5968,0.622,0.668,0.7233,0.7118,0.7358,0.8393,0.8004,0.7847,0.8296,0.7847,0.7422,0.7251,0.7232,0.7161,0.6925,0.6915,0.6901,0.6873,0.6361,0.6272,0.6596,0.6272,0.5885,0.5468,0.4999,0.4671,0.4431,0.4334,0.43,0.43,0.43,0.4014,0.3474,0.2512,0.1844,0.1341,0.0364,0.0,0.0,0.0,0.0,0.0,0.0,-0.0035,-0.0034,-0.0034,-0.0169,-0.0371,-0.0505,-0.0741,-0.1279,-0.2714,-0.3682,-0.4453,-0.5193,-0.6243,-0.6961,-0.6498,-0.7785,-0.9009,-0.8581,-0.8988,-0.9621,-1.0225,-1.0421,-1.0881,-1.2143,-1.242,-1.2726,-1.3411,-1.4112,-1.4844,-1.5555,-1.6358,-1.7112,-1.7744,-1.8002,-1.8057,-1.7963,-1.841,-1.8691,-1.8691,-1.8691,-1.904,-1.9773,-1.9093,-1.904,-1.9786,-1.9784,-1.9731,-1.9638,-2.0342,-2.221,-2.5054,-2.3085,-2.2191,0.3238,0.3612,0.3958,0.4539,0.439,0.4151,0.4352,0.4747,0.4968,0.458,0.5193,0.5684,0.5366,0.6207,0.6841,0.6553,0.6703,0.7076,0.7669,0.7708,0.7874,0.8425,0.8127,0.7863,0.78,0.738,0.7092,0.7002,0.6993,0.6829,0.6491,0.6487,0.6318,0.5948,0.5913,0.593,0.6002,0.5574,0.5345,0.5309,0.4927,0.4603,0.43,0.43,0.43,0.43,0.43,0.3922,0.3245,0.2427,0.1758,0.1117,0.0314,0.0,0.0,0.0,0.0,0.0,0.0,0.0,0.0,0.0,-0.0067,-0.0169,-0.027,-0.074,-0.1478,-0.2579,-0.3282,-0.4051,-0.5547,-0.6404,-0.6859,-0.6924,-0.7967,-0.8882,-0.8554,-0.9017,-0.9702,-1.0358,-1.0787,-1.1337,-1.232,-1.2787,-1.313,-1.345,-1.4124,-1.4884,-1.5699,-1.6454,-1.7196,-1.8002,-1.834,-1.8476,-1.8476,-1.8866,-1.9105,-1.9105,-1.933,-1.9526,-1.9656,-2.006,-2.0315,-2.0486,-2.0993,-2.1227,-2.1146,-2.1546,-2.2818,-2.492,-2.4427,-2.4204,0.3819,0.4422,0.5068,0.5736,0.5366,0.4984,0.5517,0.59,0.5958,0.5303,0.5924,0.6494,0.612,0.6499,0.6978,0.7338,0.7356,0.7489,0.7965,0.8153,0.8264,0.8264,0.8096,0.7778,0.7252,0.6944,0.6773,0.6721,0.6721,0.6545,0.6083,0.6049,0.581,0.5298,0.5429,0.553,0.5595,0.4928,0.4823,0.525,0.4846,0.4521,0.4259,0.4259,0.4273,0.43,0.43,0.3792,0.2915,0.2347,0.1612,0.0774,0.0237,0.0,0.0,0.0,0.0,0.0,0.0,0.0,0.0,0.0,0.0,-0.0067,-0.0404,-0.0975,-0.1744,-0.2746,-0.3347,-0.4046,-0.5738,-0.64,-0.6761,-0.7288,-0.8069,-0.8721,-0.8721,-0.9151,-0.9734,-1.0573,-1.1149,-1.1757,-1.2604,-1.3169,-1.3511,-1.3511,-1.4213,-1.4972,-1.5623,-1.6436,-1.7207,-1.792,-1.841,-1.8786,-1.9052,-1.9356,-1.9591,-1.9707,-1.9875,-1.9901,-1.9694,-2.0758,-2.1263,-2.1052,-2.2043,-2.2562,-2.2517,-2.2812,-2.3337,-2.4108,-2.5049,-2.5617,0.4618,0.5243,0.5932,0.6414,0.6207,0.5927,0.6031,0.6308,0.6445,0.6014,0.691,0.7441,0.6398,0.6685,0.7339,0.8089,0.7906,0.7639,0.7574,0.7577,0.7587,0.7587,0.7409,0.7252,0.719,0.6944,0.6712,0.6539,0.6525,0.627,0.5673,0.5633,0.5629,0.5584,0.475,0.4743,0.5595,0.4328,0.4182,0.5111,0.427,0.3964,0.4097,0.4097,0.4191,0.43,0.43,0.3491,0.2179,0.2114,0.131,0.0068,0.0035,0.0,0.0,0.0,0.0,0.0,0.0,0.0,0.0,0.0,0.0,-0.0135,-0.0841,-0.1176,-0.1613,-0.3052,-0.4181,-0.5041,-0.5388,-0.6408,-0.7354,-0.7386,-0.8431,-0.9414,-0.9414,-0.9452,-0.9888,-1.118,-1.1485,-1.1919,-1.3199,-1.3472,-1.3511,-1.3511,-1.4291,-1.503,-1.5381,-1.6257,-1.7032,-1.7656,-1.81,-1.875,-1.9811,-1.994,-2.0131,-2.0574,-2.0207,-2.0182,-2.0599,-2.0836,-2.1105,-2.1459,-2.2393,-2.2883,-2.2857,-2.3618,-2.4037,-2.4107,-2.4186,-2.482,0.492,0.5664,0.6551,0.6891,0.7333,0.7506,0.6869,0.718,0.7507,0.7129,0.7508,0.79,0.7931,0.7439,0.7328,0.8224,0.7844,0.7426,0.7324,0.7163,0.713,0.7289,0.6974,0.6771,0.6771,0.6558,0.629,0.5956,0.5952,0.558,0.4763,0.4732,0.4625,0.4356,0.4267,0.4374,0.4732,0.4236,0.4154,0.4545,0.4089,0.3955,0.4089,0.4197,0.4257,0.4267,0.3825,0.305,0.2079,0.1644,0.0908,0.0,0.0,0.0,0.0,0.0,0.0,-0.0067,-0.0539,-0.0673,-0.074,-0.1176,-0.131,-0.1344,-0.1646,-0.2181,-0.2883,-0.3846,-0.4908,-0.5837,-0.6367,-0.7284,-0.8199,-0.8598,-0.9119,-0.9516,-0.9516,-0.9516,-0.9888,-1.1236,-1.1516,-1.1919,-1.326,-1.3511,-1.3511,-1.3511,-1.4052,-1.4686,-1.5323,-1.597,-1.6786,-1.7963,-1.8845,-1.9657,-2.0372,-2.0435,-2.0636,-2.1106,-2.0686,-2.0666,-2.1172,-2.1602,-2.2069,-2.2543,-2.3271,-2.3634,-2.3634,-2.3965,-2.4115,-2.4108,-2.4101,-2.4741,0.4902,0.5848,0.6905,0.6931,0.7784,0.8387,0.7591,0.8046,0.847,0.7969,0.799,0.8265,0.8773,0.8126,0.7678,0.8201,0.7759,0.7265,0.7092,0.6998,0.7002,0.7171,0.6847,0.6605,0.6605,0.6248,0.59,0.5622,0.5454,0.5038,0.4233,0.4205,0.407,0.3799,0.3935,0.407,0.4205,0.407,0.4018,0.4021,0.3928,0.392,0.4007,0.4129,0.4205,0.421,0.3507,0.2781,0.2047,0.1377,0.0673,0.0,0.0,0.0,0.0,0.0,-0.0135,-0.0404,-0.0942,-0.1244,-0.1478,-0.1946,-0.2114,-0.2147,-0.238,-0.2883,-0.3551,-0.4251,-0.5345,-0.64,-0.6953,-0.7804,-0.8619,-0.9081,-0.935,-0.9516,-0.9516,-0.967,-1.0136,-1.1267,-1.1664,-1.2166,-1.3321,-1.3511,-1.3511,-1.3511,-1.4031,-1.4627,-1.5186,-1.5797,-1.6758,-1.8213,-1.9345,-2.0182,-2.0649,-2.0699,-2.0898,-2.1375,-2.1106,-2.1095,-2.1441,-2.222,-2.2734,-2.2949,-2.372,-2.4083,-2.4083,-2.4083,-2.4083,-2.4112,-2.411,-2.4754,0.4637,0.5785,0.6996,0.6538,0.7425,0.8345,0.815,0.8817,0.9241,0.8378,0.8421,0.86,0.86,0.86,0.8478,0.8074,0.7661,0.7245,0.6853,0.7021,0.718,0.7185,0.6944,0.6787,0.6787,0.6072,0.5595,0.5595,0.5148,0.4677,0.4205,0.4205,0.4205,0.4205,0.3802,0.3802,0.4177,0.3799,0.3613,0.3613,0.3728,0.3812,0.3818,0.3879,0.3973,0.4062,0.3445,0.2781,0.2047,0.1376,0.0673,0.0,0.0,0.0,0.0,0.0,-0.0471,-0.1109,-0.1109,-0.1544,-0.2114,-0.2114,-0.2114,-0.2248,-0.2982,-0.3215,-0.3384,-0.4097,-0.5481,-0.6752,-0.6892,-0.7707,-0.8522,-0.8522,-0.9017,-0.9516,-0.9516,-1.0047,-1.0699,-1.1392,-1.2043,-1.2726,-1.3381,-1.3511,-1.3511,-1.3511,-1.4291,-1.4922,-1.4922,-1.5817,-1.6948,-1.8363,-1.9423,-2.0182,-2.0649,-2.0699,-2.0923,-2.1375,-2.1423,-2.1423,-2.1412,-2.2512,-2.2871,-2.2413,-2.3537,-2.4083,-2.4112,-2.4112,-2.4112,-2.4112,-2.4087,-2.475,0.541,0.6195,0.7146,0.7392,0.8066,0.8657,0.8612,0.9028,0.9309,0.8844,0.8672,0.86,0.86,0.8342,0.81,0.8081,0.759,0.714,0.6976,0.6673,0.6558,0.67,0.6511,0.6389,0.6389,0.5912,0.5454,0.512,0.4677,0.4236,0.3799,0.3774,0.3774,0.3774,0.3666,0.3666,0.3774,0.3666,0.3613,0.3613,0.3646,0.3721,0.3884,0.3976,0.3835,0.3445,0.2739,0.2047,0.1342,0.0626,0.0199,0.0,0.0,0.0,-0.0067,-0.0572,-0.0908,-0.1244,-0.2246,-0.2714,-0.295,-0.3489,-0.3658,-0.3694,-0.3894,-0.4287,-0.4842,-0.5576,-0.656,-0.7544,-0.8199,-0.9064,-0.9671,-0.9306,-0.9728,-1.0206,-1.0206,-1.0724,-1.1392,-1.2074,-1.2351,-1.2726,-1.3381,-1.3511,-1.3511,-1.3511,-1.4291,-1.5284,-1.6386,-1.723,-1.8054,-1.891,-1.9811,-2.0398,-2.0537,-2.0947,-2.1385,-2.186,-2.2235,-2.2488,-2.2579,-2.2552,-2.2866,-2.3513,-2.3499,-2.3642,-2.4021,-2.4491,-2.4505,-2.4112,-2.4105,-2.4274,0.5391,0.6038,0.6876,0.7441,0.8011,0.8567,0.9028,0.9054,0.8942,0.8732,0.8653,0.8547,0.8368,0.8235,0.8103,0.7904,0.7429,0.7052,0.6895,0.6569,0.6309,0.6254,0.6309,0.6184,0.5849,0.5499,0.512,0.4649,0.4211,0.3855,0.3613,0.3613,0.3613,0.3613,0.3613,0.3613,0.3613,0.3613,0.3613,0.3613,0.3613,0.3561,0.3508,0.3573,0.3434,0.307,0.2103,0.1302,0.0628,0.0195,0.0,0.0,0.0,0.0,-0.0067,-0.0504,-0.1007,-0.1643,-0.2713,-0.3318,-0.3723,-0.4164,-0.43,-0.4334,-0.4628,-0.4984,-0.5441,-0.6199,-0.699,-0.7744,-0.8328,-0.932,-1.0117,-0.9951,-1.0421,-1.0912,-1.0912,-1.143,-1.2012,-1.2412,-1.2726,-1.307,-1.3692,-1.3791,-1.3842,-1.4022,-1.4894,-1.593,-1.7062,-1.8043,-1.8792,-1.916,-2.0144,-2.0878,-2.114,-2.1738,-2.2404,-2.316,-2.3519,-2.3822,-2.4126,-2.3571,-2.3594,-2.4379,-2.4299,-2.4394,-2.4723,-2.5108,-2.502,-2.4476,-2.4468,-2.4329,0.4956,0.5549,0.6315,0.6913,0.7439,0.8111,0.919,0.8804,0.8235,0.8268,0.8421,0.8421,0.7981,0.8235,0.8309,0.7568,0.7273,0.7031,0.6701,0.6546,0.6302,0.5923,0.6155,0.6046,0.5243,0.4962,0.4649,0.4233,0.3827,0.3613,0.3613,0.3613,0.3613,0.3613,0.3613,0.3613,0.3613,0.3613,0.3583,0.3527,0.3527,0.3266,0.2818,0.2889,0.2882,0.2751,0.1529,0.063,0.0,0.0,0.0,0.0,0.0,0.0,0.0,-0.0134,-0.1005,-0.2174,-0.2811,-0.3587,-0.43,-0.43,-0.4334,-0.4498,-0.5113,-0.5408,-0.5639,-0.6301,-0.7027,-0.7619,-0.7777,-0.8924,-1.018,-1.051,-1.1094,-1.1602,-1.1602,-1.2135,-1.2604,-1.2604,-1.307,-1.3631,-1.407,-1.413,-1.4309,-1.4834,-1.5757,-1.662,-1.7152,-1.8325,-1.9148,-1.9226,-2.0447,-2.1522,-2.2125,-2.2842,-2.3711,-2.483,-2.4932,-2.5209,-2.5756,-2.51,-2.4823,-2.5067,-2.5499,-2.5753,-2.578,-2.5796,-2.5522,-2.5005,-2.5005,-2.4709,0.541,0.5629,0.602,0.6571,0.6998,0.7429,0.7984,0.753,0.7369,0.8705,0.8474,0.8029,0.7928,0.7975,0.7869,0.7273,0.73,0.7166,0.6399,0.6201,0.6009,0.5705,0.5424,0.5175,0.4981,0.4588,0.4315,0.4205,0.3827,0.3613,0.3613,0.3613,0.3613,0.3613,0.3613,0.3613,0.3613,0.3613,0.3357,0.2905,0.2905,0.2654,0.2199,0.2677,0.2377,0.1466,0.0604,0.0134,0.0,0.0,0.0,0.0,0.0,0.0,-0.0134,-0.1241,-0.1842,-0.2274,-0.3553,-0.4131,-0.43,-0.43,-0.4658,-0.5113,-0.5243,-0.61,-0.706,-0.7223,-0.7754,-0.8317,-0.8506,-0.9671,-1.0829,-1.1055,-1.1703,-1.2289,-1.2289,-1.2826,-1.329,-1.329,-1.3411,-1.3541,-1.3631,-1.3662,-1.3932,-1.4765,-1.5449,-1.6244,-1.7291,-1.797,-1.8685,-1.9566,-2.0862,-2.1777,-2.2037,-2.3469,-2.4504,-2.4883,-2.5245,-2.5732,-2.6371,-2.5414,-2.5085,-2.5542,-2.5313,-2.5358,-2.5733,-2.576,-2.5522,-2.5005,-2.5005,-2.4989,0.5132,0.5332,0.5618,0.6261,0.6748,0.7166,0.7375,0.6993,0.6853,0.7765,0.7503,0.7079,0.7079,0.7079,0.6999,0.6723,0.6674,0.6534,0.6073,0.575,0.5454,0.5124,0.4983,0.4736,0.4325,0.4236,0.4125,0.3935,0.3719,0.3613,0.3613,0.3613,0.3613,0.3613,0.333,0.316,0.316,0.288,0.2573,0.2263,0.2263,0.1978,0.1474,0.1861,0.1515,0.0538,0.0166,0.0,0.0,0.0,0.0,-0.0032,-0.0508,-0.0679,-0.0872,-0.2549,-0.3153,-0.3251,-0.4028,-0.43,-0.4364,-0.4658,-0.5017,-0.5441,-0.6133,-0.6892,-0.7559,-0.7884,-0.8409,-0.8894,-0.9022,-1.0091,-1.1219,-1.1492,-1.2297,-1.2978,-1.2978,-1.326,-1.3511,-1.3511,-1.3511,-1.3631,-1.4073,-1.4588,-1.5059,-1.5546,-1.6547,-1.7287,-1.749,-1.8638,-1.9537,-1.9756,-2.0427,-2.1314,-2.2512,-2.3917,-2.4861,-2.5116,-2.5694,-2.6197,-2.6535,-2.6326,-2.6322,-2.6581,-2.6367,-2.6367,-2.6621,-2.6364,-2.5933,-2.537,-2.5377,-2.5282,0.4623,0.4974,0.5304,0.6022,0.6512,0.6815,0.6896,0.662,0.6317,0.629,0.6236,0.6209,0.6209,0.6209,0.6154,0.6073,0.5937,0.5828,0.5664,0.534,0.4956,0.4546,0.4625,0.4405,0.3666,0.391,0.3962,0.3638,0.3613,0.3613,0.3613,0.3613,0.3613,0.3613,0.3102,0.2792,0.2708,0.2209,0.1846,0.1651,0.1539,0.1217,0.0739,0.0853,0.0587,0.0,0.0,0.0,0.0,0.0,-0.0062,-0.0283,-0.1087,-0.1506,-0.1877,-0.3658,-0.43,-0.43,-0.43,-0.44,-0.4628,-0.5147,-0.5474,-0.5903,-0.7125,-0.7587,-0.7787,-0.8339,-0.8888,-0.9306,-0.9396,-1.0351,-1.1334,-1.1452,-1.2529,-1.3488,-1.3497,-1.3556,-1.3599,-1.3525,-1.3687,-1.4121,-1.4982,-1.59,-1.6473,-1.6399,-1.7665,-1.8447,-1.7955,-1.9651,-2.0697,-2.0153,-2.0287,-2.1108,-2.2828,-2.4041,-2.4955,-2.5439,-2.6,-2.6404,-2.6642,-2.7152,-2.7458,-2.76,-2.76,-2.76,-2.76,-2.6982,-2.6457,-2.5947,-2.5848,-2.559,0.4343,0.4809,0.5418,0.6049,0.5864,0.565,0.6055,0.57,0.5234,0.4987,0.5614,0.6209,0.6209,0.6209,0.6018,0.5496,0.5823,0.5878,0.5117,0.5058,0.4948,0.4546,0.4184,0.3855,0.361,0.3638,0.3666,0.3613,0.3613,0.3613,0.3613,0.3613,0.3613,0.3613,0.3527,0.3216,0.2708,0.2625,0.2068,0.1009,0.0477,0.0203,0.0123,0.0124,0.0096,0.0,0.0,0.0,0.0,0.0,-0.0391,-0.0995,-0.1299,-0.1931,-0.2846,-0.3892,-0.43,-0.43,-0.43,-0.4831,-0.5488,-0.5345,-0.6166,-0.726,-0.7423,-0.7922,-0.8376,-0.849,-0.8892,-0.9396,-0.9805,-1.0559,-1.1066,-1.0386,-1.1901,-1.3489,-1.3499,-1.3854,-1.4046,-1.3589,-1.4397,-1.5363,-1.6007,-1.6569,-1.6799,-1.6365,-1.7014,-1.8005,-1.9329,-2.0329,-2.0996,-2.1263,-2.2191,-2.2543,-2.1792,-2.3396,-2.4819,-2.5693,-2.5617,-2.6068,-2.7233,-2.6867,-2.6956,-2.76,-2.76,-2.76,-2.76,-2.6982,-2.6642,-2.6578,-2.6048,-2.5943,0.3784,0.4684,0.5414,0.5454,0.5481,0.5489,0.5599,0.5348,0.5073,0.4936,0.5152,0.534,0.5254,0.5254,0.5171,0.4897,0.5062,0.512,0.4736,0.4625,0.4515,0.4356,0.4021,0.3769,0.3716,0.3638,0.3613,0.3613,0.3613,0.3613,0.3613,0.3272,0.3102,0.3102,0.2768,0.2293,0.1706,0.1679,0.1259,0.0393,0.014,0.0,0.0,0.0,0.0,0.0,0.0,0.0,0.0,0.0,-0.0422,-0.1149,-0.1613,-0.2321,-0.3182,-0.3995,-0.43,-0.4367,-0.4894,-0.5253,-0.558,-0.6301,-0.6961,-0.7559,-0.7954,-0.8474,-0.8952,-0.8956,-0.9506,-1.0232,-1.0619,-1.1336,-1.1917,-1.1689,-1.3185,-1.4449,-1.367,-1.4463,-1.5276,-1.5113,-1.5744,-1.6371,-1.6661,-1.6947,-1.7092,-1.6901,-1.7246,-1.7614,-1.7868,-2.0389,-2.2189,-2.2376,-2.2857,-2.2983,-2.2439,-2.3164,-2.3832,-2.4262,-2.5062,-2.5702,-2.6149,-2.631,-2.659,-2.6982,-2.7382,-2.76,-2.76,-2.6982,-2.6537,-2.6204,-2.6263,-2.6113,0.3495,0.4485,0.5174,0.4946,0.5136,0.5373,0.5258,0.5156,0.5069,0.5128,0.4963,0.477,0.4625,0.4546,0.4491,0.4491,0.4491,0.4491,0.4491,0.4384,0.4249,0.4193,0.4024,0.3882,0.3796,0.3719,0.358,0.3385,0.3357,0.3302,0.3163,0.2713,0.2458,0.2458,0.204,0.1512,0.0898,0.0757,0.0449,0.0,0.0,0.0,0.0,0.0,0.0,0.0,0.0,0.0,0.0,0.0,-0.0522,-0.1402,-0.1897,-0.2649,-0.3553,-0.4097,-0.43,-0.4431,-0.5286,-0.558,-0.5804,-0.7092,-0.7624,-0.7884,-0.8506,-0.899,-0.9382,-0.9705,-1.0341,-1.1024,-1.149,-1.2135,-1.2891,-1.3835,-1.5302,-1.6154,-1.4901,-1.5812,-1.6902,-1.6996,-1.7294,-1.7541,-1.7541,-1.7654,-1.7768,-1.7768,-1.8124,-1.8332,-1.8121,-2.1035,-2.3108,-2.3108,-2.3108,-2.3108,-2.3108,-2.3108,-2.3198,-2.3433,-2.4416,-2.506,-2.5231,-2.5646,-2.6112,-2.6553,-2.6925,-2.7303,-2.7635,-2.7313,-2.6872,-2.6296,-2.6726,-2.6524,0.3748,0.4252,0.4586,0.4768,0.4823,0.4892,0.5062,0.5011,0.4983,0.5242,0.5183,0.5042,0.4901,0.468,0.4491,0.4491,0.4491,0.4491,0.4491,0.4491,0.4408,0.4221,0.4193,0.4079,0.3824,0.3796,0.3489,0.2792,0.2736,0.2486,0.193,0.1874,0.1846,0.1846,0.1818,0.1512,0.0898,0.0336,0.0028,0.0,0.0,0.0,0.0,0.0,0.0,0.0,0.0,0.0,0.0,0.0,-0.0805,-0.2041,-0.2078,-0.2986,-0.4233,-0.43,-0.43,-0.4398,-0.5084,-0.5771,-0.6465,-0.726,-0.7917,-0.8544,-0.9087,-0.9274,-0.9546,-1.0751,-1.1198,-1.1438,-1.2241,-1.262,-1.3541,-1.6455,-1.8065,-1.8711,-1.7944,-1.8393,-1.8941,-1.8941,-1.8952,-1.8982,-1.8982,-1.8992,-1.8992,-1.8992,-1.9705,-2.0842,-2.253,-2.2967,-2.3108,-2.3108,-2.3108,-2.3108,-2.3108,-2.3108,-2.3463,-2.4278,-2.3649,-2.3878,-2.5342,-2.5007,-2.5379,-2.6666,-2.616,-2.6487,-2.769,-2.8231,-2.8188,-2.761,-2.7555,-2.7523,0.2832,0.3648,0.4435,0.4414,0.4679,0.4931,0.4915,0.4772,0.4601,0.4494,0.4353,0.4211,0.399,0.4325,0.4632,0.4632,0.4546,0.4491,0.4491,0.4156,0.3904,0.3824,0.3411,0.3079,0.2965,0.2852,0.2629,0.2265,0.2265,0.2125,0.1818,0.1428,0.1232,0.1232,0.1232,0.1121,0.0898,0.0393,0.0084,0.0,0.0084,0.0086,0.0,0.0,0.0,0.0,0.0,0.0,0.0,0.0,-0.0832,-0.2093,-0.2098,-0.2986,-0.43,-0.43,-0.4561,-0.505,-0.5774,-0.6498,-0.7223,-0.7922,-0.8317,-0.8608,-0.9145,-0.9677,-1.0255,-1.1028,-1.1661,-1.2289,-1.3271,-1.3781,-1.4653,-1.7169,-1.8472,-1.9016,-1.8748,-1.8903,-1.9081,-1.9081,-1.9106,-1.9108,-1.9108,-1.9108,-1.939,-2.0241,-2.0645,-2.1408,-2.2914,-2.3108,-2.3108,-2.3108,-2.3108,-2.3108,-2.3108,-2.3755,-2.3997,-2.359,-2.4249,-2.4661,-2.476,-2.459,-2.507,-2.6302,-2.5745,-2.6,-2.7045,-2.7155,-2.6834,-2.6157,-2.6367,-2.6047,0.2282,0.3089,0.397,0.4129,0.4421,0.4684,0.4699,0.4482,0.4239,0.3984,0.3824,0.3685,0.3494,0.391,0.4218,0.4104,0.4018,0.3935,0.3904,0.3544,0.3292,0.3292,0.288,0.255,0.2497,0.2375,0.2153,0.1793,0.1764,0.1652,0.1343,0.0953,0.0729,0.0729,0.0729,0.0729,0.0729,0.0421,0.0224,0.014,0.0168,0.0142,0.0058,0.003,0.0,0.0,0.0,0.0,0.0,0.0,-0.0831,-0.209,-0.2098,-0.2986,-0.4334,-0.4561,-0.4918,-0.5441,-0.6429,-0.7092,-0.7624,-0.8284,-0.8517,-0.8657,-0.9471,-1.0066,-1.0678,-1.1599,-1.2248,-1.2925,-1.3991,-1.4886,-1.5884,-1.7434,-1.8395,-1.9008,-1.9108,-1.9108,-1.9108,-1.9108,-1.9108,-1.9108,-1.9108,-1.9482,-2.0074,-2.0958,-2.1292,-2.1929,-2.3281,-2.3434,-2.3459,-2.3647,-2.3672,-2.3597,-2.3409,-2.4267,-2.4412,-2.3477,-2.4461,-2.4903,-2.462,-2.4661,-2.513,-2.6062,-2.5667,-2.5959,-2.6966,-2.6908,-2.6607,-2.6142,-2.6299,-2.5966,0.0,0.0,0.0,0.3896,0.4079,0.4141,0.4422,0.4173,0.3876,0.3792,0.3677,0.3566,0.3541,0.3436,0.3246,0.2907,0.2877,0.285,0.2736,0.2681,0.2681,0.2681,0.2674,0.2609,0.2477,0.2452,0.2118,0.1351,0.1293,0.1011,0.0421,0.0393,0.0393,0.0393,0.0393,0.0393,0.0393,0.0393,0.0421,0.0393,0.028,0.0224,0.0197,0.0058,0.0,0.0,0.0,0.0,-0.0034,-0.0034,-0.0838,-0.2108,-0.211,-0.3017,-0.4367,-0.5047,-0.5309,-0.554,-0.6994,-0.7521,-0.7624,-0.8284,-0.8517,-0.8782,-1.0095,-1.0514,-1.0869,-1.2548,-1.3016,-1.3266,-1.4344,-1.5877,-1.7182,-1.7379,-1.8138,-1.8875,-1.9075,-1.9108,-1.9108,-1.9108,-1.9108,-1.9108,-1.9108,-2.0172,-2.1054,-2.1106,-2.1671,-2.2577,-2.396,-2.4042,-2.4199,-2.4693,-2.4788,-2.4575,-2.4067,-2.4531,-2.4575,-2.4054,-2.4172,-2.4478,-2.4981,-2.5192,-2.5538,-2.6012,-2.5909,-2.6385,-2.7508,-2.7645,-2.769,-2.7678,-2.7544,-2.749,0.186,0.0,0.0,0.0,0.0,0.0,0.4091,0.0,0.3709,0.3313,0.3203,0.2983,0.2397,0.227,0.2188,0.199,0.2573,0.3019,0.2991,0.2543,0.2181,0.2181,0.173,0.1378,0.1337,0.1375,0.1263,0.0903,0.0872,0.0719,0.0421,0.0393,0.0393,0.0393,0.0393,0.0393,0.0393,0.0533,0.0568,0.0465,0.0539,0.0518,0.0421,0.0237,0.0209,0.0274,0.0092,-0.0187,-0.0505,-0.06,-0.123,-0.2147,-0.2582,-0.3396,-0.4367,-0.5047,-0.5639,-0.6231,-0.7158,-0.7819,-0.8252,-0.8447,-0.877,-0.9256,-1.0227,-1.0929,-1.1662,-1.2717,-1.3177,-1.3699,-1.5048,-1.6759,-1.8124,-1.8192,-1.863,-1.9042,-1.9108,-1.9108,-1.9108,-1.9108,-1.9108,-1.9108,-1.9108,-1.9405,-1.9976,-2.0942,-2.1355,-2.1758,-2.2365,-2.3194,-2.3786,-2.3931,-2.4439,-2.4725,-2.4575,-2.5071,-2.5159,-2.4619,-2.4968,-2.5231,-2.5289,-2.5338,-2.58,-2.6729,-2.6932,-2.717,-2.7492,-2.5897,-2.5109,-2.5167,-2.6771,-2.749,0.1591,0.1858,0.2201,0.2713,0.0,0.0,0.3465,0.3379,0.3078,0.0,0.2471,0.2313,0.1868,0.1797,0.1769,0.1685,0.2186,0.2519,0.2378,0.1989,0.1709,0.1709,0.1373,0.1106,0.1033,0.1073,0.1056,0.0843,0.0802,0.0726,0.0618,0.0617,0.0617,0.0617,0.0617,0.0617,0.0617,0.0729,0.0742,0.0677,0.0684,0.0663,0.0575,0.0381,0.0321,0.0386,0.0,-0.0356,-0.0741,-0.1333,-0.1922,-0.2463,-0.2822,-0.3448,-0.421,-0.4906,-0.5645,-0.6415,-0.7159,-0.7906,-0.8517,-0.8517,-0.8861,-0.9467,-1.0432,-1.1215,-1.2012,-1.2941,-1.3805,-1.4625,-1.5463,-1.7035,-1.8438,-1.8482,-1.8741,-1.9008,-1.9065,-1.9108,-1.9108,-1.9108,-1.9108,-1.9108,-1.9108,-1.9108,-1.9363,-2.0139,-2.0864,-2.162,-2.2511,-2.3413,-2.4189,-2.4756,-2.5219,-2.541,-2.5172,-2.5636,-2.5724,-2.5184,-2.5649,-2.5937,-2.5879,-2.5875,-2.616,-2.679,-2.7249,-2.7512,-2.7496,-2.6161,-2.5517,-2.5545,-2.686,-2.749,0.1366,0.1569,0.1875,0.2381,0.2566,0.0,0.275,0.26,0.2313,0.0,0.1831,0.1784,0.1766,0.1782,0.1785,0.1778,0.1788,0.1686,0.141,0.1354,0.1326,0.1326,0.1435,0.1441,0.1219,0.1283,0.1248,0.0995,0.0902,0.0843,0.0815,0.087,0.0898,0.0898,0.0898,0.0898,0.0898,0.0898,0.0913,0.0913,0.077,0.0714,0.0706,0.0456,0.0336,0.0336,-0.0252,-0.0645,-0.0925,-0.2045,-0.2671,-0.2907,-0.2968,-0.3371,-0.3994,-0.4813,-0.5578,-0.6316,-0.7108,-0.789,-0.8517,-0.8517,-0.8894,-0.9588,-1.0623,-1.1376,-1.206,-1.325,-1.4561,-1.5694,-1.5834,-1.7079,-1.8371,-1.8516,-1.8684,-1.8875,-1.9075,-1.9108,-1.9108,-1.9108,-1.9108,-1.9108,-1.9108,-1.9108,-1.9102,-1.9111,-2.0292,-2.1754,-2.323,-2.4026,-2.4921,-2.6114,-2.6383,-2.6285,-2.5737,-2.6197,-2.6273,-2.5724,-2.621,-2.6499,-2.6499,-2.6499,-2.6496,-2.6501,-2.7118,-2.7454,-2.7494,-2.7496,-2.749,-2.749,-2.749,-2.749,0.1321,0.1389,0.1548,0.1877,0.196,0.0,0.2598,0.267,0.2571,0.0,0.2275,0.2143,0.1716,0.1691,0.1707,0.1658,0.1733,0.1785,0.177,0.1692,0.1548,0.1401,0.1511,0.1517,0.129,0.1452,0.1351,0.0864,0.0638,0.0407,0.0197,0.0645,0.0898,0.0898,0.0898,0.0898,0.0898,0.0898,0.0913,0.0913,0.0884,0.0856,0.0854,0.0199,-0.0028,0.0028,-0.0785,-0.1373,-0.1792,-0.2296,-0.2664,-0.2962,-0.3433,-0.3727,-0.4055,-0.5264,-0.5916,-0.6379,-0.7607,-0.8244,-0.8517,-0.8517,-0.9107,-0.9957,-1.0455,-1.1228,-1.2229,-1.3611,-1.4673,-1.5609,-1.6573,-1.7638,-1.8516,-1.8717,-1.8908,-1.9031,-1.9108,-1.9108,-1.9108,-1.9108,-1.9108,-1.9108,-1.9108,-1.9108,-1.9088,-1.9112,-1.9923,-2.0685,-2.1026,-2.2878,-2.4292,-2.4541,-2.5721,-2.6449,-2.6336,-2.6424,-2.6449,-2.6336,-2.6436,-2.6499,-2.6499,-2.6499,-2.6496,-2.6501,-2.6879,-2.7248,-2.7494,-2.7496,-2.749,-2.749,-2.749,-2.749,0.1284,0.1344,0.1433,0.1569,0.1591,0.0,0.0,0.2096,0.2075,0.2017,0.2008,0.1922,0.1659,0.1615,0.1661,0.1661,0.1711,0.1773,0.1831,0.1807,0.1767,0.1648,0.1748,0.1733,0.1578,0.1652,0.1374,0.0548,0.0,-0.0208,0.0029,0.0368,0.0701,0.0982,0.101,0.0954,0.0898,0.0898,0.0913,0.0913,0.0912,0.0913,0.0883,0.0199,-0.0056,-0.0056,-0.1092,-0.1708,-0.2043,-0.2573,-0.2938,-0.3182,-0.3553,-0.3906,-0.4287,-0.5056,-0.5848,-0.666,-0.7479,-0.8085,-0.8544,-0.8797,-0.9396,-1.0104,-1.0725,-1.1652,-1.2709,-1.3626,-1.4597,-1.555,-1.6618,-1.758,-1.8367,-1.8723,-1.8942,-1.9108,-1.9108,-1.9108,-1.9231,-1.9649,-1.9396,-1.9526,-2.0872,-1.9986,-1.9108,-1.9108,-1.9841,-2.0527,-2.0952,-2.2825,-2.4264,-2.4671,-2.5769,-2.6499,-2.6499,-2.6499,-2.6499,-2.6499,-2.6499,-2.6499,-2.6499,-2.6499,-2.6555,-2.6667,-2.6879,-2.7154,-2.7494,-2.7496,-2.749,-2.749,-2.749,-2.749,0.1199,0.1277,0.1344,0.1344,0.1344,0.1355,0.0,0.0,0.0,0.1496,0.1531,0.1531,0.0,0.0,0.0,0.1621,0.0,0.0,0.0,0.1811,0.0,0.1835,0.1777,0.1742,0.1785,0.1734,0.1224,0.0032,-0.0501,-0.0607,-0.0235,0.0086,0.048,0.0954,0.1066,0.1038,0.0898,0.0898,0.091,0.0905,0.0909,0.0825,0.07,0.0114,-0.0224,-0.042,-0.1511,-0.2043,-0.2183,-0.2798,-0.3163,-0.3332,-0.353,-0.3968,-0.4536,-0.4851,-0.5801,-0.6956,-0.7347,-0.7985,-0.8738,-0.9145,-0.9684,-1.0321,-1.1191,-1.2098,-1.2989,-1.3826,-1.462,-1.5482,-1.6689,-1.752,-1.8216,-1.8616,-1.8913,-1.9108,-1.9108,-1.9108,-1.9297,-2.0009,-1.9584,-1.9811,-2.1967,-2.0522,-1.9108,-1.9108,-1.9713,-2.0438,-2.1247,-2.2878,-2.4268,-2.5004,-2.5769,-2.628,-2.628,-2.628,-2.628,-2.628,-2.6418,-2.6499,-2.6499,-2.6499,-2.6602,-2.6786,-2.6922,-2.7138,-2.7481,-2.7496,-2.749,-2.749,-2.749,-2.749,0.0945,0.1033,0.1141,0.1141,0.1141,0.1144,0.1149,0.0,0.1288,0.1179,0.0,0.1295,0.1181,0.0,0.0,0.1334,0.0,0.0,0.1609,0.1688,0.1691,0.1631,0.113,0.1017,0.164,0.149,0.0676,-0.0933,-0.0408,-0.0395,-0.1265,-0.0117,0.052,0.0477,0.087,0.1038,0.0898,0.0898,0.0899,0.0902,0.0899,0.0618,0.0085,-0.0532,-0.109,-0.1623,-0.2296,-0.2605,-0.2635,-0.283,-0.2944,-0.3,-0.3444,-0.3968,-0.4591,-0.5332,-0.6153,-0.7016,-0.7814,-0.8585,-0.921,-0.9274,-0.9939,-1.087,-1.1729,-1.211,-1.2633,-1.4717,-1.5142,-1.542,-1.7409,-1.8027,-1.8177,-1.8379,-1.8775,-1.9108,-1.9108,-1.9108,-1.9131,-1.9231,-1.9164,-1.9212,-1.949,-1.9303,-1.9108,-1.9108,-1.9168,-1.9573,-2.0429,-2.2258,-2.3674,-2.4182,-2.4969,-2.5453,-2.5453,-2.5453,-2.5453,-2.5453,-2.6107,-2.6499,-2.6499,-2.6499,-2.6568,-2.6726,-2.6909,-2.7126,-2.7315,-2.7436,-2.749,-2.749,-2.749,-2.749,0.0905,0.1055,0.1186,0.1119,0.1164,0.1186,0.1119,0.0935,0.0761,0.0697,0.0,0.0,0.0,0.0,0.0,0.0,0.0573,0.0,0.0,0.0,0.0923,0.1618,0.0,0.0,0.1341,0.0793,-0.0031,-0.1129,-0.09,-0.0906,-0.1351,-0.0607,0.0057,0.0561,0.0757,0.087,0.0898,0.0898,0.0729,0.0393,0.0729,0.0392,-0.0531,-0.0783,-0.1229,-0.1846,-0.2437,-0.2691,-0.2719,-0.2833,-0.2888,-0.2979,-0.363,-0.4365,-0.5174,-0.6068,-0.6922,-0.7726,-0.8212,-0.8585,-0.8926,-0.9518,-1.0415,-1.1373,-1.1934,-1.2428,-1.3133,-1.4796,-1.5473,-1.6127,-1.7826,-1.8285,-1.8357,-1.8713,-1.8963,-1.9108,-1.9108,-1.9108,-1.9231,-1.9584,-1.9363,-1.9276,-1.9771,-1.9432,-1.9108,-1.9108,-1.9117,-1.9398,-2.0277,-2.1764,-2.3106,-2.399,-2.4409,-2.4791,-2.5276,-2.4862,-2.4791,-2.5276,-2.5629,-2.5804,-2.5804,-2.5908,-2.6117,-2.6405,-2.6897,-2.71,-2.6964,-2.7323,-2.749,-2.749,-2.749,-2.749,0.0906,0.1033,0.1166,0.1031,0.1054,0.1075,0.0851,0.0573,0.0302,0.0135,-0.0137,0.0,0.0,0.0,-0.0407,-0.0373,0.0,0.007,0.0428,0.0145,0.0,0.0,0.0,0.0,0.0,0.0559,-0.0091,-0.1138,-0.1074,-0.1106,-0.1437,-0.0978,-0.0312,0.0569,0.0507,0.0537,0.0719,0.0685,0.0426,-0.0028,0.0426,0.0113,-0.0894,-0.1062,-0.1482,-0.2071,-0.2521,-0.2691,-0.2719,-0.2805,-0.293,-0.3159,-0.3952,-0.4877,-0.5859,-0.6595,-0.7451,-0.8245,-0.8431,-0.8673,-0.9081,-1.0123,-1.0982,-1.1685,-1.2089,-1.2728,-1.3588,-1.4854,-1.5674,-1.6427,-1.7688,-1.8102,-1.8257,-1.8464,-1.8828,-1.9133,-1.9162,-1.9269,-1.9584,-2.0226,-1.9966,-1.9748,-1.9987,-1.9518,-1.9108,-1.9108,-1.9226,-1.9588,-2.0323,-2.151,-2.2698,-2.3675,-2.3804,-2.4022,-2.4623,-2.4131,-2.4131,-2.4933,-2.4969,-2.4969,-2.4969,-2.5217,-2.5534,-2.5873,-2.6645,-2.685,-2.6461,-2.7019,-2.7289,-2.7289,-2.7423,-2.749,0.0944,0.09,0.0877,0.0742,0.0719,0.0606,0.0134,0.0134,0.0045,-0.0537,-0.0582,-0.0537,-0.0672,-0.0582,-0.0492,-0.0493,-0.0426,0.0,0.0,0.0046,0.0365,0.1382,0.1687,0.1448,0.0,0.1232,0.0895,-0.1134,-0.0582,-0.0654,-0.1819,-0.1144,-0.0381,0.0294,0.0,-0.0058,0.0215,0.0089,0.0,-0.0088,0.0,-0.0289,-0.0922,-0.151,-0.2099,-0.2663,-0.2691,-0.2691,-0.2691,-0.2719,-0.305,-0.3656,-0.4384,-0.5419,-0.65,-0.6706,-0.7394,-0.8245,-0.8431,-0.9145,-1.0117,-1.1209,-1.156,-1.1716,-1.2305,-1.2881,-1.3618,-1.5148,-1.5662,-1.5918,-1.6815,-1.7389,-1.7616,-1.7182,-1.8112,-1.9138,-1.9337,-1.9736,-2.0258,-2.0933,-2.106,-2.0642,-1.935,-1.9138,-1.9108,-1.9108,-1.9591,-2.007,-2.0369,-2.151,-2.2502,-2.2984,-2.3038,-2.3038,-2.3075,-2.3038,-2.335,-2.4084,-2.4145,-2.4145,-2.4145,-2.4528,-2.4826,-2.504,-2.5953,-2.6242,-2.5931,-2.6461,-2.6726,-2.676,-2.7255,-2.749,0.1053,0.1099,0.1121,0.0899,0.0898,0.0784,0.0157,-0.0201,-0.0537,-0.1052,-0.1411,-0.1636,-0.1681,-0.1658,-0.1636,-0.1636,-0.1456,-0.1215,0.0,-0.0338,0.0046,0.0172,0.0601,0.0722,0.0361,0.0461,0.0056,-0.1147,-0.0986,-0.1208,-0.2046,-0.1513,-0.0971,-0.0501,-0.0446,-0.0362,-0.0338,-0.0366,-0.069,-0.1294,-0.0961,-0.1283,-0.2142,-0.204,-0.2329,-0.2892,-0.2805,-0.2813,-0.289,-0.2805,-0.3152,-0.3789,-0.4452,-0.5445,-0.658,-0.7122,-0.7781,-0.8462,-0.8898,-0.969,-1.0573,-1.0958,-1.131,-1.1716,-1.2328,-1.3078,-1.4024,-1.524,-1.6057,-1.6715,-1.7317,-1.7585,-1.774,-1.7895,-1.8278,-1.8878,-1.9694,-1.9987,-2.0291,-2.0965,-2.1092,-2.0942,-2.0512,-2.0052,-1.9616,-1.9164,-1.9277,-1.9661,-2.0327,-2.077,-2.1566,-2.2877,-2.2515,-2.2402,-2.2964,-2.3001,-2.2879,-2.2606,-2.3091,-2.3386,-2.3386,-2.3829,-2.4204,-2.4467,-2.5511,-2.5826,-2.5288,-2.5896,-2.6186,-2.6173,-2.6346,-2.6633,0.1186,0.1231,0.1254,0.1032,0.1031,0.0873,0.0022,-0.0403,-0.0805,-0.1411,-0.1884,-0.2131,-0.1951,-0.2064,-0.2176,-0.2064,-0.1997,-0.1794,0.0,-0.0793,-0.0441,-0.0555,0.0,0.0357,0.0202,0.013,-0.0322,-0.1292,-0.1145,-0.1338,0.0,-0.166,-0.1155,-0.0659,-0.0763,-0.0841,-0.0858,-0.088,-0.1301,-0.2005,-0.1643,-0.1848,-0.2546,-0.2473,-0.2617,-0.2981,-0.2895,-0.2933,-0.2981,-0.2895,-0.3378,-0.4162,-0.4561,-0.5577,-0.6903,-0.7389,-0.7962,-0.8608,-0.93,-0.9964,-1.0573,-1.0958,-1.131,-1.1716,-1.2328,-1.3199,-1.4207,-1.5093,-1.6049,-1.6882,-1.7337,-1.7575,-1.7771,-1.8081,-1.8392,-1.8878,-1.9684,-1.9976,-2.0291,-2.0965,-2.1092,-2.1028,-2.0773,-2.0387,-1.9933,-1.9528,-1.941,-1.9582,-2.0327,-2.0529,-2.1141,-2.243,-2.2101,-2.1987,-2.2515,-2.2703,-2.2553,-2.2035,-2.2628,-2.3001,-2.3001,-2.3449,-2.3827,-2.397,-2.5052,-2.53,-2.4707,-2.53,-2.5581,-2.5581,-2.5581,-2.5756]}]]